<?xml version='1.0' encoding='UTF-8'?><gpx version="1.1" creator="JPX - https://github.com/jenetics/jpx" xmlns="http://www.topografix.com/GPX/1/1"><trk><trkseg><trkpt lat="45.77164937847873" lon="1.0822531277902225"><ele>330.0</ele><time>2026-04-06T15:32:07.001Z</time></trkpt><trkpt lat="45.77160065120576" lon="1.0823732666963342"><ele>330.0</ele><time>2026-04-06T15:32:09.001Z</time></trkpt><trkpt lat="45.771573384220645" lon="1.0824728392900844"><ele>330.0</ele><time>2026-04-06T15:32:10.001Z</time></trkpt><trkpt lat="45.77155054502857" lon="1.0825753127273605"><ele>330.0</ele><time>2026-04-06T15:32:11.001Z</time></trkpt><trkpt lat="45.77151831466579" lon="1.0826804288627867"><ele>330.0</ele><time>2026-04-06T15:32:12.001Z</time></trkpt><trkpt lat="45.77149110874378" lon="1.0827904046235877"><ele>330.0</ele><time>2026-04-06T15:32:13.001Z</time></trkpt><trkpt lat="45.77146482505197" lon="1.082894912219443"><ele>329.6666666666667</ele><time>2026-04-06T15:32:14.001Z</time></trkpt><trkpt lat="45.77143831983253" lon="1.083010676888249"><ele>329.3333333333333</ele><time>2026-04-06T15:32:15.001Z</time></trkpt><trkpt lat="45.77140538284517" lon="1.0831203004491219"><ele>329.0</ele><time>2026-04-06T15:32:16.001Z</time></trkpt><trkpt lat="45.77138001684614" lon="1.0832275268222535"><ele>328.66666666666663</ele><time>2026-04-06T15:32:17.001Z</time></trkpt><trkpt lat="45.771354908311466" lon="1.0833289346462434"><ele>328.3333333333333</ele><time>2026-04-06T15:32:18.001Z</time></trkpt><trkpt lat="45.771325231641505" lon="1.083427646112838"><ele>328.0</ele><time>2026-04-06T15:32:19.001Z</time></trkpt><trkpt lat="45.77129624128886" lon="1.0835107759370204"><ele>327.0</ele><time>2026-04-06T15:32:20.001Z</time></trkpt><trkpt lat="45.77126177056345" lon="1.083586742177271"><ele>326.0</ele><time>2026-04-06T15:32:22.001Z</time></trkpt><trkpt lat="45.77136611901476" lon="1.0837655033804579"><ele>325.0</ele><time>2026-04-06T15:32:37Z</time></trkpt><trkpt lat="45.771450043652145" lon="1.0838203477677222"><ele>324.0</ele><time>2026-04-06T15:32:38Z</time></trkpt><trkpt lat="45.77153203432951" lon="1.0838894366115444"><ele>323.0</ele><time>2026-04-06T15:32:39Z</time></trkpt><trkpt lat="45.7716211485467" lon="1.0839635814028548"><ele>323.0</ele><time>2026-04-06T15:32:40Z</time></trkpt><trkpt lat="45.771722816372" lon="1.0840462602599719"><ele>323.0</ele><time>2026-04-06T15:32:41Z</time></trkpt><trkpt lat="45.771826459761364" lon="1.0841299103454833"><ele>323.0</ele><time>2026-04-06T15:32:42Z</time></trkpt><trkpt lat="45.77193218325557" lon="1.0842139274586104"><ele>323.0</ele><time>2026-04-06T15:32:43Z</time></trkpt><trkpt lat="45.772042523858744" lon="1.0842948665745942"><ele>322.25</ele><time>2026-04-06T15:32:44Z</time></trkpt><trkpt lat="45.772162932561145" lon="1.0843906014151226"><ele>321.5</ele><time>2026-04-06T15:32:45Z</time></trkpt><trkpt lat="45.77227874297097" lon="1.0844838262235557"><ele>320.75</ele><time>2026-04-06T15:32:46Z</time></trkpt><trkpt lat="45.77238920415106" lon="1.0845787738778863"><ele>320.0</ele><time>2026-04-06T15:32:47Z</time></trkpt><trkpt lat="45.772506171345924" lon="1.084684460071056"><ele>320.0</ele><time>2026-04-06T15:32:48Z</time></trkpt><trkpt lat="45.772621580826176" lon="1.0847824466949576"><ele>320.0</ele><time>2026-04-06T15:32:49Z</time></trkpt><trkpt lat="45.772743113613835" lon="1.0848880246337083"><ele>320.0</ele><time>2026-04-06T15:32:50Z</time></trkpt><trkpt lat="45.77286399720272" lon="1.0849824692752015"><ele>320.0</ele><time>2026-04-06T15:32:51Z</time></trkpt><trkpt lat="45.77298400242147" lon="1.0850746428648774"><ele>319.5</ele><time>2026-04-06T15:32:52Z</time></trkpt><trkpt lat="45.7731089804121" lon="1.0851769706000454"><ele>319.0</ele><time>2026-04-06T15:32:53Z</time></trkpt><trkpt lat="45.773235775641254" lon="1.0852838305368495"><ele>318.5</ele><time>2026-04-06T15:32:54Z</time></trkpt><trkpt lat="45.773362287864465" lon="1.0853918345785631"><ele>318.0</ele><time>2026-04-06T15:32:55Z</time></trkpt><trkpt lat="45.77348744309845" lon="1.0855016129645985"><ele>318.3333333333333</ele><time>2026-04-06T15:32:56Z</time></trkpt><trkpt lat="45.77361242901607" lon="1.0856165420378856"><ele>318.66666666666663</ele><time>2026-04-06T15:32:57Z</time></trkpt><trkpt lat="45.77373519797305" lon="1.0857435989566493"><ele>319.0</ele><time>2026-04-06T15:32:58Z</time></trkpt><trkpt lat="45.77385403015318" lon="1.0858805829568163"><ele>318.3333333333333</ele><time>2026-04-06T15:32:59Z</time></trkpt><trkpt lat="45.773967345773116" lon="1.0860324693384844"><ele>317.6666666666667</ele><time>2026-04-06T15:33:00Z</time></trkpt><trkpt lat="45.774077678628075" lon="1.0861913650825143"><ele>317.0</ele><time>2026-04-06T15:33:01Z</time></trkpt><trkpt lat="45.77418719839304" lon="1.0863512959352268"><ele>317.0</ele><time>2026-04-06T15:33:02Z</time></trkpt><trkpt lat="45.774296588282354" lon="1.0865219397442454"><ele>317.0</ele><time>2026-04-06T15:33:03Z</time></trkpt><trkpt lat="45.77440232966034" lon="1.086700697206904"><ele>317.0</ele><time>2026-04-06T15:33:04Z</time></trkpt><trkpt lat="45.77450394249274" lon="1.0868846904374874"><ele>316.6666666666667</ele><time>2026-04-06T15:33:05Z</time></trkpt><trkpt lat="45.77459726327358" lon="1.0870674875325903"><ele>316.3333333333333</ele><time>2026-04-06T15:33:06Z</time></trkpt><trkpt lat="45.77468317398349" lon="1.087270120353831"><ele>316.0</ele><time>2026-04-06T15:33:07Z</time></trkpt><trkpt lat="45.774757012180864" lon="1.087480072278562"><ele>315.66666666666663</ele><time>2026-04-06T15:33:08Z</time></trkpt><trkpt lat="45.77483372141281" lon="1.0876841114488354"><ele>315.3333333333333</ele><time>2026-04-06T15:33:09Z</time></trkpt><trkpt lat="45.774917500455835" lon="1.0878988744309575"><ele>315.0</ele><time>2026-04-06T15:33:10Z</time></trkpt><trkpt lat="45.77500677383589" lon="1.0881227851762652"><ele>314.6666666666667</ele><time>2026-04-06T15:33:11Z</time></trkpt><trkpt lat="45.77510443597462" lon="1.088365945415761"><ele>314.33333333333337</ele><time>2026-04-06T15:33:12Z</time></trkpt><trkpt lat="45.775200027810946" lon="1.08860183020565"><ele>314.0</ele><time>2026-04-06T15:33:13Z</time></trkpt><trkpt lat="45.77529545195427" lon="1.0888382022059062"><ele>314.0</ele><time>2026-04-06T15:33:14Z</time></trkpt><trkpt lat="45.77539088083561" lon="1.0890734179280293"><ele>314.0</ele><time>2026-04-06T15:33:15Z</time></trkpt><trkpt lat="45.77548467575451" lon="1.089309387939156"><ele>314.0</ele><time>2026-04-06T15:33:16Z</time></trkpt><trkpt lat="45.77557864907868" lon="1.0895411306776968"><ele>314.0</ele><time>2026-04-06T15:33:17Z</time></trkpt><trkpt lat="45.7756714142129" lon="1.089773299208477"><ele>314.0</ele><time>2026-04-06T15:33:18Z</time></trkpt><trkpt lat="45.775764331341456" lon="1.0900031920281619"><ele>314.0</ele><time>2026-04-06T15:33:19Z</time></trkpt><trkpt lat="45.77585827717494" lon="1.0902401616470008"><ele>313.6666666666667</ele><time>2026-04-06T15:33:20Z</time></trkpt><trkpt lat="45.77595001817768" lon="1.0904766379197584"><ele>313.3333333333333</ele><time>2026-04-06T15:33:21Z</time></trkpt><trkpt lat="45.77604346543425" lon="1.090714569284536"><ele>313.0</ele><time>2026-04-06T15:33:22Z</time></trkpt><trkpt lat="45.77613883604988" lon="1.0909528738893017"><ele>310.3333333333333</ele><time>2026-04-06T15:33:23Z</time></trkpt><trkpt lat="45.776234830399034" lon="1.0911944480317417"><ele>307.6666666666667</ele><time>2026-04-06T15:33:24Z</time></trkpt><trkpt lat="45.776330970697664" lon="1.0914317315245707"><ele>305.0</ele><time>2026-04-06T15:33:25Z</time></trkpt><trkpt lat="45.776426944477855" lon="1.091673322772221"><ele>305.0</ele><time>2026-04-06T15:33:26Z</time></trkpt><trkpt lat="45.776524372673656" lon="1.09191709318603"><ele>305.0</ele><time>2026-04-06T15:33:27Z</time></trkpt><trkpt lat="45.77662423090953" lon="1.0921600573110912"><ele>305.0</ele><time>2026-04-06T15:33:28Z</time></trkpt><trkpt lat="45.776720182176604" lon="1.0924154830478672"><ele>305.0</ele><time>2026-04-06T15:33:29Z</time></trkpt><trkpt lat="45.77681930433607" lon="1.0926625878745584"><ele>305.0</ele><time>2026-04-06T15:33:30Z</time></trkpt><trkpt lat="45.77691529004374" lon="1.0929142867712789"><ele>305.0</ele><time>2026-04-06T15:33:31Z</time></trkpt><trkpt lat="45.777017625532395" lon="1.0931636286293203"><ele>304.33333333333337</ele><time>2026-04-06T15:33:32Z</time></trkpt><trkpt lat="45.777118792936804" lon="1.093419618157054"><ele>303.6666666666667</ele><time>2026-04-06T15:33:33Z</time></trkpt><trkpt lat="45.777223612730246" lon="1.0936708335706975"><ele>303.0</ele><time>2026-04-06T15:33:34Z</time></trkpt><trkpt lat="45.77732572095431" lon="1.0939244540937145"><ele>302.3333333333333</ele><time>2026-04-06T15:33:35Z</time></trkpt><trkpt lat="45.77742458652813" lon="1.0941632712334268"><ele>301.66666666666663</ele><time>2026-04-06T15:33:36Z</time></trkpt><trkpt lat="45.777524262355996" lon="1.0943934519421694"><ele>301.0</ele><time>2026-04-06T15:33:37Z</time></trkpt><trkpt lat="45.777608552058524" lon="1.0946110173317618"><ele>302.3333333333333</ele><time>2026-04-06T15:33:38Z</time></trkpt><trkpt lat="45.77769585133054" lon="1.0948259457776666"><ele>303.6666666666667</ele><time>2026-04-06T15:33:39Z</time></trkpt><trkpt lat="45.77777825966182" lon="1.095020316351499"><ele>305.0</ele><time>2026-04-06T15:33:40Z</time></trkpt><trkpt lat="45.77785653771857" lon="1.095209406476534"><ele>305.0</ele><time>2026-04-06T15:33:41Z</time></trkpt><trkpt lat="45.77792492329888" lon="1.0953889408821833"><ele>305.0</ele><time>2026-04-06T15:33:42Z</time></trkpt><trkpt lat="45.77798316492544" lon="1.0955403687548324"><ele>305.0</ele><time>2026-04-06T15:33:43Z</time></trkpt><trkpt lat="45.77803199346968" lon="1.0956634257923332"><ele>305.0</ele><time>2026-04-06T15:33:44Z</time></trkpt><trkpt lat="45.77807130488556" lon="1.095767250657245"><ele>305.0</ele><time>2026-04-06T15:33:45Z</time></trkpt><trkpt lat="45.778134933797375" lon="1.0958914429538733"><ele>305.0</ele><time>2026-04-06T15:33:47Z</time></trkpt><trkpt lat="45.77827492617577" lon="1.095878646095873"><ele>305.0</ele><time>2026-04-06T15:33:49Z</time></trkpt><trkpt lat="45.77834877945271" lon="1.095836572006911"><ele>305.0</ele><time>2026-04-06T15:33:50Z</time></trkpt><trkpt lat="45.778428243322075" lon="1.0958069230329177"><ele>305.0</ele><time>2026-04-06T15:33:51Z</time></trkpt><trkpt lat="45.77851200373163" lon="1.0957823722801585"><ele>305.0</ele><time>2026-04-06T15:33:52Z</time></trkpt><trkpt lat="45.77858670613472" lon="1.0957556076497064"><ele>304.6666666666667</ele><time>2026-04-06T15:33:53Z</time></trkpt><trkpt lat="45.77865137452111" lon="1.0957138282374344"><ele>304.33333333333337</ele><time>2026-04-06T15:33:54Z</time></trkpt><trkpt lat="45.778691875987214" lon="1.0956398711024464"><ele>304.0</ele><time>2026-04-06T15:33:55Z</time></trkpt><trkpt lat="45.77871219870414" lon="1.0955193073758414"><ele>303.6666666666667</ele><time>2026-04-06T15:33:56Z</time></trkpt><trkpt lat="45.77870683762613" lon="1.0953578911090678"><ele>303.3333333333333</ele><time>2026-04-06T15:33:57Z</time></trkpt><trkpt lat="45.77868548110929" lon="1.0952055665911578"><ele>303.0</ele><time>2026-04-06T15:33:58Z</time></trkpt><trkpt lat="45.77867198834452" lon="1.0950516386907205"><ele>303.25</ele><time>2026-04-06T15:33:59Z</time></trkpt><trkpt lat="45.778664474131304" lon="1.0948850321034327"><ele>303.5</ele><time>2026-04-06T15:34:00Z</time></trkpt><trkpt lat="45.77865605344916" lon="1.0947107785077317"><ele>303.75</ele><time>2026-04-06T15:34:01Z</time></trkpt><trkpt lat="45.77862953270553" lon="1.0945512200529266"><ele>304.0</ele><time>2026-04-06T15:34:02Z</time></trkpt><trkpt lat="45.778618173006016" lon="1.0943876486675095"><ele>304.0</ele><time>2026-04-06T15:34:03Z</time></trkpt><trkpt lat="45.77861285700162" lon="1.0942262830580336"><ele>304.0</ele><time>2026-04-06T15:34:04Z</time></trkpt><trkpt lat="45.77862295553472" lon="1.0940682765564818"><ele>304.0</ele><time>2026-04-06T15:34:05Z</time></trkpt><trkpt lat="45.7786310939755" lon="1.0939077236383636"><ele>304.0</ele><time>2026-04-06T15:34:06Z</time></trkpt><trkpt lat="45.778649546070746" lon="1.09373169301872"><ele>303.75</ele><time>2026-04-06T15:34:07Z</time></trkpt><trkpt lat="45.778659257170844" lon="1.09354078705508"><ele>303.5</ele><time>2026-04-06T15:34:08Z</time></trkpt><trkpt lat="45.77868451520149" lon="1.093348928455176"><ele>303.25</ele><time>2026-04-06T15:34:09Z</time></trkpt><trkpt lat="45.77870853971144" lon="1.0931583158746954"><ele>303.0</ele><time>2026-04-06T15:34:10Z</time></trkpt><trkpt lat="45.77872968478517" lon="1.0929448021890251"><ele>302.75</ele><time>2026-04-06T15:34:11Z</time></trkpt><trkpt lat="45.77874636187398" lon="1.0927693617536585"><ele>302.5</ele><time>2026-04-06T15:34:12Z</time></trkpt><trkpt lat="45.778766420474184" lon="1.0926093345574288"><ele>302.25</ele><time>2026-04-06T15:34:13Z</time></trkpt><trkpt lat="45.778792865396156" lon="1.092448147643914"><ele>302.0</ele><time>2026-04-06T15:34:14Z</time></trkpt><trkpt lat="45.77881389376504" lon="1.0922921481467511"><ele>301.6</ele><time>2026-04-06T15:34:15Z</time></trkpt><trkpt lat="45.778833633792004" lon="1.0921443855574782"><ele>301.2</ele><time>2026-04-06T15:34:16Z</time></trkpt><trkpt lat="45.77884652842467" lon="1.0920054585140342"><ele>300.8</ele><time>2026-04-06T15:34:17Z</time></trkpt><trkpt lat="45.77887633588742" lon="1.0918970728966593"><ele>300.4</ele><time>2026-04-06T15:34:18.001Z</time></trkpt><trkpt lat="45.77888829079555" lon="1.0917418810556279"><ele>300.0</ele><time>2026-04-06T15:34:20.001Z</time></trkpt><trkpt lat="45.77902559704384" lon="1.0917168679110725"><ele>300.0</ele><time>2026-04-06T15:34:22.001Z</time></trkpt><trkpt lat="45.77914110344792" lon="1.0917214341334296"><ele>300.0</ele><time>2026-04-06T15:34:23.001Z</time></trkpt><trkpt lat="45.77927836727212" lon="1.091722191456584"><ele>300.0</ele><time>2026-04-06T15:34:24.001Z</time></trkpt><trkpt lat="45.7794133163551" lon="1.0917212354069996"><ele>300.0</ele><time>2026-04-06T15:34:25.001Z</time></trkpt><trkpt lat="45.77955442159335" lon="1.0916805187609147"><ele>300.25</ele><time>2026-04-06T15:34:26.001Z</time></trkpt><trkpt lat="45.77968794986954" lon="1.091616195562249"><ele>300.5</ele><time>2026-04-06T15:34:27.001Z</time></trkpt><trkpt lat="45.779821493257664" lon="1.0916177669738858"><ele>300.75</ele><time>2026-04-06T15:34:28.001Z</time></trkpt><trkpt lat="45.779946345671455" lon="1.0916021896679562"><ele>301.0</ele><time>2026-04-06T15:34:29.001Z</time></trkpt><trkpt lat="45.78006287031814" lon="1.0916329468850479"><ele>300.5</ele><time>2026-04-06T15:34:30.001Z</time></trkpt><trkpt lat="45.780188898005456" lon="1.0916444520348858"><ele>300.0</ele><time>2026-04-06T15:34:31.001Z</time></trkpt><trkpt lat="45.78031438793275" lon="1.09166201090231"><ele>299.5</ele><time>2026-04-06T15:34:32.001Z</time></trkpt><trkpt lat="45.78044780059701" lon="1.091681410492845"><ele>299.0</ele><time>2026-04-06T15:34:33.001Z</time></trkpt><trkpt lat="45.780585525217425" lon="1.0916993977346332"><ele>299.0</ele><time>2026-04-06T15:34:34.001Z</time></trkpt><trkpt lat="45.780728171483304" lon="1.0917024641341373"><ele>299.0</ele><time>2026-04-06T15:34:35.001Z</time></trkpt><trkpt lat="45.780872838629804" lon="1.0916857341383819"><ele>299.0</ele><time>2026-04-06T15:34:36.001Z</time></trkpt><trkpt lat="45.78101232863309" lon="1.091637160044104"><ele>299.0</ele><time>2026-04-06T15:34:36.999Z</time></trkpt><trkpt lat="45.781147986846584" lon="1.0915912107765657"><ele>299.25</ele><time>2026-04-06T15:34:37.999Z</time></trkpt><trkpt lat="45.78128050609904" lon="1.091564591732061"><ele>299.5</ele><time>2026-04-06T15:34:38.999Z</time></trkpt><trkpt lat="45.78141415894973" lon="1.0915974667008255"><ele>299.75</ele><time>2026-04-06T15:34:39.999Z</time></trkpt><trkpt lat="45.78155375670866" lon="1.0916376985407146"><ele>300.0</ele><time>2026-04-06T15:34:40.999Z</time></trkpt><trkpt lat="45.78169211250131" lon="1.091715385280385"><ele>300.0</ele><time>2026-04-06T15:34:41.999Z</time></trkpt><trkpt lat="45.78183743390865" lon="1.0917814805970874"><ele>300.0</ele><time>2026-04-06T15:34:42.999Z</time></trkpt><trkpt lat="45.78197365425665" lon="1.0918761466350235"><ele>300.0</ele><time>2026-04-06T15:34:43.999Z</time></trkpt><trkpt lat="45.78210829751038" lon="1.0919647841925266"><ele>299.25</ele><time>2026-04-06T15:34:44.999Z</time></trkpt><trkpt lat="45.78224897130765" lon="1.092041512749015"><ele>298.5</ele><time>2026-04-06T15:34:45.999Z</time></trkpt><trkpt lat="45.78237583350208" lon="1.0921096538861366"><ele>297.75</ele><time>2026-04-06T15:34:46.999Z</time></trkpt><trkpt lat="45.782487580303595" lon="1.0921754739522782"><ele>297.0</ele><time>2026-04-06T15:34:47.999Z</time></trkpt><trkpt lat="45.78258248465807" lon="1.092255131946485"><ele>297.0</ele><time>2026-04-06T15:34:48.999Z</time></trkpt><trkpt lat="45.78263709349657" lon="1.0924000649148653"><ele>297.0</ele><time>2026-04-06T15:34:49.999Z</time></trkpt><trkpt lat="45.78270402984689" lon="1.0925472562066179"><ele>297.0</ele><time>2026-04-06T15:34:50.999Z</time></trkpt><trkpt lat="45.782783407552564" lon="1.0927080074155204"><ele>297.0</ele><time>2026-04-06T15:34:51.999Z</time></trkpt><trkpt lat="45.78284784674321" lon="1.0928777582005782"><ele>296.75</ele><time>2026-04-06T15:34:52.999Z</time></trkpt><trkpt lat="45.78290758740827" lon="1.093031523021523"><ele>296.5</ele><time>2026-04-06T15:34:53.999Z</time></trkpt><trkpt lat="45.78297041812323" lon="1.0931775607196006"><ele>296.25</ele><time>2026-04-06T15:34:54.999Z</time></trkpt><trkpt lat="45.783034661593405" lon="1.0933239757335458"><ele>296.0</ele><time>2026-04-06T15:34:55.999Z</time></trkpt><trkpt lat="45.783088427960145" lon="1.0934801205450646"><ele>295.5</ele><time>2026-04-06T15:34:56.999Z</time></trkpt><trkpt lat="45.78315045602449" lon="1.0936215135502607"><ele>295.0</ele><time>2026-04-06T15:34:57.999Z</time></trkpt><trkpt lat="45.78320942698503" lon="1.0937518554663719"><ele>294.5</ele><time>2026-04-06T15:34:58.999Z</time></trkpt><trkpt lat="45.78329955525035" lon="1.0938441941657828"><ele>294.0</ele><time>2026-04-06T15:34:59.999Z</time></trkpt><trkpt lat="45.78341139350383" lon="1.0938994528595987"><ele>292.5</ele><time>2026-04-06T15:35:00.999Z</time></trkpt><trkpt lat="45.78354429660038" lon="1.0939130957708203"><ele>291.0</ele><time>2026-04-06T15:35:02Z</time></trkpt><trkpt lat="45.783693346012825" lon="1.0938927652893384"><ele>289.5</ele><time>2026-04-06T15:35:03Z</time></trkpt><trkpt lat="45.78384430522622" lon="1.0938639770606058"><ele>288.0</ele><time>2026-04-06T15:35:04Z</time></trkpt><trkpt lat="45.783995680498286" lon="1.0938303870799044"><ele>288.0</ele><time>2026-04-06T15:35:05Z</time></trkpt><trkpt lat="45.784135402325056" lon="1.0938051387984558"><ele>288.0</ele><time>2026-04-06T15:35:06Z</time></trkpt><trkpt lat="45.784286013583205" lon="1.093824551022919"><ele>288.0</ele><time>2026-04-06T15:35:07Z</time></trkpt><trkpt lat="45.7844359707551" lon="1.0937969103350191"><ele>288.0</ele><time>2026-04-06T15:35:08Z</time></trkpt><trkpt lat="45.78459620673828" lon="1.093762548887315"><ele>285.6666666666667</ele><time>2026-04-06T15:35:09Z</time></trkpt><trkpt lat="45.78475837432454" lon="1.0936936407168487"><ele>283.33333333333337</ele><time>2026-04-06T15:35:10Z</time></trkpt><trkpt lat="45.78492998514812" lon="1.093638148867826"><ele>281.0</ele><time>2026-04-06T15:35:11Z</time></trkpt><trkpt lat="45.78509956288133" lon="1.0936259332495821"><ele>280.0</ele><time>2026-04-06T15:35:12Z</time></trkpt><trkpt lat="45.78525500969871" lon="1.0935773919682432"><ele>279.0</ele><time>2026-04-06T15:35:13Z</time></trkpt><trkpt lat="45.785412054218966" lon="1.0935656969278882"><ele>278.0</ele><time>2026-04-06T15:35:14Z</time></trkpt><trkpt lat="45.785556845069266" lon="1.0935386930732884"><ele>278.0</ele><time>2026-04-06T15:35:15Z</time></trkpt><trkpt lat="45.78568952978277" lon="1.0935020303921705"><ele>278.0</ele><time>2026-04-06T15:35:16Z</time></trkpt><trkpt lat="45.785814224445915" lon="1.0934792485390756"><ele>278.0</ele><time>2026-04-06T15:35:17Z</time></trkpt><trkpt lat="45.78593509630156" lon="1.0934638132716334"><ele>278.0</ele><time>2026-04-06T15:35:18Z</time></trkpt><trkpt lat="45.78605127769015" lon="1.093461173470307"><ele>277.8</ele><time>2026-04-06T15:35:19Z</time></trkpt><trkpt lat="45.78615348140752" lon="1.093478835137276"><ele>277.6</ele><time>2026-04-06T15:35:20Z</time></trkpt><trkpt lat="45.78623586487625" lon="1.0935044410400436"><ele>277.4</ele><time>2026-04-06T15:35:21Z</time></trkpt><trkpt lat="45.7863021844598" lon="1.0935191019633037"><ele>277.2</ele><time>2026-04-06T15:35:23Z</time></trkpt><trkpt lat="45.78629773730287" lon="1.0933451546464998"><ele>277.0</ele><time>2026-04-06T15:35:25Z</time></trkpt><trkpt lat="45.786265522027925" lon="1.0932405522895994"><ele>277.0</ele><time>2026-04-06T15:35:26Z</time></trkpt><trkpt lat="45.78624959700655" lon="1.093104189784095"><ele>277.0</ele><time>2026-04-06T15:35:27Z</time></trkpt><trkpt lat="45.786202407723906" lon="1.0929556308219417"><ele>277.0</ele><time>2026-04-06T15:35:28Z</time></trkpt><trkpt lat="45.78616377386394" lon="1.0927397958532963"><ele>277.0</ele><time>2026-04-06T15:35:29Z</time></trkpt><trkpt lat="45.7861072519703" lon="1.0924993333099104"><ele>276.5</ele><time>2026-04-06T15:35:30Z</time></trkpt><trkpt lat="45.78606587382779" lon="1.0922973851216482"><ele>276.0</ele><time>2026-04-06T15:35:31Z</time></trkpt><trkpt lat="45.7860295564959" lon="1.0921080197980042"><ele>275.5</ele><time>2026-04-06T15:35:32Z</time></trkpt><trkpt lat="45.78601758617883" lon="1.0919031808350421"><ele>275.0</ele><time>2026-04-06T15:35:33Z</time></trkpt><trkpt lat="45.7860115439018" lon="1.0917098747372587"><ele>272.0</ele><time>2026-04-06T15:35:34Z</time></trkpt><trkpt lat="45.786016643544805" lon="1.0914972356901076"><ele>269.0</ele><time>2026-04-06T15:35:35Z</time></trkpt><trkpt lat="45.78602523626902" lon="1.091251311552097"><ele>266.0</ele><time>2026-04-06T15:35:36Z</time></trkpt><trkpt lat="45.78603220492324" lon="1.0910379431883868"><ele>266.0</ele><time>2026-04-06T15:35:37Z</time></trkpt><trkpt lat="45.786016621401814" lon="1.0908438983768678"><ele>266.0</ele><time>2026-04-06T15:35:38Z</time></trkpt><trkpt lat="45.786010915746445" lon="1.090660409555643"><ele>266.0</ele><time>2026-04-06T15:35:39Z</time></trkpt><trkpt lat="45.786002887268985" lon="1.09048788520169"><ele>266.0</ele><time>2026-04-06T15:35:40Z</time></trkpt><trkpt lat="45.786020154861816" lon="1.0903424627340859"><ele>266.1666666666667</ele><time>2026-04-06T15:35:41Z</time></trkpt><trkpt lat="45.7860265706174" lon="1.0902055944461304"><ele>266.33333333333337</ele><time>2026-04-06T15:35:42Z</time></trkpt><trkpt lat="45.78604062147505" lon="1.0900943611044862"><ele>266.5</ele><time>2026-04-06T15:35:43Z</time></trkpt><trkpt lat="45.78605795887042" lon="1.0899744186342364"><ele>266.6666666666667</ele><time>2026-04-06T15:35:44Z</time></trkpt><trkpt lat="45.78608920157469" lon="1.0898847198090236"><ele>266.8333333333333</ele><time>2026-04-06T15:35:45Z</time></trkpt><trkpt lat="45.78613301336966" lon="1.0898185681226629"><ele>267.0</ele><time>2026-04-06T15:35:46Z</time></trkpt><trkpt lat="45.78619041419553" lon="1.0897674914455986"><ele>268.2</ele><time>2026-04-06T15:35:47Z</time></trkpt><trkpt lat="45.786274407059864" lon="1.0897707516113107"><ele>269.4</ele><time>2026-04-06T15:35:48Z</time></trkpt><trkpt lat="45.786375032846095" lon="1.0897581151199158"><ele>270.6</ele><time>2026-04-06T15:35:49Z</time></trkpt><trkpt lat="45.786508487860615" lon="1.0897967628505656"><ele>271.8</ele><time>2026-04-06T15:35:50Z</time></trkpt><trkpt lat="45.78660554875861" lon="1.0897959034820943"><ele>273.0</ele><time>2026-04-06T15:35:51Z</time></trkpt><trkpt lat="45.78669495636727" lon="1.0897829098696856"><ele>273.0</ele><time>2026-04-06T15:35:52Z</time></trkpt><trkpt lat="45.78678983741885" lon="1.0897338144542597"><ele>273.0</ele><time>2026-04-06T15:35:53Z</time></trkpt><trkpt lat="45.78688794710513" lon="1.0896428845313073"><ele>273.0</ele><time>2026-04-06T15:35:54Z</time></trkpt><trkpt lat="45.78697765140771" lon="1.089515846014304"><ele>273.0</ele><time>2026-04-06T15:35:55Z</time></trkpt><trkpt lat="45.78705317097983" lon="1.0893992728353863"><ele>272.25</ele><time>2026-04-06T15:35:56Z</time></trkpt><trkpt lat="45.78711287631413" lon="1.0892775632362302"><ele>271.5</ele><time>2026-04-06T15:35:57.001Z</time></trkpt><trkpt lat="45.78715639360188" lon="1.089111571246373"><ele>270.75</ele><time>2026-04-06T15:35:58.001Z</time></trkpt><trkpt lat="45.787193268240586" lon="1.0889142096743123"><ele>270.0</ele><time>2026-04-06T15:35:59.001Z</time></trkpt><trkpt lat="45.787244072771585" lon="1.088738433411914"><ele>270.0</ele><time>2026-04-06T15:36:00.001Z</time></trkpt><trkpt lat="45.78728075698916" lon="1.0886208945802072"><ele>270.0</ele><time>2026-04-06T15:36:01.001Z</time></trkpt><trkpt lat="45.787332334468765" lon="1.0885348396740082"><ele>270.0</ele><time>2026-04-06T15:36:02.001Z</time></trkpt><trkpt lat="45.78741657457654" lon="1.088461293255118"><ele>270.0</ele><time>2026-04-06T15:36:03.001Z</time></trkpt><trkpt lat="45.78752937028929" lon="1.088351442028939"><ele>270.0</ele><time>2026-04-06T15:36:04.001Z</time></trkpt><trkpt lat="45.78763235010488" lon="1.0882346292601692"><ele>268.8333333333333</ele><time>2026-04-06T15:36:05.001Z</time></trkpt><trkpt lat="45.78771626763408" lon="1.0881395861995886"><ele>267.6666666666667</ele><time>2026-04-06T15:36:06.001Z</time></trkpt><trkpt lat="45.78779137116005" lon="1.088060672891077"><ele>266.5</ele><time>2026-04-06T15:36:07.001Z</time></trkpt><trkpt lat="45.78786538640571" lon="1.0879861851446684"><ele>265.33333333333337</ele><time>2026-04-06T15:36:08.001Z</time></trkpt><trkpt lat="45.787932368406196" lon="1.0879197267263478"><ele>264.1666666666667</ele><time>2026-04-06T15:36:09.001Z</time></trkpt><trkpt lat="45.787995595694426" lon="1.0878615836635332"><ele>263.0</ele><time>2026-04-06T15:36:10.001Z</time></trkpt><trkpt lat="45.788065578827606" lon="1.0877965076269185"><ele>263.0</ele><time>2026-04-06T15:36:11.001Z</time></trkpt><trkpt lat="45.788141825396714" lon="1.0877391771298965"><ele>263.0</ele><time>2026-04-06T15:36:12.001Z</time></trkpt><trkpt lat="45.78820369686524" lon="1.0876541145873035"><ele>263.0</ele><time>2026-04-06T15:36:13.001Z</time></trkpt><trkpt lat="45.788244499308476" lon="1.087541546043069"><ele>263.0</ele><time>2026-04-06T15:36:14.001Z</time></trkpt><trkpt lat="45.78825871012081" lon="1.0874137652666822"><ele>263.0</ele><time>2026-04-06T15:36:15.001Z</time></trkpt><trkpt lat="45.788285134391394" lon="1.0872606880963882"><ele>262.33333333333337</ele><time>2026-04-06T15:36:16.001Z</time></trkpt><trkpt lat="45.78832755662806" lon="1.087115406026943"><ele>261.6666666666667</ele><time>2026-04-06T15:36:17.001Z</time></trkpt><trkpt lat="45.78835651339841" lon="1.0869849753795082"><ele>261.0</ele><time>2026-04-06T15:36:18.001Z</time></trkpt><trkpt lat="45.788368769422625" lon="1.0868636106878788"><ele>260.3333333333333</ele><time>2026-04-06T15:36:19.001Z</time></trkpt><trkpt lat="45.78838526209065" lon="1.08675662744559"><ele>259.66666666666663</ele><time>2026-04-06T15:36:20.001Z</time></trkpt><trkpt lat="45.78837042197054" lon="1.086658982975145"><ele>259.0</ele><time>2026-04-06T15:36:21.001Z</time></trkpt><trkpt lat="45.788323181649595" lon="1.0865616973491583"><ele>257.8</ele><time>2026-04-06T15:36:22.001Z</time></trkpt><trkpt lat="45.78825448012043" lon="1.0864451826296484"><ele>256.59999999999997</ele><time>2026-04-06T15:36:23.001Z</time></trkpt><trkpt lat="45.78820761395606" lon="1.0863450739304972"><ele>255.4</ele><time>2026-04-06T15:36:24.001Z</time></trkpt><trkpt lat="45.788171728728614" lon="1.0862691669098892"><ele>254.2</ele><time>2026-04-06T15:36:25.001Z</time></trkpt><trkpt lat="45.78811534585738" lon="1.0861300733220105"><ele>253.0</ele><time>2026-04-06T15:36:27.001Z</time></trkpt><trkpt lat="45.78812088436366" lon="1.08597053918673"><ele>253.0</ele><time>2026-04-06T15:36:29.001Z</time></trkpt><trkpt lat="45.788184129550025" lon="1.0858338630044173"><ele>253.0</ele><time>2026-04-06T15:36:31.001Z</time></trkpt><trkpt lat="45.78828091876955" lon="1.0857414929435276"><ele>253.0</ele><time>2026-04-06T15:36:33.001Z</time></trkpt><trkpt lat="45.788355293635476" lon="1.08571610195858"><ele>253.0</ele><time>2026-04-06T15:36:34.001Z</time></trkpt><trkpt lat="45.78843723951031" lon="1.0856860316265402"><ele>253.0</ele><time>2026-04-06T15:36:35.001Z</time></trkpt><trkpt lat="45.788525819112564" lon="1.0856463313382054"><ele>251.33333333333331</ele><time>2026-04-06T15:36:36.001Z</time></trkpt><trkpt lat="45.78861375591148" lon="1.0856024506182924"><ele>249.66666666666666</ele><time>2026-04-06T15:36:37.001Z</time></trkpt><trkpt lat="45.78869333987667" lon="1.0855718327689716"><ele>248.0</ele><time>2026-04-06T15:36:38.001Z</time></trkpt><trkpt lat="45.78876793582748" lon="1.0855352916006935"><ele>246.33333333333331</ele><time>2026-04-06T15:36:39.001Z</time></trkpt><trkpt lat="45.78883220774036" lon="1.0855126555421455"><ele>244.66666666666666</ele><time>2026-04-06T15:36:40.001Z</time></trkpt><trkpt lat="45.78890225769838" lon="1.0855177426708178"><ele>243.0</ele><time>2026-04-06T15:36:41.001Z</time></trkpt><trkpt lat="45.7889630685214" lon="1.0855706126902236"><ele>243.0</ele><time>2026-04-06T15:36:42.001Z</time></trkpt><trkpt lat="45.78905889623987" lon="1.0856285545410889"><ele>243.0</ele><time>2026-04-06T15:36:43.999Z</time></trkpt><trkpt lat="45.78915689033058" lon="1.0856460092319944"><ele>243.0</ele><time>2026-04-06T15:36:45.999Z</time></trkpt><trkpt lat="45.78924537389757" lon="1.0855624334258003"><ele>243.0</ele><time>2026-04-06T15:36:47.999Z</time></trkpt><trkpt lat="45.789245088701875" lon="1.0854529437242797"><ele>243.0</ele><time>2026-04-06T15:36:48.999Z</time></trkpt><trkpt lat="45.789205605937624" lon="1.0853600458873554"><ele>243.0</ele><time>2026-04-06T15:36:49.999Z</time></trkpt><trkpt lat="45.789170040619915" lon="1.0852727166779879"><ele>243.0</ele><time>2026-04-06T15:36:50.999Z</time></trkpt><trkpt lat="45.78913429153375" lon="1.0851796122853838"><ele>243.0</ele><time>2026-04-06T15:36:51.999Z</time></trkpt><trkpt lat="45.78911919533198" lon="1.0850744261502812"><ele>243.0</ele><time>2026-04-06T15:36:52.999Z</time></trkpt><trkpt lat="45.789094473255005" lon="1.0849606996591814"><ele>243.0</ele><time>2026-04-06T15:36:53.999Z</time></trkpt><trkpt lat="45.789071665537904" lon="1.0848343278534447"><ele>243.0</ele><time>2026-04-06T15:36:54.999Z</time></trkpt><trkpt lat="45.78904671648324" lon="1.0846761743201172"><ele>243.0</ele><time>2026-04-06T15:36:55.999Z</time></trkpt><trkpt lat="45.789026840491736" lon="1.0845453139907901"><ele>243.0</ele><time>2026-04-06T15:36:57Z</time></trkpt><trkpt lat="45.78901037795729" lon="1.0844275772530603"><ele>243.0</ele><time>2026-04-06T15:36:58Z</time></trkpt><trkpt lat="45.789000414784624" lon="1.0843141842850141"><ele>243.0</ele><time>2026-04-06T15:36:59Z</time></trkpt><trkpt lat="45.78899884397246" lon="1.0841971074628942"><ele>243.0</ele><time>2026-04-06T15:37:00Z</time></trkpt><trkpt lat="45.78901198750985" lon="1.0840773705956763"><ele>243.0</ele><time>2026-04-06T15:37:01Z</time></trkpt><trkpt lat="45.78901912331336" lon="1.0839475759865849"><ele>243.5</ele><time>2026-04-06T15:37:02Z</time></trkpt><trkpt lat="45.78903576141429" lon="1.0838107433375823"><ele>244.0</ele><time>2026-04-06T15:37:03Z</time></trkpt><trkpt lat="45.78905413053331" lon="1.0836860887277326"><ele>244.5</ele><time>2026-04-06T15:37:04Z</time></trkpt><trkpt lat="45.78907585074728" lon="1.0835747640803968"><ele>245.0</ele><time>2026-04-06T15:37:05Z</time></trkpt><trkpt lat="45.78910177398635" lon="1.0834748307665814"><ele>245.5</ele><time>2026-04-06T15:37:06Z</time></trkpt><trkpt lat="45.78912921260175" lon="1.083373578572202"><ele>246.0</ele><time>2026-04-06T15:37:07Z</time></trkpt><trkpt lat="45.78916703150891" lon="1.0832340221610237"><ele>246.4</ele><time>2026-04-06T15:37:09Z</time></trkpt><trkpt lat="45.78921192441163" lon="1.083146095805673"><ele>246.8</ele><time>2026-04-06T15:37:12Z</time></trkpt><trkpt lat="45.78929709782352" lon="1.083219429995703"><ele>247.20000000000002</ele><time>2026-04-06T15:37:13Z</time></trkpt><trkpt lat="45.78938224611769" lon="1.0832527653353972"><ele>247.60000000000002</ele><time>2026-04-06T15:37:14Z</time></trkpt><trkpt lat="45.78947492016062" lon="1.0833252283578252"><ele>248.0</ele><time>2026-04-06T15:37:15Z</time></trkpt><trkpt lat="45.78957505156608" lon="1.0834007669885573"><ele>248.0</ele><time>2026-04-06T15:37:16Z</time></trkpt><trkpt lat="45.789663940479514" lon="1.083484851893913"><ele>248.0</ele><time>2026-04-06T15:37:17Z</time></trkpt><trkpt lat="45.78975624364072" lon="1.083569967505395"><ele>248.0</ele><time>2026-04-06T15:37:18Z</time></trkpt><trkpt lat="45.78983863215249" lon="1.0836495555954493"><ele>248.0</ele><time>2026-04-06T15:37:19Z</time></trkpt><trkpt lat="45.78993224739885" lon="1.083734409814332"><ele>248.0</ele><time>2026-04-06T15:37:20Z</time></trkpt><trkpt lat="45.7900102420454" lon="1.083799736405693"><ele>248.0</ele><time>2026-04-06T15:37:21Z</time></trkpt><trkpt lat="45.790065389017066" lon="1.0838674883911565"><ele>248.0</ele><time>2026-04-06T15:37:22Z</time></trkpt><trkpt lat="45.79021327793799" lon="1.0837545390107473"><ele>248.0</ele><time>2026-04-06T15:37:24Z</time></trkpt><trkpt lat="45.79028370349967" lon="1.0836643251610325"><ele>248.0</ele><time>2026-04-06T15:37:25Z</time></trkpt><trkpt lat="45.79036525432675" lon="1.0836023931656056"><ele>248.0</ele><time>2026-04-06T15:37:26Z</time></trkpt><trkpt lat="45.7904412745988" lon="1.0835419520105503"><ele>248.83333333333334</ele><time>2026-04-06T15:37:27Z</time></trkpt><trkpt lat="45.790514042988924" lon="1.0835144194044066"><ele>249.66666666666669</ele><time>2026-04-06T15:37:28Z</time></trkpt><trkpt lat="45.79059424121698" lon="1.083521592526671"><ele>250.5</ele><time>2026-04-06T15:37:29Z</time></trkpt><trkpt lat="45.79067285580537" lon="1.08349087795656"><ele>251.33333333333331</ele><time>2026-04-06T15:37:30Z</time></trkpt><trkpt lat="45.79073626540585" lon="1.0834954387170617"><ele>252.16666666666666</ele><time>2026-04-06T15:37:31Z</time></trkpt><trkpt lat="45.790794695892274" lon="1.083452116076114"><ele>253.0</ele><time>2026-04-06T15:37:32Z</time></trkpt><trkpt lat="45.79083148080207" lon="1.0833132763690123"><ele>253.66666666666666</ele><time>2026-04-06T15:37:33Z</time></trkpt><trkpt lat="45.7908897267906" lon="1.0832170901837685"><ele>254.33333333333331</ele><time>2026-04-06T15:37:34Z</time></trkpt><trkpt lat="45.79095282722461" lon="1.0831266145956393"><ele>255.0</ele><time>2026-04-06T15:37:35Z</time></trkpt><trkpt lat="45.791008785041406" lon="1.0830577070098573"><ele>255.66666666666669</ele><time>2026-04-06T15:37:36Z</time></trkpt><trkpt lat="45.79105098571584" lon="1.0829802438746012"><ele>256.33333333333337</ele><time>2026-04-06T15:37:37Z</time></trkpt><trkpt lat="45.79110405717189" lon="1.0829167764661094"><ele>257.0</ele><time>2026-04-06T15:37:38Z</time></trkpt><trkpt lat="45.79117053362424" lon="1.082832514999369"><ele>257.8</ele><time>2026-04-06T15:37:39Z</time></trkpt><trkpt lat="45.79124557700966" lon="1.0827395699181632"><ele>258.6</ele><time>2026-04-06T15:37:40Z</time></trkpt><trkpt lat="45.791319228621575" lon="1.0826406047679598"><ele>259.40000000000003</ele><time>2026-04-06T15:37:41Z</time></trkpt><trkpt lat="45.79140426818255" lon="1.0825413586184571"><ele>260.2</ele><time>2026-04-06T15:37:42Z</time></trkpt><trkpt lat="45.79148549976646" lon="1.0824318679214884"><ele>261.0</ele><time>2026-04-06T15:37:43Z</time></trkpt><trkpt lat="45.79157446551015" lon="1.082314799535758"><ele>262.0</ele><time>2026-04-06T15:37:44Z</time></trkpt><trkpt lat="45.791674920187404" lon="1.0821924228764368"><ele>263.0</ele><time>2026-04-06T15:37:45Z</time></trkpt><trkpt lat="45.79178450655001" lon="1.0820475842629813"><ele>264.0</ele><time>2026-04-06T15:37:46Z</time></trkpt><trkpt lat="45.79189837059998" lon="1.0819017084207978"><ele>265.0</ele><time>2026-04-06T15:37:47Z</time></trkpt><trkpt lat="45.79202559503297" lon="1.0817475874539575"><ele>266.3333333333333</ele><time>2026-04-06T15:37:48.001Z</time></trkpt><trkpt lat="45.79215055228719" lon="1.0815925514944775"><ele>267.6666666666667</ele><time>2026-04-06T15:37:49.001Z</time></trkpt><trkpt lat="45.79227450589946" lon="1.0814275813718088"><ele>269.0</ele><time>2026-04-06T15:37:50.001Z</time></trkpt><trkpt lat="45.792401118548355" lon="1.0812831392498377"><ele>269.0</ele><time>2026-04-06T15:37:51.001Z</time></trkpt><trkpt lat="45.792523392092114" lon="1.0811424601816713"><ele>269.0</ele><time>2026-04-06T15:37:52.001Z</time></trkpt><trkpt lat="45.79263841412946" lon="1.0809842691402272"><ele>269.0</ele><time>2026-04-06T15:37:53.001Z</time></trkpt><trkpt lat="45.7927572755867" lon="1.080814179144671"><ele>271.0</ele><time>2026-04-06T15:37:54.001Z</time></trkpt><trkpt lat="45.79288572216591" lon="1.080660399567943"><ele>273.0</ele><time>2026-04-06T15:37:55.001Z</time></trkpt><trkpt lat="45.793016738739354" lon="1.0805068227296721"><ele>275.0</ele><time>2026-04-06T15:37:56.001Z</time></trkpt><trkpt lat="45.79313081634601" lon="1.0803600069623014"><ele>275.0</ele><time>2026-04-06T15:37:57.001Z</time></trkpt><trkpt lat="45.793222985288516" lon="1.0802426756772676"><ele>275.0</ele><time>2026-04-06T15:37:58.001Z</time></trkpt><trkpt lat="45.79331288435706" lon="1.0801257190608244"><ele>275.0</ele><time>2026-04-06T15:37:59.001Z</time></trkpt><trkpt lat="45.79338450217802" lon="1.079999771788677"><ele>275.0</ele><time>2026-04-06T15:38:00.001Z</time></trkpt><trkpt lat="45.79345598916043" lon="1.0798201230399491"><ele>276.33333333333337</ele><time>2026-04-06T15:38:01.001Z</time></trkpt><trkpt lat="45.793525921292265" lon="1.0795909051565193"><ele>277.6666666666667</ele><time>2026-04-06T15:38:02.001Z</time></trkpt><trkpt lat="45.79362089350636" lon="1.0793509272679567"><ele>279.0</ele><time>2026-04-06T15:38:03.001Z</time></trkpt><trkpt lat="45.793719788354615" lon="1.0790681164701572"><ele>279.6666666666667</ele><time>2026-04-06T15:38:04.001Z</time></trkpt><trkpt lat="45.793807036713424" lon="1.078818611010028"><ele>280.33333333333337</ele><time>2026-04-06T15:38:05.001Z</time></trkpt><trkpt lat="45.79388066440056" lon="1.0786080571056558"><ele>281.0</ele><time>2026-04-06T15:38:06.001Z</time></trkpt><trkpt lat="45.793946173988324" lon="1.0784235249268221"><ele>281.25</ele><time>2026-04-06T15:38:07.001Z</time></trkpt><trkpt lat="45.794008894620966" lon="1.0782470189101385"><ele>281.5</ele><time>2026-04-06T15:38:08.001Z</time></trkpt><trkpt lat="45.79407082743423" lon="1.0780466596540514"><ele>281.75</ele><time>2026-04-06T15:38:09.001Z</time></trkpt><trkpt lat="45.79413680065408" lon="1.0778780803349175"><ele>282.0</ele><time>2026-04-06T15:38:10.001Z</time></trkpt><trkpt lat="45.79420004937152" lon="1.0776766155899313"><ele>282.0</ele><time>2026-04-06T15:38:11.001Z</time></trkpt><trkpt lat="45.79426707395152" lon="1.0774782218071168"><ele>282.0</ele><time>2026-04-06T15:38:12.001Z</time></trkpt><trkpt lat="45.79432745795349" lon="1.0773131845934483"><ele>282.0</ele><time>2026-04-06T15:38:13.001Z</time></trkpt><trkpt lat="45.794381919026755" lon="1.07715940379821"><ele>282.0</ele><time>2026-04-06T15:38:14.001Z</time></trkpt><trkpt lat="45.79443656893312" lon="1.0770084297630613"><ele>282.4</ele><time>2026-04-06T15:38:15.001Z</time></trkpt><trkpt lat="45.79448926178912" lon="1.0768654398899948"><ele>282.79999999999995</ele><time>2026-04-06T15:38:16.001Z</time></trkpt><trkpt lat="45.794541627779765" lon="1.076722995483833"><ele>283.2</ele><time>2026-04-06T15:38:17.001Z</time></trkpt><trkpt lat="45.794597088193555" lon="1.0765810961390725"><ele>283.59999999999997</ele><time>2026-04-06T15:38:18.001Z</time></trkpt><trkpt lat="45.79465037875172" lon="1.0764436709045082"><ele>284.0</ele><time>2026-04-06T15:38:19.001Z</time></trkpt><trkpt lat="45.79469950459943" lon="1.0763148357417727"><ele>283.0</ele><time>2026-04-06T15:38:20.001Z</time></trkpt><trkpt lat="45.794750794224136" lon="1.0761875118397501"><ele>282.0</ele><time>2026-04-06T15:38:21.001Z</time></trkpt><trkpt lat="45.7948141570706" lon="1.076057164924948"><ele>281.0</ele><time>2026-04-06T15:38:22.001Z</time></trkpt><trkpt lat="45.7948968646687" lon="1.0759276109839337"><ele>280.0</ele><time>2026-04-06T15:38:23.001Z</time></trkpt><trkpt lat="45.794990375238626" lon="1.0757790839027708"><ele>279.75</ele><time>2026-04-06T15:38:24.001Z</time></trkpt><trkpt lat="45.795070702605344" lon="1.0756360090513342"><ele>279.5</ele><time>2026-04-06T15:38:25.001Z</time></trkpt><trkpt lat="45.79514415577661" lon="1.0755062480014526"><ele>279.25</ele><time>2026-04-06T15:38:26.001Z</time></trkpt><trkpt lat="45.79521775476621" lon="1.0753819027965883"><ele>279.0</ele><time>2026-04-06T15:38:27.001Z</time></trkpt><trkpt lat="45.79528833577636" lon="1.075264582208122"><ele>279.0</ele><time>2026-04-06T15:38:28.001Z</time></trkpt><trkpt lat="45.795353806481494" lon="1.0751518210692559"><ele>279.0</ele><time>2026-04-06T15:38:29.001Z</time></trkpt><trkpt lat="45.79541473607222" lon="1.0750437044642989"><ele>279.0</ele><time>2026-04-06T15:38:30.001Z</time></trkpt><trkpt lat="45.795468849513014" lon="1.074941992458986"><ele>279.0</ele><time>2026-04-06T15:38:31.001Z</time></trkpt><trkpt lat="45.795527822606644" lon="1.074870460645126"><ele>279.0</ele><time>2026-04-06T15:38:32.001Z</time></trkpt><trkpt lat="45.79558097374099" lon="1.0747818044698885"><ele>279.0</ele><time>2026-04-06T15:38:33.001Z</time></trkpt><trkpt lat="45.79555105804691" lon="1.0745685895500827"><ele>279.75</ele><time>2026-04-06T15:38:34.001Z</time></trkpt><trkpt lat="45.795568826875765" lon="1.0744009480629337"><ele>280.5</ele><time>2026-04-06T15:38:35.001Z</time></trkpt><trkpt lat="45.795590253638586" lon="1.07423606380949"><ele>281.25</ele><time>2026-04-06T15:38:36.001Z</time></trkpt><trkpt lat="45.7956164829924" lon="1.0740650620742231"><ele>282.0</ele><time>2026-04-06T15:38:37.001Z</time></trkpt><trkpt lat="45.795635577490266" lon="1.0738765802879637"><ele>283.0</ele><time>2026-04-06T15:38:38.001Z</time></trkpt><trkpt lat="45.79563718607839" lon="1.073680444996217"><ele>284.0</ele><time>2026-04-06T15:38:39.001Z</time></trkpt><trkpt lat="45.79562471374748" lon="1.073495371547942"><ele>285.0</ele><time>2026-04-06T15:38:40.001Z</time></trkpt><trkpt lat="45.795630756803476" lon="1.0733197121350662"><ele>286.0</ele><time>2026-04-06T15:38:41.001Z</time></trkpt><trkpt lat="45.795610350092" lon="1.0731374943233507"><ele>286.25</ele><time>2026-04-06T15:38:42.001Z</time></trkpt><trkpt lat="45.79558214455856" lon="1.0729621097144781"><ele>286.5</ele><time>2026-04-06T15:38:43.001Z</time></trkpt><trkpt lat="45.795549818096255" lon="1.0727986694647043"><ele>286.75</ele><time>2026-04-06T15:38:44.001Z</time></trkpt><trkpt lat="45.79549974948686" lon="1.0726385316363913"><ele>287.0</ele><time>2026-04-06T15:38:45.001Z</time></trkpt><trkpt lat="45.79544342286386" lon="1.0724610776321364"><ele>288.6666666666667</ele><time>2026-04-06T15:38:46.001Z</time></trkpt><trkpt lat="45.79535540873995" lon="1.0722931220014753"><ele>290.3333333333333</ele><time>2026-04-06T15:38:47.001Z</time></trkpt><trkpt lat="45.79525579653191" lon="1.0721252604688214"><ele>292.0</ele><time>2026-04-06T15:38:48.001Z</time></trkpt><trkpt lat="45.79516985277881" lon="1.0719412215617934"><ele>289.25</ele><time>2026-04-06T15:38:49Z</time></trkpt><trkpt lat="45.79507659739196" lon="1.0717851543433654"><ele>286.5</ele><time>2026-04-06T15:38:50Z</time></trkpt><trkpt lat="45.794996553683745" lon="1.0716407902898708"><ele>283.75</ele><time>2026-04-06T15:38:51Z</time></trkpt><trkpt lat="45.794932750061" lon="1.0714979923643781"><ele>281.0</ele><time>2026-04-06T15:38:52Z</time></trkpt><trkpt lat="45.794873294604955" lon="1.0713410735051994"><ele>281.0</ele><time>2026-04-06T15:38:53Z</time></trkpt><trkpt lat="45.79481795128392" lon="1.071168764464137"><ele>281.0</ele><time>2026-04-06T15:38:54Z</time></trkpt><trkpt lat="45.79477687751213" lon="1.07100882675599"><ele>281.0</ele><time>2026-04-06T15:38:55Z</time></trkpt><trkpt lat="45.79474768287549" lon="1.0708479254237389"><ele>281.0</ele><time>2026-04-06T15:38:56Z</time></trkpt><trkpt lat="45.79473352694596" lon="1.070682326668674"><ele>280.25</ele><time>2026-04-06T15:38:57Z</time></trkpt><trkpt lat="45.794721949784346" lon="1.0704971333209288"><ele>279.5</ele><time>2026-04-06T15:38:58Z</time></trkpt><trkpt lat="45.794700710377946" lon="1.0702854669929427"><ele>278.75</ele><time>2026-04-06T15:38:59Z</time></trkpt><trkpt lat="45.79470951581427" lon="1.0700645472781662"><ele>278.0</ele><time>2026-04-06T15:39:00Z</time></trkpt><trkpt lat="45.7947144567731" lon="1.0698424243926021"><ele>278.0</ele><time>2026-04-06T15:39:01Z</time></trkpt><trkpt lat="45.794715804693794" lon="1.069625441186547"><ele>278.0</ele><time>2026-04-06T15:39:02Z</time></trkpt><trkpt lat="45.7947208358146" lon="1.0694169644473686"><ele>278.0</ele><time>2026-04-06T15:39:03Z</time></trkpt><trkpt lat="45.79471994134593" lon="1.0692089239900704"><ele>278.0</ele><time>2026-04-06T15:39:04Z</time></trkpt><trkpt lat="45.79472055518592" lon="1.0690130854491853"><ele>278.0</ele><time>2026-04-06T15:39:05Z</time></trkpt><trkpt lat="45.794724251102686" lon="1.0688332523796618"><ele>278.0</ele><time>2026-04-06T15:39:06Z</time></trkpt><trkpt lat="45.79472585336624" lon="1.0686578819133696"><ele>278.0</ele><time>2026-04-06T15:39:07Z</time></trkpt><trkpt lat="45.794728081177276" lon="1.0684932196441457"><ele>278.0</ele><time>2026-04-06T15:39:08Z</time></trkpt><trkpt lat="45.794731016098794" lon="1.0683455753099382"><ele>277.2</ele><time>2026-04-06T15:39:09Z</time></trkpt><trkpt lat="45.79473165007413" lon="1.0682149833189942"><ele>276.4</ele><time>2026-04-06T15:39:10Z</time></trkpt><trkpt lat="45.7947339788578" lon="1.0680826585170213"><ele>275.59999999999997</ele><time>2026-04-06T15:39:11Z</time></trkpt><trkpt lat="45.79473465402258" lon="1.0679686396399126"><ele>274.8</ele><time>2026-04-06T15:39:12Z</time></trkpt><trkpt lat="45.79483165440353" lon="1.0678928640356118"><ele>274.0</ele><time>2026-04-06T15:39:13Z</time></trkpt><trkpt lat="45.79490865008927" lon="1.0677739055157165"><ele>274.0</ele><time>2026-04-06T15:39:14Z</time></trkpt><trkpt lat="45.795003358694274" lon="1.0676681822831897"><ele>274.0</ele><time>2026-04-06T15:39:15Z</time></trkpt><trkpt lat="45.795080058765585" lon="1.0675602990579427"><ele>274.0</ele><time>2026-04-06T15:39:16Z</time></trkpt><trkpt lat="45.79515010796108" lon="1.06747083184495"><ele>274.0</ele><time>2026-04-06T15:39:17Z</time></trkpt><trkpt lat="45.79519165391364" lon="1.0673896531577123"><ele>274.0</ele><time>2026-04-06T15:39:18Z</time></trkpt><trkpt lat="45.795245800098144" lon="1.0672766440201267"><ele>275.3333333333333</ele><time>2026-04-06T15:39:20Z</time></trkpt><trkpt lat="45.79530424490762" lon="1.0672421128600587"><ele>276.66666666666663</ele><time>2026-04-06T15:39:23Z</time></trkpt><trkpt lat="45.79538099365319" lon="1.0673156854672168"><ele>278.0</ele><time>2026-04-06T15:39:24Z</time></trkpt><trkpt lat="45.79543490309771" lon="1.067415993165135"><ele>279.3333333333333</ele><time>2026-04-06T15:39:26Z</time></trkpt><trkpt lat="45.79549011642845" lon="1.067485127957633"><ele>280.6666666666667</ele><time>2026-04-06T15:39:28Z</time></trkpt><trkpt lat="45.79554411520445" lon="1.0675500001230818"><ele>282.0</ele><time>2026-04-06T15:39:30Z</time></trkpt><trkpt lat="45.795646643793965" lon="1.0676305833264585"><ele>282.5</ele><time>2026-04-06T15:39:32Z</time></trkpt><trkpt lat="45.79576569957235" lon="1.0677117451486393"><ele>283.0</ele><time>2026-04-06T15:39:34Z</time></trkpt><trkpt lat="45.795839397720435" lon="1.0677484908223676"><ele>283.5</ele><time>2026-04-06T15:39:35Z</time></trkpt><trkpt lat="45.79591179058777" lon="1.0677615389164512"><ele>284.0</ele><time>2026-04-06T15:39:36Z</time></trkpt><trkpt lat="45.795978599422746" lon="1.0677786478987563"><ele>284.5</ele><time>2026-04-06T15:39:38Z</time></trkpt><trkpt lat="45.7960737234298" lon="1.067810092197646"><ele>285.0</ele><time>2026-04-06T15:39:40Z</time></trkpt><trkpt lat="45.79614352733026" lon="1.0678334703940424"><ele>286.1666666666667</ele><time>2026-04-06T15:39:42Z</time></trkpt><trkpt lat="45.79624141882098" lon="1.0678632605418377"><ele>287.3333333333333</ele><time>2026-04-06T15:39:45.001Z</time></trkpt><trkpt lat="45.79630751649485" lon="1.0678886725418921"><ele>288.5</ele><time>2026-04-06T15:39:47.001Z</time></trkpt><trkpt lat="45.79641298779509" lon="1.0678917310363936"><ele>289.66666666666663</ele><time>2026-04-06T15:39:49.001Z</time></trkpt><trkpt lat="45.79647599261543" lon="1.0679226214540696"><ele>290.8333333333333</ele><time>2026-04-06T15:39:50.001Z</time></trkpt><trkpt lat="45.796571836821094" lon="1.067961143732161"><ele>292.0</ele><time>2026-04-06T15:39:51.001Z</time></trkpt><trkpt lat="45.796642870763385" lon="1.067983768971413"><ele>292.0</ele><time>2026-04-06T15:39:52.001Z</time></trkpt><trkpt lat="45.796713311781325" lon="1.068001911579779"><ele>292.0</ele><time>2026-04-06T15:39:53.001Z</time></trkpt><trkpt lat="45.79681168937261" lon="1.068035660216466"><ele>292.0</ele><time>2026-04-06T15:39:54.001Z</time></trkpt><trkpt lat="45.79691010415733" lon="1.068061301043592"><ele>292.0</ele><time>2026-04-06T15:39:55.001Z</time></trkpt><trkpt lat="45.79703232604432" lon="1.0680954165659329"><ele>292.0</ele><time>2026-04-06T15:39:56.001Z</time></trkpt><trkpt lat="45.797153504729" lon="1.068122277383192"><ele>293.8</ele><time>2026-04-06T15:39:57.001Z</time></trkpt><trkpt lat="45.797264865660644" lon="1.0681460521659392"><ele>295.6</ele><time>2026-04-06T15:39:58.001Z</time></trkpt><trkpt lat="45.797367259407366" lon="1.068176299576534"><ele>297.40000000000003</ele><time>2026-04-06T15:39:59.001Z</time></trkpt><trkpt lat="45.79745900453633" lon="1.0682095354245966"><ele>299.2</ele><time>2026-04-06T15:40:00.001Z</time></trkpt><trkpt lat="45.79754344632551" lon="1.0682272210694301"><ele>301.0</ele><time>2026-04-06T15:40:01.001Z</time></trkpt><trkpt lat="45.797615711739894" lon="1.0682291339677674"><ele>302.16666666666663</ele><time>2026-04-06T15:40:02.001Z</time></trkpt><trkpt lat="45.797686466420586" lon="1.0682240062963728"><ele>303.3333333333333</ele><time>2026-04-06T15:40:03.001Z</time></trkpt><trkpt lat="45.797779900964855" lon="1.0682050133851646"><ele>304.5</ele><time>2026-04-06T15:40:04.001Z</time></trkpt><trkpt lat="45.79786943996816" lon="1.0681927789791996"><ele>305.6666666666667</ele><time>2026-04-06T15:40:05.001Z</time></trkpt><trkpt lat="45.7979465773172" lon="1.0681831512969893"><ele>306.83333333333337</ele><time>2026-04-06T15:40:06.001Z</time></trkpt><trkpt lat="45.79802472121132" lon="1.0681777936301347"><ele>308.0</ele><time>2026-04-06T15:40:07.001Z</time></trkpt><trkpt lat="45.79810517036379" lon="1.0681710812152978"><ele>308.0</ele><time>2026-04-06T15:40:08.001Z</time></trkpt><trkpt lat="45.79818763695304" lon="1.0681609944549797"><ele>308.0</ele><time>2026-04-06T15:40:09.001Z</time></trkpt><trkpt lat="45.79825495437624" lon="1.0681472457274583"><ele>308.0</ele><time>2026-04-06T15:40:10.001Z</time></trkpt><trkpt lat="45.7983268191011" lon="1.068138563301839"><ele>308.0</ele><time>2026-04-06T15:40:11.001Z</time></trkpt><trkpt lat="45.7983952606042" lon="1.0681327356690182"><ele>308.0</ele><time>2026-04-06T15:40:12.001Z</time></trkpt><trkpt lat="45.798467364902" lon="1.0681239428951719"><ele>308.0</ele><time>2026-04-06T15:40:13.001Z</time></trkpt><trkpt lat="45.7985399854084" lon="1.068112092376644"><ele>308.0</ele><time>2026-04-06T15:40:14.001Z</time></trkpt><trkpt lat="45.798620887284336" lon="1.0681018105823499"><ele>309.6666666666667</ele><time>2026-04-06T15:40:15.001Z</time></trkpt><trkpt lat="45.79871142481424" lon="1.068102211942488"><ele>311.33333333333337</ele><time>2026-04-06T15:40:16.001Z</time></trkpt><trkpt lat="45.79880488730225" lon="1.0680918470836627"><ele>313.0</ele><time>2026-04-06T15:40:17.001Z</time></trkpt><trkpt lat="45.798889568221476" lon="1.068103358618086"><ele>314.6666666666667</ele><time>2026-04-06T15:40:18.001Z</time></trkpt><trkpt lat="45.79895519783134" lon="1.068096760364898"><ele>316.3333333333333</ele><time>2026-04-06T15:40:19.001Z</time></trkpt><trkpt lat="45.79905314949624" lon="1.0680937256710965"><ele>318.0</ele><time>2026-04-06T15:40:21.001Z</time></trkpt><trkpt lat="45.799118792357355" lon="1.068091507779092"><ele>318.0</ele><time>2026-04-06T15:40:24.001Z</time></trkpt><trkpt lat="45.79913974543239" lon="1.0679035815004896"><ele>318.0</ele><time>2026-04-06T15:40:33.001Z</time></trkpt><trkpt lat="45.79912588379777" lon="1.0677868055312474"><ele>318.0</ele><time>2026-04-06T15:40:34.001Z</time></trkpt><trkpt lat="45.79912095918927" lon="1.067682783169918"><ele>318.0</ele><time>2026-04-06T15:40:35.001Z</time></trkpt><trkpt lat="45.79912001474139" lon="1.0675692415466205"><ele>318.0</ele><time>2026-04-06T15:40:36.001Z</time></trkpt><trkpt lat="45.799117874544706" lon="1.0674474132523302"><ele>317.1666666666667</ele><time>2026-04-06T15:40:37.001Z</time></trkpt><trkpt lat="45.79912073774453" lon="1.067326080067333"><ele>316.3333333333333</ele><time>2026-04-06T15:40:38.001Z</time></trkpt><trkpt lat="45.79912596135022" lon="1.0672036399296259"><ele>315.5</ele><time>2026-04-06T15:40:39.001Z</time></trkpt><trkpt lat="45.79913300518027" lon="1.0670793601170898"><ele>314.66666666666663</ele><time>2026-04-06T15:40:40.001Z</time></trkpt><trkpt lat="45.79915829761708" lon="1.066956395072573"><ele>313.8333333333333</ele><time>2026-04-06T15:40:41.001Z</time></trkpt><trkpt lat="45.79915824989985" lon="1.066818667851252"><ele>313.0</ele><time>2026-04-06T15:40:42.001Z</time></trkpt><trkpt lat="45.79917337718482" lon="1.0666860939182583"><ele>312.4</ele><time>2026-04-06T15:40:43.001Z</time></trkpt><trkpt lat="45.79918707921861" lon="1.0665512948104139"><ele>311.8</ele><time>2026-04-06T15:40:44.001Z</time></trkpt><trkpt lat="45.7991976251068" lon="1.066413659819038"><ele>311.2</ele><time>2026-04-06T15:40:45.001Z</time></trkpt><trkpt lat="45.799208067134664" lon="1.0662845945715347"><ele>310.6</ele><time>2026-04-06T15:40:46.001Z</time></trkpt><trkpt lat="45.79921978077205" lon="1.0661537095028537"><ele>310.0</ele><time>2026-04-06T15:40:47.001Z</time></trkpt><trkpt lat="45.799231013984524" lon="1.0660270901366784"><ele>310.0</ele><time>2026-04-06T15:40:48.002Z</time></trkpt><trkpt lat="45.799240405793846" lon="1.065900518109386"><ele>310.0</ele><time>2026-04-06T15:40:49.002Z</time></trkpt><trkpt lat="45.79924846828246" lon="1.0657685374727772"><ele>310.0</ele><time>2026-04-06T15:40:50.002Z</time></trkpt><trkpt lat="45.799257946412986" lon="1.0656440212002265"><ele>310.0</ele><time>2026-04-06T15:40:51.002Z</time></trkpt><trkpt lat="45.79926710833715" lon="1.0655248996047242"><ele>310.0</ele><time>2026-04-06T15:40:52.002Z</time></trkpt><trkpt lat="45.79927474582799" lon="1.0654174571429784"><ele>310.0</ele><time>2026-04-06T15:40:53.002Z</time></trkpt><trkpt lat="45.799297380063734" lon="1.0652706625626853"><ele>310.66666666666663</ele><time>2026-04-06T15:40:55Z</time></trkpt><trkpt lat="45.79934290601027" lon="1.0651740401867964"><ele>311.3333333333333</ele><time>2026-04-06T15:40:58Z</time></trkpt><trkpt lat="45.79938331053874" lon="1.0650881962539993"><ele>312.0</ele><time>2026-04-06T15:41:47.001Z</time></trkpt><trkpt lat="45.79941694225376" lon="1.0649836468768845"><ele>312.6666666666667</ele><time>2026-04-06T15:41:49.001Z</time></trkpt><trkpt lat="45.79946506164416" lon="1.0649088531054098"><ele>313.33333333333337</ele><time>2026-04-06T15:41:50.001Z</time></trkpt><trkpt lat="45.79951796796186" lon="1.0648300262065007"><ele>314.0</ele><time>2026-04-06T15:41:51.001Z</time></trkpt><trkpt lat="45.799565964413944" lon="1.0647536013166539"><ele>314.0</ele><time>2026-04-06T15:41:52.001Z</time></trkpt><trkpt lat="45.799609467683226" lon="1.064684335256444"><ele>314.0</ele><time>2026-04-06T15:41:53.001Z</time></trkpt><trkpt lat="45.79968295429801" lon="1.0645758522297533"><ele>314.0</ele><time>2026-04-06T15:41:55.001Z</time></trkpt><trkpt lat="45.799716937277" lon="1.0644911508687436"><ele>314.0</ele><time>2026-04-06T15:41:57.001Z</time></trkpt><trkpt lat="45.79973212407016" lon="1.0643837138855012"><ele>314.0</ele><time>2026-04-06T15:41:59.001Z</time></trkpt><trkpt lat="45.79971679421649" lon="1.0642469232381264"><ele>314.0</ele><time>2026-04-06T15:42:01.001Z</time></trkpt><trkpt lat="45.79971992408761" lon="1.064142616123935"><ele>314.5</ele><time>2026-04-06T15:42:03.001Z</time></trkpt><trkpt lat="45.799739653045144" lon="1.0640352067937167"><ele>315.0</ele><time>2026-04-06T15:42:05.001Z</time></trkpt><trkpt lat="45.799764445093984" lon="1.063918495556811"><ele>315.5</ele><time>2026-04-06T15:42:07.001Z</time></trkpt><trkpt lat="45.799782402565356" lon="1.0638099311789881"><ele>316.0</ele><time>2026-04-06T15:42:08.001Z</time></trkpt><trkpt lat="45.79982000530094" lon="1.063673330846431"><ele>316.5</ele><time>2026-04-06T15:42:09.001Z</time></trkpt><trkpt lat="45.79985338915447" lon="1.0635657404823362"><ele>317.0</ele><time>2026-04-06T15:42:10.001Z</time></trkpt><trkpt lat="45.79988331470702" lon="1.0634137351385615"><ele>317.6</ele><time>2026-04-06T15:42:12.001Z</time></trkpt><trkpt lat="45.79992436138172" lon="1.0632711088783724"><ele>318.2</ele><time>2026-04-06T15:42:14.001Z</time></trkpt><trkpt lat="45.799977009116304" lon="1.0631348979780229"><ele>318.8</ele><time>2026-04-06T15:42:16.001Z</time></trkpt><trkpt lat="45.79999270359674" lon="1.0630420384666759"><ele>319.4</ele><time>2026-04-06T15:42:17.001Z</time></trkpt><trkpt lat="45.800022493303196" lon="1.0629428833897225"><ele>320.0</ele><time>2026-04-06T15:42:18.001Z</time></trkpt><trkpt lat="45.800050896218096" lon="1.0627838138020105"><ele>320.0</ele><time>2026-04-06T15:42:20.001Z</time></trkpt><trkpt lat="45.80008986352427" lon="1.0626552841727634"><ele>320.0</ele><time>2026-04-06T15:42:22.001Z</time></trkpt><trkpt lat="45.800131888396876" lon="1.06251107044837"><ele>320.0</ele><time>2026-04-06T15:42:24.001Z</time></trkpt><trkpt lat="45.80017959347195" lon="1.0623931995107074"><ele>320.0</ele><time>2026-04-06T15:42:26.001Z</time></trkpt><trkpt lat="45.8001926320683" lon="1.0622882552588362"><ele>320.0</ele><time>2026-04-06T15:42:27.001Z</time></trkpt><trkpt lat="45.80021110193021" lon="1.0621799302462556"><ele>320.1666666666667</ele><time>2026-04-06T15:42:28.001Z</time></trkpt><trkpt lat="45.80022748394535" lon="1.0620844290128264"><ele>320.33333333333337</ele><time>2026-04-06T15:42:29.001Z</time></trkpt><trkpt lat="45.80026101580393" lon="1.0619980609808883"><ele>320.5</ele><time>2026-04-06T15:42:30.001Z</time></trkpt><trkpt lat="45.800287774470874" lon="1.0619070099634071"><ele>320.6666666666667</ele><time>2026-04-06T15:42:31.001Z</time></trkpt><trkpt lat="45.80032262906209" lon="1.0617393457820758"><ele>320.8333333333333</ele><time>2026-04-06T15:42:33.001Z</time></trkpt><trkpt lat="45.80035943574976" lon="1.0616200302460863"><ele>321.0</ele><time>2026-04-06T15:42:35.001Z</time></trkpt><trkpt lat="45.80041269419384" lon="1.0614945602751142"><ele>322.3333333333333</ele><time>2026-04-06T15:42:37.001Z</time></trkpt><trkpt lat="45.80045522583894" lon="1.0613988358550246"><ele>323.6666666666667</ele><time>2026-04-06T15:42:39.001Z</time></trkpt><trkpt lat="45.80053202717314" lon="1.0612869003679646"><ele>325.0</ele><time>2026-04-06T15:42:41.001Z</time></trkpt><trkpt lat="45.80057505269868" lon="1.0611919653798716"><ele>326.33333333333337</ele><time>2026-04-06T15:42:43.001Z</time></trkpt><trkpt lat="45.80061457011739" lon="1.061118041302068"><ele>327.6666666666667</ele><time>2026-04-06T15:42:45.001Z</time></trkpt><trkpt lat="45.800674426571135" lon="1.0610231368817356"><ele>329.0</ele><time>2026-04-06T15:42:47.002Z</time></trkpt><trkpt lat="45.80072128463843" lon="1.0609466251935546"><ele>329.0</ele><time>2026-04-06T15:42:49.002Z</time></trkpt><trkpt lat="45.80076172021168" lon="1.0608269696002401"><ele>329.0</ele><time>2026-04-06T15:42:51.002Z</time></trkpt><trkpt lat="45.800823091709006" lon="1.060679895836351"><ele>329.0</ele><time>2026-04-06T15:42:53.002Z</time></trkpt><trkpt lat="45.80086063296484" lon="1.0606009618257382"><ele>329.0</ele><time>2026-04-06T15:42:54.002Z</time></trkpt><trkpt lat="45.80091023320225" lon="1.0604672666696844"><ele>329.0</ele><time>2026-04-06T15:42:56.002Z</time></trkpt><trkpt lat="45.800961655471816" lon="1.060340607564087"><ele>330.1666666666667</ele><time>2026-04-06T15:42:58.002Z</time></trkpt><trkpt lat="45.80099010820182" lon="1.0602094800253528"><ele>331.33333333333337</ele><time>2026-04-06T15:43:00.002Z</time></trkpt><trkpt lat="45.80100135846161" lon="1.0600770710539933"><ele>332.5</ele><time>2026-04-06T15:43:02Z</time></trkpt><trkpt lat="45.80100070130168" lon="1.0599766826805428"><ele>333.6666666666667</ele><time>2026-04-06T15:43:04Z</time></trkpt><trkpt lat="45.801009860180656" lon="1.0598389085696114"><ele>334.8333333333333</ele><time>2026-04-06T15:43:06Z</time></trkpt><trkpt lat="45.801005969416416" lon="1.0597231170261767"><ele>336.0</ele><time>2026-04-06T15:43:08Z</time></trkpt><trkpt lat="45.80100474086309" lon="1.0596065001389925"><ele>337.8</ele><time>2026-04-06T15:43:10Z</time></trkpt><trkpt lat="45.80101645243271" lon="1.0594818018814476"><ele>339.6</ele><time>2026-04-06T15:43:12Z</time></trkpt><trkpt lat="45.80099725895125" lon="1.0593785650916794"><ele>341.4</ele><time>2026-04-06T15:43:14Z</time></trkpt><trkpt lat="45.8010176474014" lon="1.0592253609351445"><ele>343.2</ele><time>2026-04-06T15:43:16Z</time></trkpt><trkpt lat="45.80100957382247" lon="1.0590925411440704"><ele>345.0</ele><time>2026-04-06T15:43:18Z</time></trkpt><trkpt lat="45.80097645274" lon="1.058977089811775"><ele>346.1666666666667</ele><time>2026-04-06T15:43:20Z</time></trkpt><trkpt lat="45.8009620099072" lon="1.0588878474788275"><ele>347.3333333333333</ele><time>2026-04-06T15:43:22Z</time></trkpt><trkpt lat="45.80093962766137" lon="1.0587746071667392"><ele>348.5</ele><time>2026-04-06T15:43:24Z</time></trkpt><trkpt lat="45.80093651444632" lon="1.0586447277010638"><ele>349.66666666666663</ele><time>2026-04-06T15:43:26Z</time></trkpt><trkpt lat="45.800920702113956" lon="1.0584720817072109"><ele>350.8333333333333</ele><time>2026-04-06T15:43:28Z</time></trkpt><trkpt lat="45.80091455983595" lon="1.058376603453888"><ele>352.0</ele><time>2026-04-06T15:43:29Z</time></trkpt><trkpt lat="45.80090544790631" lon="1.058227030531888"><ele>353.5</ele><time>2026-04-06T15:43:31Z</time></trkpt><trkpt lat="45.80086704379105" lon="1.0580887530287306"><ele>355.0</ele><time>2026-04-06T15:43:33Z</time></trkpt><trkpt lat="45.80084046988397" lon="1.0580000287325895"><ele>356.5</ele><time>2026-04-06T15:44:01.001Z</time></trkpt><trkpt lat="45.800826438463794" lon="1.0578712872574616"><ele>358.0</ele><time>2026-04-06T15:44:04.001Z</time></trkpt><trkpt lat="45.800827207310505" lon="1.0577699746057405"><ele>359.5</ele><time>2026-04-06T15:44:06.001Z</time></trkpt><trkpt lat="45.80084271925571" lon="1.0576723810622448"><ele>361.0</ele><time>2026-04-06T15:44:08.001Z</time></trkpt><trkpt lat="45.80085976561782" lon="1.057561823311047"><ele>362.2857142857143</ele><time>2026-04-06T15:44:11.001Z</time></trkpt><trkpt lat="45.80086905761301" lon="1.0574393564850608"><ele>363.57142857142856</ele><time>2026-04-06T15:44:14.001Z</time></trkpt><trkpt lat="45.800875135681295" lon="1.0573419940858535"><ele>364.85714285714283</ele><time>2026-04-06T15:44:16.001Z</time></trkpt><trkpt lat="45.8008718695448" lon="1.057245818345508"><ele>366.1428571428571</ele><time>2026-04-06T15:45:26.001Z</time></trkpt><trkpt lat="45.80087998685552" lon="1.0571502094829177"><ele>367.42857142857144</ele><time>2026-04-06T15:45:52.001Z</time></trkpt><trkpt lat="45.80087538491169" lon="1.0570594848601664"><ele>368.71428571428567</ele><time>2026-04-06T15:46:38.001Z</time></trkpt><trkpt lat="45.800873560951864" lon="1.0569673054202122"><ele>370.0</ele><time>2026-04-06T15:46:56.002Z</time></trkpt><trkpt lat="45.80085298676541" lon="1.0568768884501372"><ele>369.99999999999994</ele><time>2026-04-06T15:47:05.002Z</time></trkpt><trkpt lat="45.80085075558673" lon="1.0567795095136656"><ele>370.0</ele><time>2026-04-06T15:48:24.001Z</time></trkpt><trkpt lat="45.8008301949442" lon="1.0566849089141346"><ele>370.0</ele><time>2026-04-06T15:48:27.001Z</time></trkpt><trkpt lat="45.80079824064767" lon="1.0566067158479702"><ele>370.0</ele><time>2026-04-06T15:48:29.001Z</time></trkpt><trkpt lat="45.800744153515815" lon="1.0565504716750862"><ele>370.0</ele><time>2026-04-06T15:48:31.001Z</time></trkpt><trkpt lat="45.80068982444846" lon="1.0564886825693787"><ele>369.99999999999994</ele><time>2026-04-06T15:48:33.001Z</time></trkpt><trkpt lat="45.80063188832167" lon="1.0563702846330263"><ele>370.0</ele><time>2026-04-06T15:48:35.001Z</time></trkpt><trkpt lat="45.800562910308706" lon="1.0562984383221035"><ele>371.3333333333333</ele><time>2026-04-06T15:48:37.001Z</time></trkpt><trkpt lat="45.80049987870241" lon="1.0562226212254155"><ele>372.66666666666663</ele><time>2026-04-06T15:48:39.001Z</time></trkpt><trkpt lat="45.80044138730785" lon="1.0561318940264677"><ele>374.0</ele><time>2026-04-06T15:48:41.001Z</time></trkpt><trkpt lat="45.80037663148506" lon="1.0560886895048596"><ele>375.3333333333333</ele><time>2026-04-06T15:48:44.001Z</time></trkpt><trkpt lat="45.80035017426524" lon="1.0560030513551653"><ele>376.6666666666667</ele><time>2026-04-06T15:49:02.001Z</time></trkpt><trkpt lat="45.8003089867493" lon="1.0559200749505553"><ele>378.0</ele><time>2026-04-06T15:49:04.001Z</time></trkpt><trkpt lat="45.80026851663053" lon="1.0558008610628258"><ele>378.79999999999995</ele><time>2026-04-06T15:49:06.001Z</time></trkpt><trkpt lat="45.80023248283229" lon="1.055653817623933"><ele>379.6</ele><time>2026-04-06T15:49:08.001Z</time></trkpt><trkpt lat="45.80020359169211" lon="1.0554952718143145"><ele>380.4</ele><time>2026-04-06T15:49:10.002Z</time></trkpt><trkpt lat="45.80015810083146" lon="1.0553278475252055"><ele>381.20000000000005</ele><time>2026-04-06T15:49:12.002Z</time></trkpt><trkpt lat="45.800119076585894" lon="1.055251956216256"><ele>382.0</ele><time>2026-04-06T15:49:13.002Z</time></trkpt><trkpt lat="45.80010918556252" lon="1.0551578325179656"><ele>382.0</ele><time>2026-04-06T15:49:14.002Z</time></trkpt><trkpt lat="45.800084388359096" lon="1.0550725816590638"><ele>382.0</ele><time>2026-04-06T15:49:15.002Z</time></trkpt><trkpt lat="45.800046765018706" lon="1.0549937027890965"><ele>382.0</ele><time>2026-04-06T15:49:16.002Z</time></trkpt><trkpt lat="45.80001796329251" lon="1.0549084104082134"><ele>382.0</ele><time>2026-04-06T15:49:17.002Z</time></trkpt><trkpt lat="45.79998907946816" lon="1.0548096578035457"><ele>382.0</ele><time>2026-04-06T15:49:18.002Z</time></trkpt><trkpt lat="45.79995764355882" lon="1.0547177996838382"><ele>382.0</ele><time>2026-04-06T15:49:19Z</time></trkpt><trkpt lat="45.799893810438874" lon="1.0545839573347584"><ele>382.40000000000003</ele><time>2026-04-06T15:49:21Z</time></trkpt><trkpt lat="45.799836879759795" lon="1.054503039290057"><ele>382.8</ele><time>2026-04-06T15:49:23Z</time></trkpt><trkpt lat="45.79977904024331" lon="1.0544410311714736"><ele>383.2</ele><time>2026-04-06T15:49:25Z</time></trkpt><trkpt lat="45.799874973690784" lon="1.0542342250422025"><ele>383.6</ele><time>2026-04-06T15:49:26Z</time></trkpt><trkpt lat="45.79988557663012" lon="1.0541067300973983"><ele>384.0</ele><time>2026-04-06T15:49:27Z</time></trkpt><trkpt lat="45.799905935437316" lon="1.0539825533018294"><ele>384.4</ele><time>2026-04-06T15:49:28Z</time></trkpt><trkpt lat="45.79993360875766" lon="1.0538434494545075"><ele>384.79999999999995</ele><time>2026-04-06T15:49:29Z</time></trkpt><trkpt lat="45.79996289985748" lon="1.0536925316830494"><ele>385.20000000000005</ele><time>2026-04-06T15:49:30Z</time></trkpt><trkpt lat="45.800005553957575" lon="1.053549606131497"><ele>385.6</ele><time>2026-04-06T15:49:31Z</time></trkpt><trkpt lat="45.80002496960276" lon="1.053376601630704"><ele>386.0</ele><time>2026-04-06T15:49:32Z</time></trkpt><trkpt lat="45.80005752500708" lon="1.053220489247623"><ele>386.20000000000005</ele><time>2026-04-06T15:49:33Z</time></trkpt><trkpt lat="45.80007990032985" lon="1.0530676104792402"><ele>386.40000000000003</ele><time>2026-04-06T15:49:34Z</time></trkpt><trkpt lat="45.8001032208892" lon="1.052914006187588"><ele>386.6</ele><time>2026-04-06T15:49:35Z</time></trkpt><trkpt lat="45.80011797823847" lon="1.0527546146808306"><ele>386.8</ele><time>2026-04-06T15:49:36Z</time></trkpt><trkpt lat="45.80013470180455" lon="1.0525983493026114"><ele>387.0</ele><time>2026-04-06T15:49:37Z</time></trkpt><trkpt lat="45.80014332367573" lon="1.052436070776573"><ele>387.0</ele><time>2026-04-06T15:49:38Z</time></trkpt><trkpt lat="45.80014460009048" lon="1.0522815728921753"><ele>387.0</ele><time>2026-04-06T15:49:39Z</time></trkpt><trkpt lat="45.80013474408051" lon="1.0521359493875453"><ele>387.0</ele><time>2026-04-06T15:49:40Z</time></trkpt><trkpt lat="45.80012988129653" lon="1.0519962301888512"><ele>387.0</ele><time>2026-04-06T15:49:41Z</time></trkpt><trkpt lat="45.800111728520086" lon="1.051846029039329"><ele>387.0</ele><time>2026-04-06T15:49:42Z</time></trkpt><trkpt lat="45.80006557698733" lon="1.0516880076443618"><ele>387.8</ele><time>2026-04-06T15:49:43Z</time></trkpt><trkpt lat="45.800002692382535" lon="1.0515402901621242"><ele>388.6</ele><time>2026-04-06T15:49:44Z</time></trkpt><trkpt lat="45.79996838442827" lon="1.051386865092745"><ele>389.40000000000003</ele><time>2026-04-06T15:49:45Z</time></trkpt><trkpt lat="45.7999281845631" lon="1.0512410379110646"><ele>390.20000000000005</ele><time>2026-04-06T15:49:46Z</time></trkpt><trkpt lat="45.79991049091647" lon="1.0510898934102986"><ele>391.0</ele><time>2026-04-06T15:49:47Z</time></trkpt><trkpt lat="45.799884486272795" lon="1.050936919762936"><ele>391.0</ele><time>2026-04-06T15:49:48Z</time></trkpt><trkpt lat="45.799846471887406" lon="1.0507724505643967"><ele>391.0</ele><time>2026-04-06T15:49:49Z</time></trkpt><trkpt lat="45.79982297604605" lon="1.0506115654891162"><ele>391.0</ele><time>2026-04-06T15:49:50Z</time></trkpt><trkpt lat="45.79981251512983" lon="1.0504518010176873"><ele>391.0</ele><time>2026-04-06T15:49:51Z</time></trkpt><trkpt lat="45.79978887058261" lon="1.0503052964191897"><ele>391.00000000000006</ele><time>2026-04-06T15:49:52Z</time></trkpt><trkpt lat="45.7997666697925" lon="1.0501685946223653"><ele>391.0</ele><time>2026-04-06T15:49:53Z</time></trkpt><trkpt lat="45.79973001197715" lon="1.0500361372086908"><ele>391.0</ele><time>2026-04-06T15:49:54Z</time></trkpt><trkpt lat="45.799707058636685" lon="1.0499101202836993"><ele>391.0</ele><time>2026-04-06T15:49:55Z</time></trkpt><trkpt lat="45.79968902058729" lon="1.0498025595649076"><ele>391.00000000000006</ele><time>2026-04-06T15:49:56Z</time></trkpt><trkpt lat="45.7996763174822" lon="1.0497067604864716"><ele>391.0</ele><time>2026-04-06T15:49:57Z</time></trkpt><trkpt lat="45.799636969511376" lon="1.0495315907141463"><ele>391.1666666666667</ele><time>2026-04-06T15:49:59Z</time></trkpt><trkpt lat="45.79959343347105" lon="1.0494192213099833"><ele>391.33333333333337</ele><time>2026-04-06T15:50:00Z</time></trkpt><trkpt lat="45.7995511980212" lon="1.0493017183415783"><ele>391.5</ele><time>2026-04-06T15:50:01Z</time></trkpt><trkpt lat="45.799514130810394" lon="1.0491912707701134"><ele>391.66666666666663</ele><time>2026-04-06T15:50:02.001Z</time></trkpt><trkpt lat="45.799489641727334" lon="1.0490719484729139"><ele>391.8333333333333</ele><time>2026-04-06T15:50:03.001Z</time></trkpt><trkpt lat="45.79945475334451" lon="1.0489631011991358"><ele>392.0</ele><time>2026-04-06T15:50:04.001Z</time></trkpt><trkpt lat="45.79942111694625" lon="1.0488581592735682"><ele>391.99999999999994</ele><time>2026-04-06T15:50:05.001Z</time></trkpt><trkpt lat="45.79939249642029" lon="1.0487651640237154"><ele>392.0</ele><time>2026-04-06T15:50:06.001Z</time></trkpt><trkpt lat="45.79935744616551" lon="1.048646822339885"><ele>392.0</ele><time>2026-04-06T15:50:08.001Z</time></trkpt><trkpt lat="45.79933361633026" lon="1.0485582298596425"><ele>392.0</ele><time>2026-04-06T15:50:11.001Z</time></trkpt><trkpt lat="45.799266919255125" lon="1.0486967256362774"><ele>391.99999999999994</ele><time>2026-04-06T15:50:15.001Z</time></trkpt><trkpt lat="45.79933334826139" lon="1.0487250967849682"><ele>392.0</ele><time>2026-04-06T15:50:18.001Z</time></trkpt><trkpt lat="45.79939569689303" lon="1.048691783964203"><ele>391.99999999999994</ele><time>2026-04-06T15:50:34.001Z</time></trkpt><trkpt lat="45.79945154039998" lon="1.0487374161474954"><ele>392.0</ele><time>2026-04-06T15:51:05.001Z</time></trkpt><trkpt lat="45.79953511304126" lon="1.048825791317045"><ele>392.0</ele><time>2026-04-06T15:51:07.001Z</time></trkpt><trkpt lat="45.79958481282707" lon="1.048886416187586"><ele>392.0</ele><time>2026-04-06T15:51:08.001Z</time></trkpt><trkpt lat="45.79964039530818" lon="1.04895639337567"><ele>391.99999999999994</ele><time>2026-04-06T15:51:09.001Z</time></trkpt><trkpt lat="45.79970439897278" lon="1.0490345853113967"><ele>392.0</ele><time>2026-04-06T15:51:10.001Z</time></trkpt><trkpt lat="45.79975645165292" lon="1.0491052028578898"><ele>392.0</ele><time>2026-04-06T15:51:11.001Z</time></trkpt><trkpt lat="45.79980399240091" lon="1.0491701453474487"><ele>392.0</ele><time>2026-04-06T15:51:12.001Z</time></trkpt><trkpt lat="45.79987582071859" lon="1.0492597461591466"><ele>392.0</ele><time>2026-04-06T15:51:14.001Z</time></trkpt><trkpt lat="45.799958985183615" lon="1.049350908543673"><ele>392.0</ele><time>2026-04-06T15:51:16.001Z</time></trkpt><trkpt lat="45.800025005524034" lon="1.0494639745381622"><ele>392.0</ele><time>2026-04-06T15:51:18.001Z</time></trkpt><trkpt lat="45.800085362067655" lon="1.0495822867728446"><ele>392.0</ele><time>2026-04-06T15:51:20.001Z</time></trkpt><trkpt lat="45.80015591125226" lon="1.0496833675615267"><ele>392.0</ele><time>2026-04-06T15:51:22.001Z</time></trkpt><trkpt lat="45.800241299551736" lon="1.0497583540135407"><ele>392.0</ele><time>2026-04-06T15:51:24.001Z</time></trkpt><trkpt lat="45.800314577589425" lon="1.0498181443777042"><ele>392.0</ele><time>2026-04-06T15:51:26Z</time></trkpt><trkpt lat="45.80036893981789" lon="1.0498783143890826"><ele>392.0</ele><time>2026-04-06T15:51:28Z</time></trkpt><trkpt lat="45.80046089199494" lon="1.0499800601990334"><ele>391.0</ele><time>2026-04-06T15:51:31Z</time></trkpt><trkpt lat="45.80051083474751" lon="1.0500353932510103"><ele>390.0</ele><time>2026-04-06T15:51:32Z</time></trkpt><trkpt lat="45.800611809991416" lon="1.050122826261745"><ele>389.0</ele><time>2026-04-06T15:51:34Z</time></trkpt><trkpt lat="45.800725347549246" lon="1.0501960238079604"><ele>388.0</ele><time>2026-04-06T15:51:36Z</time></trkpt><trkpt lat="45.80081782935379" lon="1.0502608377387892"><ele>387.0</ele><time>2026-04-06T15:51:38Z</time></trkpt><trkpt lat="45.800920019075406" lon="1.0503326190657594"><ele>386.8</ele><time>2026-04-06T15:51:40Z</time></trkpt><trkpt lat="45.801028246083696" lon="1.0503916986434656"><ele>386.6</ele><time>2026-04-06T15:51:42Z</time></trkpt><trkpt lat="45.80112345926047" lon="1.0504460642158482"><ele>386.40000000000003</ele><time>2026-04-06T15:51:44Z</time></trkpt><trkpt lat="45.80122504278936" lon="1.0504964323495405"><ele>386.20000000000005</ele><time>2026-04-06T15:51:46Z</time></trkpt><trkpt lat="45.80128914678797" lon="1.0505266607278718"><ele>386.0</ele><time>2026-04-06T15:51:48Z</time></trkpt><trkpt lat="45.80134342883334" lon="1.0506062607980162"><ele>386.0</ele><time>2026-04-06T15:51:50Z</time></trkpt><trkpt lat="45.80139511075149" lon="1.0507839180057752"><ele>386.0</ele><time>2026-04-06T15:51:52Z</time></trkpt><trkpt lat="45.80144039218495" lon="1.0509289613165103"><ele>386.0</ele><time>2026-04-06T15:51:54Z</time></trkpt><trkpt lat="45.801471943124284" lon="1.051092832196777"><ele>386.0</ele><time>2026-04-06T15:51:56Z</time></trkpt><trkpt lat="45.80149867584183" lon="1.0511762159556164"><ele>386.0</ele><time>2026-04-06T15:51:57Z</time></trkpt><trkpt lat="45.80151612000409" lon="1.0513648267578937"><ele>386.49999999999994</ele><time>2026-04-06T15:51:59Z</time></trkpt><trkpt lat="45.80151886125985" lon="1.0514605431325401"><ele>387.0</ele><time>2026-04-06T15:52:00Z</time></trkpt><trkpt lat="45.801551625700036" lon="1.05155783544914"><ele>387.5</ele><time>2026-04-06T15:52:01Z</time></trkpt><trkpt lat="45.80158670085401" lon="1.0516501966659317"><ele>388.0</ele><time>2026-04-06T15:52:02Z</time></trkpt><trkpt lat="45.801640825544354" lon="1.0517385223730524"><ele>388.49999999999994</ele><time>2026-04-06T15:52:03Z</time></trkpt><trkpt lat="45.801697970331276" lon="1.0518302686388659"><ele>389.0</ele><time>2026-04-06T15:52:04Z</time></trkpt><trkpt lat="45.80174353834371" lon="1.0519222342175518"><ele>388.99999999999994</ele><time>2026-04-06T15:52:05Z</time></trkpt><trkpt lat="45.80178726126919" lon="1.0520146077745187"><ele>389.0</ele><time>2026-04-06T15:52:06Z</time></trkpt><trkpt lat="45.80182449627204" lon="1.052117631372137"><ele>389.0</ele><time>2026-04-06T15:52:07Z</time></trkpt><trkpt lat="45.801852017618465" lon="1.0522167863609801"><ele>389.0</ele><time>2026-04-06T15:52:08Z</time></trkpt><trkpt lat="45.80187593295606" lon="1.0523193641494024"><ele>388.99999999999994</ele><time>2026-04-06T15:52:09Z</time></trkpt><trkpt lat="45.8018985876387" lon="1.0524223939804591"><ele>389.0</ele><time>2026-04-06T15:52:10Z</time></trkpt><trkpt lat="45.801918928737955" lon="1.0525191860174778"><ele>387.8333333333333</ele><time>2026-04-06T15:52:11Z</time></trkpt><trkpt lat="45.801948323059285" lon="1.0526024453026512"><ele>386.66666666666663</ele><time>2026-04-06T15:52:12Z</time></trkpt><trkpt lat="45.801983911552455" lon="1.0526918254739588"><ele>385.5</ele><time>2026-04-06T15:52:13Z</time></trkpt><trkpt lat="45.80202931883109" lon="1.0527988082973063"><ele>384.3333333333333</ele><time>2026-04-06T15:52:14Z</time></trkpt><trkpt lat="45.80207581924942" lon="1.0529157959091784"><ele>383.16666666666663</ele><time>2026-04-06T15:52:15Z</time></trkpt><trkpt lat="45.80211740222878" lon="1.0530028429885663"><ele>382.0</ele><time>2026-04-06T15:52:16Z</time></trkpt><trkpt lat="45.80216219078567" lon="1.0530888184160798"><ele>382.0</ele><time>2026-04-06T15:52:17Z</time></trkpt><trkpt lat="45.802203948507895" lon="1.053184740476467"><ele>382.0</ele><time>2026-04-06T15:52:18Z</time></trkpt><trkpt lat="45.80225236945631" lon="1.053276545286259"><ele>382.0</ele><time>2026-04-06T15:52:19Z</time></trkpt><trkpt lat="45.8022898838913" lon="1.053373572712056"><ele>382.0</ele><time>2026-04-06T15:52:20Z</time></trkpt><trkpt lat="45.80233721660739" lon="1.0534737255580098"><ele>382.0</ele><time>2026-04-06T15:52:21Z</time></trkpt><trkpt lat="45.80237774490035" lon="1.0535609334435205"><ele>382.0</ele><time>2026-04-06T15:52:22Z</time></trkpt><trkpt lat="45.80242765802335" lon="1.053644357326581"><ele>381.25</ele><time>2026-04-06T15:52:23Z</time></trkpt><trkpt lat="45.80246812885585" lon="1.0537271724874115"><ele>380.5</ele><time>2026-04-06T15:52:24Z</time></trkpt><trkpt lat="45.80249725259155" lon="1.0538442892254578"><ele>379.75</ele><time>2026-04-06T15:52:26Z</time></trkpt><trkpt lat="45.80253496476131" lon="1.0539171589509821"><ele>379.0</ele><time>2026-04-06T15:52:43.001Z</time></trkpt><trkpt lat="45.80279682161233" lon="1.0536546604196442"><ele>379.0</ele><time>2026-04-06T15:52:48.001Z</time></trkpt><trkpt lat="45.802863009965535" lon="1.0535856355028963"><ele>379.0</ele><time>2026-04-06T15:52:49.001Z</time></trkpt><trkpt lat="45.802908682353134" lon="1.0535093739930756"><ele>379.0</ele><time>2026-04-06T15:52:50.001Z</time></trkpt><trkpt lat="45.80297792217579" lon="1.0534361517887052"><ele>379.0</ele><time>2026-04-06T15:52:51.001Z</time></trkpt><trkpt lat="45.80303796200913" lon="1.053361001031145"><ele>379.0</ele><time>2026-04-06T15:52:52.001Z</time></trkpt><trkpt lat="45.803099699090815" lon="1.0532741603131575"><ele>379.0</ele><time>2026-04-06T15:52:53.001Z</time></trkpt><trkpt lat="45.803149850135064" lon="1.0531866856330139"><ele>379.0</ele><time>2026-04-06T15:52:54.001Z</time></trkpt><trkpt lat="45.80321164110987" lon="1.0531034895825946"><ele>379.0</ele><time>2026-04-06T15:52:55.001Z</time></trkpt><trkpt lat="45.80328844550058" lon="1.0530007290767436"><ele>379.0</ele><time>2026-04-06T15:52:56.001Z</time></trkpt><trkpt lat="45.803358604767865" lon="1.052878037955677"><ele>379.0</ele><time>2026-04-06T15:52:57.001Z</time></trkpt><trkpt lat="45.80343101103778" lon="1.0527784344561992"><ele>379.0</ele><time>2026-04-06T15:52:58.001Z</time></trkpt><trkpt lat="45.8034948540596" lon="1.0526839710426925"><ele>378.66666666666663</ele><time>2026-04-06T15:52:59.001Z</time></trkpt><trkpt lat="45.803590242328646" lon="1.0526375451882937"><ele>378.3333333333333</ele><time>2026-04-06T15:53:00.001Z</time></trkpt><trkpt lat="45.803657719813295" lon="1.0525447973933668"><ele>378.0</ele><time>2026-04-06T15:53:01.001Z</time></trkpt><trkpt lat="45.80372495956174" lon="1.0524577945141895"><ele>377.6666666666667</ele><time>2026-04-06T15:53:02.001Z</time></trkpt><trkpt lat="45.803790867271076" lon="1.0523796713131506"><ele>377.33333333333337</ele><time>2026-04-06T15:53:03.001Z</time></trkpt><trkpt lat="45.80384481656307" lon="1.0523173886803545"><ele>377.0</ele><time>2026-04-06T15:53:04.001Z</time></trkpt><trkpt lat="45.80389751344634" lon="1.0522578268665272"><ele>377.0</ele><time>2026-04-06T15:53:05.001Z</time></trkpt><trkpt lat="45.80395473566492" lon="1.0521941518939972"><ele>377.0</ele><time>2026-04-06T15:53:06.001Z</time></trkpt><trkpt lat="45.804000321299775" lon="1.052114087024349"><ele>377.0</ele><time>2026-04-06T15:53:07.001Z</time></trkpt><trkpt lat="45.804072298645266" lon="1.052048507545289"><ele>377.0</ele><time>2026-04-06T15:53:08.001Z</time></trkpt><trkpt lat="45.804135858635696" lon="1.051978164990471"><ele>377.0</ele><time>2026-04-06T15:53:09.001Z</time></trkpt><trkpt lat="45.80420149881469" lon="1.0519086505764605"><ele>377.0</ele><time>2026-04-06T15:53:10.001Z</time></trkpt><trkpt lat="45.80427292618745" lon="1.051832911105201"><ele>377.33333333333337</ele><time>2026-04-06T15:53:11.001Z</time></trkpt><trkpt lat="45.80433928702766" lon="1.0517609509512673"><ele>377.6666666666667</ele><time>2026-04-06T15:53:12.001Z</time></trkpt><trkpt lat="45.804405944722795" lon="1.0516884304656338"><ele>378.0</ele><time>2026-04-06T15:53:13.001Z</time></trkpt><trkpt lat="45.80446910827257" lon="1.0516180065027612"><ele>378.3333333333333</ele><time>2026-04-06T15:53:14.001Z</time></trkpt><trkpt lat="45.80454207614949" lon="1.0515625785895266"><ele>378.66666666666663</ele><time>2026-04-06T15:53:15.001Z</time></trkpt><trkpt lat="45.80460528801249" lon="1.0514659479734352"><ele>379.0</ele><time>2026-04-06T15:53:16.001Z</time></trkpt><trkpt lat="45.804682897327865" lon="1.0513849734277612"><ele>379.2</ele><time>2026-04-06T15:53:17.001Z</time></trkpt><trkpt lat="45.80476880115979" lon="1.0513189386564121"><ele>379.4</ele><time>2026-04-06T15:53:18.001Z</time></trkpt><trkpt lat="45.804844882977385" lon="1.0512370783947838"><ele>379.6</ele><time>2026-04-06T15:53:19.001Z</time></trkpt><trkpt lat="45.804921530873386" lon="1.0511546090932347"><ele>379.8</ele><time>2026-04-06T15:53:20.001Z</time></trkpt><trkpt lat="45.80499572998399" lon="1.0510747747177198"><ele>380.0</ele><time>2026-04-06T15:53:21.001Z</time></trkpt><trkpt lat="45.805066725052605" lon="1.0509983875937923"><ele>380.0</ele><time>2026-04-06T15:53:22.001Z</time></trkpt><trkpt lat="45.80513808350504" lon="1.0509216094591052"><ele>380.0</ele><time>2026-04-06T15:53:23.001Z</time></trkpt><trkpt lat="45.805210542675525" lon="1.0508436470610143"><ele>380.0</ele><time>2026-04-06T15:53:24.001Z</time></trkpt><trkpt lat="45.80527607352235" lon="1.0507731391937036"><ele>380.0</ele><time>2026-04-06T15:53:25.001Z</time></trkpt><trkpt lat="45.805341050503344" lon="1.05067329171311"><ele>380.0</ele><time>2026-04-06T15:53:26.001Z</time></trkpt><trkpt lat="45.80541639362407" lon="1.0505944349518939"><ele>379.0</ele><time>2026-04-06T15:53:27.001Z</time></trkpt><trkpt lat="45.8055040183312" lon="1.0505264276542026"><ele>378.0</ele><time>2026-04-06T15:53:28.001Z</time></trkpt><trkpt lat="45.80558899695436" lon="1.050434423240098"><ele>377.0</ele><time>2026-04-06T15:53:29.001Z</time></trkpt><trkpt lat="45.80567518556666" lon="1.0503404478483473"><ele>376.0</ele><time>2026-04-06T15:53:30.001Z</time></trkpt><trkpt lat="45.80576194236135" lon="1.0502458232734306"><ele>375.0</ele><time>2026-04-06T15:53:31Z</time></trkpt><trkpt lat="45.805843727346804" lon="1.0501350495800599"><ele>375.0</ele><time>2026-04-06T15:53:32Z</time></trkpt><trkpt lat="45.80592419317594" lon="1.050035929512149"><ele>375.0</ele><time>2026-04-06T15:53:33Z</time></trkpt><trkpt lat="45.80600249870999" lon="1.0499487962507248"><ele>375.0</ele><time>2026-04-06T15:53:34Z</time></trkpt><trkpt lat="45.80608332429877" lon="1.0498810505682303"><ele>375.0</ele><time>2026-04-06T15:53:35Z</time></trkpt><trkpt lat="45.80614390386253" lon="1.0497807771391565"><ele>375.0</ele><time>2026-04-06T15:53:36Z</time></trkpt><trkpt lat="45.806208202308525" lon="1.049706078454485"><ele>374.0</ele><time>2026-04-06T15:53:37Z</time></trkpt><trkpt lat="45.80629149779388" lon="1.0496126146653424"><ele>373.0</ele><time>2026-04-06T15:53:39Z</time></trkpt><trkpt lat="45.806361268749555" lon="1.0495470307974473"><ele>372.0</ele><time>2026-04-06T15:53:42Z</time></trkpt><trkpt lat="45.80643998047142" lon="1.0496332826101182"><ele>371.0</ele><time>2026-04-06T15:53:43Z</time></trkpt><trkpt lat="45.80650388715134" lon="1.049719915886396"><ele>370.0</ele><time>2026-04-06T15:53:44Z</time></trkpt><trkpt lat="45.80660356965776" lon="1.049839279660012"><ele>370.0</ele><time>2026-04-06T15:53:45Z</time></trkpt><trkpt lat="45.80670461950421" lon="1.049940311871888"><ele>370.0</ele><time>2026-04-06T15:53:46Z</time></trkpt><trkpt lat="45.806794561219725" lon="1.0500243071941444"><ele>370.0</ele><time>2026-04-06T15:53:47Z</time></trkpt><trkpt lat="45.806873506394545" lon="1.05009506946067"><ele>370.0</ele><time>2026-04-06T15:53:48Z</time></trkpt><trkpt lat="45.80695612343668" lon="1.0501828103373805"><ele>370.0</ele><time>2026-04-06T15:53:49Z</time></trkpt><trkpt lat="45.807066531487635" lon="1.050273748210292"><ele>370.75</ele><time>2026-04-06T15:53:50Z</time></trkpt><trkpt lat="45.80717036406899" lon="1.050377033365599"><ele>371.5</ele><time>2026-04-06T15:53:51Z</time></trkpt><trkpt lat="45.80726936081142" lon="1.0504565587625776"><ele>372.25</ele><time>2026-04-06T15:53:52Z</time></trkpt><trkpt lat="45.80736060410624" lon="1.0505376220495122"><ele>373.0</ele><time>2026-04-06T15:53:53Z</time></trkpt><trkpt lat="45.807454894974526" lon="1.0506178202425067"><ele>373.0</ele><time>2026-04-06T15:53:54Z</time></trkpt><trkpt lat="45.80755505023754" lon="1.050705117007471"><ele>373.0</ele><time>2026-04-06T15:53:55Z</time></trkpt><trkpt lat="45.807655933326046" lon="1.0507904518908457"><ele>373.0</ele><time>2026-04-06T15:53:56Z</time></trkpt><trkpt lat="45.80775578734098" lon="1.0508742939141689"><ele>373.0</ele><time>2026-04-06T15:53:57Z</time></trkpt><trkpt lat="45.80785368090939" lon="1.050954343470394"><ele>374.59999999999997</ele><time>2026-04-06T15:53:58Z</time></trkpt><trkpt lat="45.807942060860704" lon="1.0510663413588817"><ele>376.2</ele><time>2026-04-06T15:53:59Z</time></trkpt><trkpt lat="45.808040938671496" lon="1.051163570476369"><ele>377.8</ele><time>2026-04-06T15:54:00Z</time></trkpt><trkpt lat="45.80813985026869" lon="1.051232750490094"><ele>379.4</ele><time>2026-04-06T15:54:01Z</time></trkpt><trkpt lat="45.808234720791646" lon="1.0512734422850325"><ele>381.0</ele><time>2026-04-06T15:54:02Z</time></trkpt><trkpt lat="45.808311325582004" lon="1.0513427766538104"><ele>381.0</ele><time>2026-04-06T15:54:03Z</time></trkpt><trkpt lat="45.80838987752698" lon="1.0513755007100467"><ele>381.0</ele><time>2026-04-06T15:54:04Z</time></trkpt><trkpt lat="45.808474306909694" lon="1.051413405578139"><ele>381.0</ele><time>2026-04-06T15:54:05Z</time></trkpt><trkpt lat="45.808550892283314" lon="1.0514488927277126"><ele>381.0</ele><time>2026-04-06T15:54:06Z</time></trkpt><trkpt lat="45.808633739318864" lon="1.0514820117015002"><ele>381.0</ele><time>2026-04-06T15:54:07Z</time></trkpt><trkpt lat="45.808725049265455" lon="1.0515142253914516"><ele>381.0</ele><time>2026-04-06T15:54:08Z</time></trkpt><trkpt lat="45.80880954563406" lon="1.051555416507497"><ele>381.0</ele><time>2026-04-06T15:54:09Z</time></trkpt><trkpt lat="45.80889371469263" lon="1.0515925751808752"><ele>381.0</ele><time>2026-04-06T15:54:10Z</time></trkpt><trkpt lat="45.808967688088934" lon="1.0516170189260976"><ele>381.0</ele><time>2026-04-06T15:54:11Z</time></trkpt><trkpt lat="45.809038423170826" lon="1.051633857310546"><ele>381.0</ele><time>2026-04-06T15:54:12Z</time></trkpt><trkpt lat="45.80917606683684" lon="1.0516878813406332"><ele>381.0</ele><time>2026-04-06T15:54:14Z</time></trkpt><trkpt lat="45.8092500205329" lon="1.0517101009511423"><ele>381.1428571428571</ele><time>2026-04-06T15:54:15Z</time></trkpt><trkpt lat="45.80932292106247" lon="1.0517311991880571"><ele>381.28571428571433</ele><time>2026-04-06T15:54:16Z</time></trkpt><trkpt lat="45.80938676557484" lon="1.0517738684440154"><ele>381.42857142857144</ele><time>2026-04-06T15:54:17Z</time></trkpt><trkpt lat="45.80945144389483" lon="1.0517969130333031"><ele>381.57142857142856</ele><time>2026-04-06T15:54:18Z</time></trkpt><trkpt lat="45.809518212807156" lon="1.051820447141143"><ele>381.71428571428567</ele><time>2026-04-06T15:54:19Z</time></trkpt><trkpt lat="45.8095849711688" lon="1.0518433876928786"><ele>381.8571428571429</ele><time>2026-04-06T15:54:20Z</time></trkpt><trkpt lat="45.80965508000228" lon="1.0518435679000497"><ele>382.0</ele><time>2026-04-06T15:54:21Z</time></trkpt><trkpt lat="45.809717699912575" lon="1.0518755952510435"><ele>382.0</ele><time>2026-04-06T15:54:22Z</time></trkpt><trkpt lat="45.80978359065114" lon="1.0518892759721692"><ele>382.0</ele><time>2026-04-06T15:54:23Z</time></trkpt><trkpt lat="45.809848295718865" lon="1.0519198851541725"><ele>382.0</ele><time>2026-04-06T15:54:24Z</time></trkpt><trkpt lat="45.809913561466495" lon="1.0519412300283426"><ele>382.0</ele><time>2026-04-06T15:54:25Z</time></trkpt><trkpt lat="45.80997712782319" lon="1.0519611422586703"><ele>382.0</ele><time>2026-04-06T15:54:26Z</time></trkpt><trkpt lat="45.81005397420499" lon="1.0519717428119015"><ele>382.0</ele><time>2026-04-06T15:54:27Z</time></trkpt><trkpt lat="45.81014001571334" lon="1.0520102165434455"><ele>382.0</ele><time>2026-04-06T15:54:28Z</time></trkpt><trkpt lat="45.81023602861596" lon="1.052037708569354"><ele>382.0</ele><time>2026-04-06T15:54:29Z</time></trkpt><trkpt lat="45.81034129231598" lon="1.052063645167889"><ele>382.0</ele><time>2026-04-06T15:54:30Z</time></trkpt><trkpt lat="45.810457637724994" lon="1.0520912936283888"><ele>382.0</ele><time>2026-04-06T15:54:31Z</time></trkpt><trkpt lat="45.81057172386264" lon="1.0521142664507621"><ele>382.0</ele><time>2026-04-06T15:54:32Z</time></trkpt><trkpt lat="45.81067740004198" lon="1.0521390690861818"><ele>382.0</ele><time>2026-04-06T15:54:33Z</time></trkpt><trkpt lat="45.81078415444388" lon="1.0521776857739058"><ele>382.0</ele><time>2026-04-06T15:54:34Z</time></trkpt><trkpt lat="45.810890126825456" lon="1.0522221735967094"><ele>382.0</ele><time>2026-04-06T15:54:35Z</time></trkpt><trkpt lat="45.81099588657596" lon="1.0522729768407855"><ele>382.0</ele><time>2026-04-06T15:54:36Z</time></trkpt><trkpt lat="45.811095679171615" lon="1.0523270002677885"><ele>382.0</ele><time>2026-04-06T15:54:37Z</time></trkpt><trkpt lat="45.811184770407934" lon="1.0523821689277695"><ele>382.0</ele><time>2026-04-06T15:54:38Z</time></trkpt><trkpt lat="45.81127020565512" lon="1.0524336977193938"><ele>382.0</ele><time>2026-04-06T15:54:39Z</time></trkpt><trkpt lat="45.81135110004552" lon="1.0524746226065556"><ele>382.0</ele><time>2026-04-06T15:54:40Z</time></trkpt><trkpt lat="45.81142460566391" lon="1.0525196209801868"><ele>382.0</ele><time>2026-04-06T15:54:41.001Z</time></trkpt><trkpt lat="45.81149396521236" lon="1.052561763591575"><ele>382.0</ele><time>2026-04-06T15:54:42.001Z</time></trkpt><trkpt lat="45.811555014986595" lon="1.0526005881492988"><ele>382.0</ele><time>2026-04-06T15:54:43.001Z</time></trkpt><trkpt lat="45.811660059045934" lon="1.0526786292287407"><ele>382.0</ele><time>2026-04-06T15:54:45.001Z</time></trkpt><trkpt lat="45.8117153180485" lon="1.052729536869995"><ele>382.0</ele><time>2026-04-06T15:54:47.001Z</time></trkpt><trkpt lat="45.81177108216503" lon="1.0528625758468184"><ele>382.0</ele><time>2026-04-06T15:54:49.001Z</time></trkpt><trkpt lat="45.81179641949076" lon="1.0529877313192468"><ele>382.0</ele><time>2026-04-06T15:54:50.001Z</time></trkpt><trkpt lat="45.811817543422755" lon="1.053109808836206"><ele>382.0</ele><time>2026-04-06T15:54:51.001Z</time></trkpt><trkpt lat="45.8118110932967" lon="1.0532428047761488"><ele>382.0</ele><time>2026-04-06T15:54:52.001Z</time></trkpt><trkpt lat="45.81179921670763" lon="1.0533921598128828"><ele>381.5</ele><time>2026-04-06T15:54:53.001Z</time></trkpt><trkpt lat="45.81177320052918" lon="1.0535446166764977"><ele>381.0</ele><time>2026-04-06T15:54:54.001Z</time></trkpt><trkpt lat="45.81175236650395" lon="1.0537065266073886"><ele>380.5</ele><time>2026-04-06T15:54:55.001Z</time></trkpt><trkpt lat="45.81172704799801" lon="1.0538745738017359"><ele>380.0</ele><time>2026-04-06T15:54:56.001Z</time></trkpt><trkpt lat="45.81169637183356" lon="1.0540355964652086"><ele>380.25</ele><time>2026-04-06T15:54:57.001Z</time></trkpt><trkpt lat="45.811668140646354" lon="1.0541962873129744"><ele>380.5</ele><time>2026-04-06T15:54:58.001Z</time></trkpt><trkpt lat="45.81162596086292" lon="1.0543665827841993"><ele>380.75</ele><time>2026-04-06T15:54:59.001Z</time></trkpt><trkpt lat="45.81159764738759" lon="1.0545273733092413"><ele>381.0</ele><time>2026-04-06T15:55:00.001Z</time></trkpt><trkpt lat="45.811549641488945" lon="1.054692730924709"><ele>381.0</ele><time>2026-04-06T15:55:01.001Z</time></trkpt><trkpt lat="45.81154041429224" lon="1.0548783867074811"><ele>381.0</ele><time>2026-04-06T15:55:02.001Z</time></trkpt><trkpt lat="45.81153722611131" lon="1.0550650960804118"><ele>381.0</ele><time>2026-04-06T15:55:03.001Z</time></trkpt><trkpt lat="45.81153442249243" lon="1.0552450046878086"><ele>381.0</ele><time>2026-04-06T15:55:04.001Z</time></trkpt><trkpt lat="45.81153558733915" lon="1.0554225439760512"><ele>381.0</ele><time>2026-04-06T15:55:05.001Z</time></trkpt><trkpt lat="45.8115328918294" lon="1.055600669586538"><ele>381.0</ele><time>2026-04-06T15:55:06.001Z</time></trkpt><trkpt lat="45.81153219430306" lon="1.0557734562781078"><ele>381.0</ele><time>2026-04-06T15:55:07.001Z</time></trkpt><trkpt lat="45.81152823373196" lon="1.0559503262906011"><ele>381.0</ele><time>2026-04-06T15:55:08.001Z</time></trkpt><trkpt lat="45.81152457850579" lon="1.0561341863033782"><ele>381.25</ele><time>2026-04-06T15:55:09.001Z</time></trkpt><trkpt lat="45.81152291030193" lon="1.056323636807617"><ele>381.5</ele><time>2026-04-06T15:55:10.001Z</time></trkpt><trkpt lat="45.81153556805796" lon="1.0565199446780715"><ele>381.75</ele><time>2026-04-06T15:55:11.001Z</time></trkpt><trkpt lat="45.81155900504176" lon="1.0567208131211048"><ele>382.0</ele><time>2026-04-06T15:55:12.001Z</time></trkpt><trkpt lat="45.81159390032714" lon="1.0569138209473667"><ele>382.0</ele><time>2026-04-06T15:55:13.001Z</time></trkpt><trkpt lat="45.811620426462724" lon="1.0571020493894272"><ele>382.0</ele><time>2026-04-06T15:55:14.001Z</time></trkpt><trkpt lat="45.811644080487355" lon="1.0572733106080845"><ele>382.0</ele><time>2026-04-06T15:55:15.001Z</time></trkpt><trkpt lat="45.811673353444725" lon="1.057448011571772"><ele>382.0</ele><time>2026-04-06T15:55:16.001Z</time></trkpt><trkpt lat="45.811676210613314" lon="1.0576237601609184"><ele>381.6</ele><time>2026-04-06T15:55:17.001Z</time></trkpt><trkpt lat="45.81168701245075" lon="1.0577897955899087"><ele>381.20000000000005</ele><time>2026-04-06T15:55:18.001Z</time></trkpt><trkpt lat="45.81169335010664" lon="1.0579442377614068"><ele>380.8</ele><time>2026-04-06T15:55:19.001Z</time></trkpt><trkpt lat="45.811704934843824" lon="1.0580926274430105"><ele>380.4</ele><time>2026-04-06T15:55:20.001Z</time></trkpt><trkpt lat="45.811714977950565" lon="1.0582301516984047"><ele>380.0</ele><time>2026-04-06T15:55:21.001Z</time></trkpt><trkpt lat="45.81173081952322" lon="1.0583601599834558"><ele>379.5</ele><time>2026-04-06T15:55:22.001Z</time></trkpt><trkpt lat="45.811752997437395" lon="1.0584958863763418"><ele>379.0</ele><time>2026-04-06T15:55:23.001Z</time></trkpt><trkpt lat="45.81177551275103" lon="1.0586504444153668"><ele>378.5</ele><time>2026-04-06T15:55:24.001Z</time></trkpt><trkpt lat="45.81180393327652" lon="1.0588191238904145"><ele>378.0</ele><time>2026-04-06T15:55:25.001Z</time></trkpt><trkpt lat="45.81183748089424" lon="1.0589948733314396"><ele>377.75</ele><time>2026-04-06T15:55:26.001Z</time></trkpt><trkpt lat="45.8118666657212" lon="1.059184561498572"><ele>377.5</ele><time>2026-04-06T15:55:27.001Z</time></trkpt><trkpt lat="45.81189260542013" lon="1.0593786827333076"><ele>377.25</ele><time>2026-04-06T15:55:28.001Z</time></trkpt><trkpt lat="45.81189810629709" lon="1.0595688580859037"><ele>377.0</ele><time>2026-04-06T15:55:29.001Z</time></trkpt><trkpt lat="45.81187501948611" lon="1.0597348404838418"><ele>377.0</ele><time>2026-04-06T15:55:30.001Z</time></trkpt><trkpt lat="45.81182440522408" lon="1.0598852798707556"><ele>377.0</ele><time>2026-04-06T15:55:31.001Z</time></trkpt><trkpt lat="45.81172993787374" lon="1.0600122186115848"><ele>377.0</ele><time>2026-04-06T15:55:32.001Z</time></trkpt><trkpt lat="45.81164361133785" lon="1.0601676616765665"><ele>377.0</ele><time>2026-04-06T15:55:33.001Z</time></trkpt><trkpt lat="45.81156132191406" lon="1.0602843329493936"><ele>376.33333333333337</ele><time>2026-04-06T15:55:34.001Z</time></trkpt><trkpt lat="45.81149044501908" lon="1.0603953529942334"><ele>375.6666666666667</ele><time>2026-04-06T15:55:35.001Z</time></trkpt><trkpt lat="45.811432901515985" lon="1.0604826502665994"><ele>375.0</ele><time>2026-04-06T15:55:36.001Z</time></trkpt><trkpt lat="45.811386238062646" lon="1.0605510721926084"><ele>374.3333333333333</ele><time>2026-04-06T15:55:37Z</time></trkpt><trkpt lat="45.81131683500591" lon="1.060663359337676"><ele>373.66666666666663</ele><time>2026-04-06T15:55:39Z</time></trkpt><trkpt lat="45.81127102750045" lon="1.0607378938165202"><ele>373.0</ele><time>2026-04-06T15:55:40Z</time></trkpt><trkpt lat="45.81121024278992" lon="1.0608300585987633"><ele>373.0</ele><time>2026-04-06T15:55:41Z</time></trkpt><trkpt lat="45.81111903719385" lon="1.0609815179136357"><ele>373.0</ele><time>2026-04-06T15:55:42Z</time></trkpt><trkpt lat="45.81102618494197" lon="1.0611341132341912"><ele>373.0</ele><time>2026-04-06T15:55:43Z</time></trkpt><trkpt lat="45.810940866404245" lon="1.0612767066976276"><ele>373.0</ele><time>2026-04-06T15:55:44Z</time></trkpt><trkpt lat="45.810856395426796" lon="1.0614230077718703"><ele>372.5</ele><time>2026-04-06T15:55:45Z</time></trkpt><trkpt lat="45.81076792908556" lon="1.0615561082682423"><ele>372.0</ele><time>2026-04-06T15:55:46Z</time></trkpt><trkpt lat="45.810672752814085" lon="1.0616744935355222"><ele>371.5</ele><time>2026-04-06T15:55:47Z</time></trkpt><trkpt lat="45.810575042991196" lon="1.0617839531822872"><ele>371.0</ele><time>2026-04-06T15:55:48Z</time></trkpt><trkpt lat="45.810478678791895" lon="1.061889507204785"><ele>370.4</ele><time>2026-04-06T15:55:49Z</time></trkpt><trkpt lat="45.81037968200117" lon="1.0619880040438558"><ele>369.8</ele><time>2026-04-06T15:55:50Z</time></trkpt><trkpt lat="45.810296427310234" lon="1.0620881769143915"><ele>369.2</ele><time>2026-04-06T15:55:51Z</time></trkpt><trkpt lat="45.81023758877726" lon="1.0622066409840225"><ele>368.59999999999997</ele><time>2026-04-06T15:55:52Z</time></trkpt><trkpt lat="45.810196660370075" lon="1.0623589741540633"><ele>368.0</ele><time>2026-04-06T15:55:53Z</time></trkpt><trkpt lat="45.810166568212225" lon="1.0625365204664432"><ele>367.0</ele><time>2026-04-06T15:55:54Z</time></trkpt><trkpt lat="45.81014405523586" lon="1.0627086520913112"><ele>366.0</ele><time>2026-04-06T15:55:55Z</time></trkpt><trkpt lat="45.81010897181083" lon="1.0628867046137294"><ele>365.0</ele><time>2026-04-06T15:55:56Z</time></trkpt><trkpt lat="45.810084401418486" lon="1.0630553515006278"><ele>364.0</ele><time>2026-04-06T15:55:57Z</time></trkpt><trkpt lat="45.8100679275847" lon="1.0631954965871422"><ele>362.79999999999995</ele><time>2026-04-06T15:55:58Z</time></trkpt><trkpt lat="45.81007646151782" lon="1.063331266423598"><ele>361.59999999999997</ele><time>2026-04-06T15:55:59Z</time></trkpt><trkpt lat="45.81012077508281" lon="1.0634780930846448"><ele>360.4</ele><time>2026-04-06T15:56:00Z</time></trkpt><trkpt lat="45.8101935780997" lon="1.0636157868037905"><ele>359.2</ele><time>2026-04-06T15:56:01Z</time></trkpt><trkpt lat="45.81027524703796" lon="1.0637193724114327"><ele>358.0</ele><time>2026-04-06T15:56:02Z</time></trkpt><trkpt lat="45.810364856748706" lon="1.0637801701268885"><ele>357.5</ele><time>2026-04-06T15:56:03Z</time></trkpt><trkpt lat="45.81044416805236" lon="1.0638386054622984"><ele>357.0</ele><time>2026-04-06T15:56:04Z</time></trkpt><trkpt lat="45.81051403758493" lon="1.063878787106696"><ele>356.5</ele><time>2026-04-06T15:56:05Z</time></trkpt><trkpt lat="45.81057332931063" lon="1.0639239012090604"><ele>356.0</ele><time>2026-04-06T15:56:06Z</time></trkpt><trkpt lat="45.81066738057792" lon="1.0639832249018906"><ele>355.5</ele><time>2026-04-06T15:56:08Z</time></trkpt><trkpt lat="45.81073379193154" lon="1.0640332701030184"><ele>355.0</ele><time>2026-04-06T15:56:12Z</time></trkpt><trkpt lat="45.81077354279892" lon="1.0638742570610442"><ele>355.0</ele><time>2026-04-06T15:56:13Z</time></trkpt><trkpt lat="45.81077814729906" lon="1.0637056217185366"><ele>355.0</ele><time>2026-04-06T15:56:14Z</time></trkpt><trkpt lat="45.810790677093074" lon="1.0635088151540137"><ele>355.0</ele><time>2026-04-06T15:56:15Z</time></trkpt><trkpt lat="45.81083136570549" lon="1.0632990807833254"><ele>355.0</ele><time>2026-04-06T15:56:16Z</time></trkpt><trkpt lat="45.81088645283875" lon="1.0630864471909136"><ele>357.0</ele><time>2026-04-06T15:56:17Z</time></trkpt><trkpt lat="45.81097138146465" lon="1.0628735383969397"><ele>359.0</ele><time>2026-04-06T15:56:18Z</time></trkpt><trkpt lat="45.81106383317103" lon="1.062666090147622"><ele>361.0</ele><time>2026-04-06T15:56:19Z</time></trkpt><trkpt lat="45.81116411736056" lon="1.0624667679758926"><ele>364.0</ele><time>2026-04-06T15:56:20Z</time></trkpt><trkpt lat="45.8113001763919" lon="1.0623085607771467"><ele>367.0</ele><time>2026-04-06T15:56:21Z</time></trkpt><trkpt lat="45.811436420346375" lon="1.0621603395127928"><ele>370.0</ele><time>2026-04-06T15:56:22Z</time></trkpt><trkpt lat="45.81158420023609" lon="1.0620271615244279"><ele>370.0</ele><time>2026-04-06T15:56:23Z</time></trkpt><trkpt lat="45.81173624216881" lon="1.0619045094945117"><ele>370.0</ele><time>2026-04-06T15:56:24Z</time></trkpt><trkpt lat="45.81190057510593" lon="1.061806967146872"><ele>370.0</ele><time>2026-04-06T15:56:25Z</time></trkpt><trkpt lat="45.81207016035342" lon="1.061726721741577"><ele>368.66666666666663</ele><time>2026-04-06T15:56:26Z</time></trkpt><trkpt lat="45.81222973771409" lon="1.0616466857799707"><ele>367.3333333333333</ele><time>2026-04-06T15:56:27Z</time></trkpt><trkpt lat="45.812411344390036" lon="1.0615639636089054"><ele>366.0</ele><time>2026-04-06T15:56:28Z</time></trkpt><trkpt lat="45.81258104903105" lon="1.0614730305643623"><ele>368.0</ele><time>2026-04-06T15:56:29Z</time></trkpt><trkpt lat="45.81274280115507" lon="1.0613862133538388"><ele>370.0</ele><time>2026-04-06T15:56:30Z</time></trkpt><trkpt lat="45.81289754391754" lon="1.0612917416779954"><ele>372.0</ele><time>2026-04-06T15:56:31Z</time></trkpt><trkpt lat="45.813047945703204" lon="1.0611746707385934"><ele>372.0</ele><time>2026-04-06T15:56:32Z</time></trkpt><trkpt lat="45.81318990216721" lon="1.061044137306831"><ele>372.0</ele><time>2026-04-06T15:56:33Z</time></trkpt><trkpt lat="45.81332825099787" lon="1.0608949948796842"><ele>372.0</ele><time>2026-04-06T15:56:34Z</time></trkpt><trkpt lat="45.81345077129468" lon="1.0607411795562416"><ele>372.0</ele><time>2026-04-06T15:56:35Z</time></trkpt><trkpt lat="45.813559401920415" lon="1.0606106012474301"><ele>372.0</ele><time>2026-04-06T15:56:36Z</time></trkpt><trkpt lat="45.81365499441273" lon="1.0604905513613807"><ele>372.0</ele><time>2026-04-06T15:56:37Z</time></trkpt><trkpt lat="45.813724246103064" lon="1.0603769847130107"><ele>372.0</ele><time>2026-04-06T15:56:38Z</time></trkpt><trkpt lat="45.813784908924006" lon="1.060302620556277"><ele>372.0</ele><time>2026-04-06T15:56:39Z</time></trkpt><trkpt lat="45.81386643093612" lon="1.060227989057393"><ele>372.0</ele><time>2026-04-06T15:56:41Z</time></trkpt><trkpt lat="45.81391588493963" lon="1.0601658866738175"><ele>372.0</ele><time>2026-04-06T15:58:32Z</time></trkpt><trkpt lat="45.81396351829355" lon="1.0600407641454814"><ele>372.0</ele><time>2026-04-06T15:58:35.001Z</time></trkpt><trkpt lat="45.81401845658466" lon="1.0599519637600465"><ele>372.0</ele><time>2026-04-06T15:58:36.001Z</time></trkpt><trkpt lat="45.8140774865779" lon="1.059857053474477"><ele>372.0</ele><time>2026-04-06T15:58:37.001Z</time></trkpt><trkpt lat="45.81413772743074" lon="1.0597661385828283"><ele>372.0</ele><time>2026-04-06T15:58:38.001Z</time></trkpt><trkpt lat="45.814213378015914" lon="1.0596588756327983"><ele>372.0</ele><time>2026-04-06T15:58:39.001Z</time></trkpt><trkpt lat="45.814296466605995" lon="1.0595455954945374"><ele>372.0</ele><time>2026-04-06T15:58:40.001Z</time></trkpt><trkpt lat="45.814395184269095" lon="1.0593977689516496"><ele>372.0</ele><time>2026-04-06T15:58:41.001Z</time></trkpt><trkpt lat="45.81450771637568" lon="1.0592303126462004"><ele>371.6666666666667</ele><time>2026-04-06T15:58:42.001Z</time></trkpt><trkpt lat="45.81462977952981" lon="1.059051164426653"><ele>371.33333333333337</ele><time>2026-04-06T15:58:43.001Z</time></trkpt><trkpt lat="45.814749055605176" lon="1.0588702218570252"><ele>371.0</ele><time>2026-04-06T15:58:44.001Z</time></trkpt><trkpt lat="45.814874632767776" lon="1.058683401959222"><ele>371.0</ele><time>2026-04-06T15:58:45.001Z</time></trkpt><trkpt lat="45.81500384153131" lon="1.058490314557259"><ele>371.0</ele><time>2026-04-06T15:58:46.001Z</time></trkpt><trkpt lat="45.81513626772454" lon="1.0582950503450177"><ele>371.0</ele><time>2026-04-06T15:58:47.001Z</time></trkpt><trkpt lat="45.815271830980976" lon="1.0580969733702978"><ele>372.0</ele><time>2026-04-06T15:58:48.001Z</time></trkpt><trkpt lat="45.81540567495475" lon="1.057903988347449"><ele>373.0</ele><time>2026-04-06T15:58:49.001Z</time></trkpt><trkpt lat="45.815538477848214" lon="1.057711771729741"><ele>374.0</ele><time>2026-04-06T15:58:50.001Z</time></trkpt><trkpt lat="45.81566684341135" lon="1.057525783024758"><ele>373.33333333333337</ele><time>2026-04-06T15:58:51.001Z</time></trkpt><trkpt lat="45.81579409304746" lon="1.0573392983055305"><ele>372.6666666666667</ele><time>2026-04-06T15:58:52.001Z</time></trkpt><trkpt lat="45.815914259806796" lon="1.0571634592142525"><ele>372.0</ele><time>2026-04-06T15:58:53.001Z</time></trkpt><trkpt lat="45.816037507120264" lon="1.0569829483257522"><ele>372.0</ele><time>2026-04-06T15:58:54.001Z</time></trkpt><trkpt lat="45.81616228002396" lon="1.0568016035114691"><ele>372.0</ele><time>2026-04-06T15:58:55.001Z</time></trkpt><trkpt lat="45.81628645399705" lon="1.056623273625373"><ele>372.0</ele><time>2026-04-06T15:58:56.001Z</time></trkpt><trkpt lat="45.81641017349804" lon="1.056434878992381"><ele>372.0</ele><time>2026-04-06T15:58:57.001Z</time></trkpt><trkpt lat="45.81654611726312" lon="1.0562639520408539"><ele>372.0</ele><time>2026-04-06T15:58:58.001Z</time></trkpt><trkpt lat="45.816660327497175" lon="1.056065794147276"><ele>372.0</ele><time>2026-04-06T15:58:59.001Z</time></trkpt><trkpt lat="45.81679154519937" lon="1.0558800779755935"><ele>372.0</ele><time>2026-04-06T15:59:00.001Z</time></trkpt><trkpt lat="45.81691601299363" lon="1.0557008301340582"><ele>372.0</ele><time>2026-04-06T15:59:01.001Z</time></trkpt><trkpt lat="45.81704205459464" lon="1.0555143357659806"><ele>372.0</ele><time>2026-04-06T15:59:02.001Z</time></trkpt><trkpt lat="45.81716754803346" lon="1.0553311326385542"><ele>372.0</ele><time>2026-04-06T15:59:03.001Z</time></trkpt><trkpt lat="45.817290051260144" lon="1.0551533151199646"><ele>372.0</ele><time>2026-04-06T15:59:04.001Z</time></trkpt><trkpt lat="45.81740713747482" lon="1.0549810046555652"><ele>372.0</ele><time>2026-04-06T15:59:05.001Z</time></trkpt><trkpt lat="45.81751450922619" lon="1.0548175372992175"><ele>372.0</ele><time>2026-04-06T15:59:06.001Z</time></trkpt><trkpt lat="45.81762024948928" lon="1.0546584761554896"><ele>372.0</ele><time>2026-04-06T15:59:07.001Z</time></trkpt><trkpt lat="45.81772187862672" lon="1.0545079432881277"><ele>372.0</ele><time>2026-04-06T15:59:08.001Z</time></trkpt><trkpt lat="45.817820961214096" lon="1.0543744323662942"><ele>372.0</ele><time>2026-04-06T15:59:09.001Z</time></trkpt><trkpt lat="45.81789320302838" lon="1.0542672380314584"><ele>372.0</ele><time>2026-04-06T15:59:10.001Z</time></trkpt><trkpt lat="45.817949033851704" lon="1.0541900411909664"><ele>372.0</ele><time>2026-04-06T15:59:11.001Z</time></trkpt><trkpt lat="45.8180326810364" lon="1.0540712756729158"><ele>372.0</ele><time>2026-04-06T15:59:13.001Z</time></trkpt><trkpt lat="45.81810615137751" lon="1.0539573110324902"><ele>372.0</ele><time>2026-04-06T15:59:15.001Z</time></trkpt><trkpt lat="45.818033807149334" lon="1.0537682032291642"><ele>372.0</ele><time>2026-04-06T15:59:16.001Z</time></trkpt><trkpt lat="45.817977170650266" lon="1.0536134508121868"><ele>372.0</ele><time>2026-04-06T15:59:17.001Z</time></trkpt><trkpt lat="45.81791504535313" lon="1.0534188987578035"><ele>372.0</ele><time>2026-04-06T15:59:18.001Z</time></trkpt><trkpt lat="45.81785811200339" lon="1.053220105879673"><ele>372.0</ele><time>2026-04-06T15:59:19.001Z</time></trkpt><trkpt lat="45.817816685502386" lon="1.0530467416730018"><ele>371.8</ele><time>2026-04-06T15:59:20.001Z</time></trkpt><trkpt lat="45.817785875717064" lon="1.0529005784532754"><ele>371.6</ele><time>2026-04-06T15:59:21.001Z</time></trkpt><trkpt lat="45.817755422570656" lon="1.0527505203130099"><ele>371.40000000000003</ele><time>2026-04-06T15:59:22.001Z</time></trkpt><trkpt lat="45.817725069226604" lon="1.0526018012157512"><ele>371.20000000000005</ele><time>2026-04-06T15:59:23.001Z</time></trkpt><trkpt lat="45.817701400717816" lon="1.0524626239590105"><ele>371.0</ele><time>2026-04-06T15:59:24.001Z</time></trkpt><trkpt lat="45.81767965366971" lon="1.0523260955599303"><ele>371.0</ele><time>2026-04-06T15:59:25.001Z</time></trkpt><trkpt lat="45.81765624330488" lon="1.0521915517157268"><ele>371.0</ele><time>2026-04-06T15:59:26.001Z</time></trkpt><trkpt lat="45.8176313522755" lon="1.0520688108695313"><ele>371.0</ele><time>2026-04-06T15:59:27.001Z</time></trkpt><trkpt lat="45.8176049211002" lon="1.05195465226278"><ele>371.0</ele><time>2026-04-06T15:59:28.001Z</time></trkpt><trkpt lat="45.81757688291448" lon="1.0518513777984237"><ele>371.0</ele><time>2026-04-06T15:59:29.001Z</time></trkpt><trkpt lat="45.81754378938431" lon="1.0517536298467947"><ele>371.0</ele><time>2026-04-06T15:59:30.001Z</time></trkpt><trkpt lat="45.81750628143878" lon="1.0516692927075189"><ele>370.83333333333337</ele><time>2026-04-06T15:59:31.001Z</time></trkpt><trkpt lat="45.81743436877886" lon="1.0515691067965438"><ele>370.6666666666667</ele><time>2026-04-06T15:59:33.001Z</time></trkpt><trkpt lat="45.817346340711566" lon="1.0515641607442943"><ele>370.5</ele><time>2026-04-06T15:59:35.001Z</time></trkpt><trkpt lat="45.81728456292271" lon="1.0516054521702312"><ele>370.3333333333333</ele><time>2026-04-06T15:59:36.001Z</time></trkpt><trkpt lat="45.817217815517836" lon="1.0516725103445532"><ele>370.16666666666663</ele><time>2026-04-06T15:59:37.001Z</time></trkpt><trkpt lat="45.81715199351727" lon="1.051729654819517"><ele>370.0</ele><time>2026-04-06T15:59:38.001Z</time></trkpt><trkpt lat="45.81707975317624" lon="1.0517857021224108"><ele>370.3333333333333</ele><time>2026-04-06T15:59:39.001Z</time></trkpt><trkpt lat="45.817010358165696" lon="1.051839527861659"><ele>370.66666666666663</ele><time>2026-04-06T15:59:40.001Z</time></trkpt><trkpt lat="45.81694163463438" lon="1.051892552129055"><ele>371.0</ele><time>2026-04-06T15:59:41.001Z</time></trkpt><trkpt lat="45.816876965898565" lon="1.0519363187006612"><ele>371.3333333333333</ele><time>2026-04-06T15:59:42.001Z</time></trkpt><trkpt lat="45.81680499777888" lon="1.0519909441752926"><ele>371.6666666666667</ele><time>2026-04-06T15:59:43.001Z</time></trkpt><trkpt lat="45.81672222959997" lon="1.0520560084387667"><ele>372.0</ele><time>2026-04-06T15:59:44.001Z</time></trkpt><trkpt lat="45.81663493799905" lon="1.052128129546157"><ele>372.0</ele><time>2026-04-06T15:59:45.001Z</time></trkpt><trkpt lat="45.81654034207043" lon="1.0521863820811987"><ele>372.0</ele><time>2026-04-06T15:59:46.001Z</time></trkpt><trkpt lat="45.81644951334403" lon="1.0522096443244446"><ele>372.0</ele><time>2026-04-06T15:59:47.002Z</time></trkpt><trkpt lat="45.816355714234945" lon="1.0522618353434805"><ele>372.0</ele><time>2026-04-06T15:59:48.002Z</time></trkpt><trkpt lat="45.81624781286391" lon="1.052292124014819"><ele>372.0</ele><time>2026-04-06T15:59:49Z</time></trkpt><trkpt lat="45.816139411962105" lon="1.0523203094290163"><ele>372.0</ele><time>2026-04-06T15:59:50Z</time></trkpt><trkpt lat="45.81601941293402" lon="1.052339711378735"><ele>372.0</ele><time>2026-04-06T15:59:51Z</time></trkpt><trkpt lat="45.81590224823548" lon="1.052363391316351"><ele>372.0</ele><time>2026-04-06T15:59:52Z</time></trkpt><trkpt lat="45.81578193857469" lon="1.0523785731603745"><ele>372.0</ele><time>2026-04-06T15:59:53Z</time></trkpt><trkpt lat="45.81566901155454" lon="1.052400848673089"><ele>372.25</ele><time>2026-04-06T15:59:54Z</time></trkpt><trkpt lat="45.815563376370896" lon="1.0523934934474717"><ele>372.5</ele><time>2026-04-06T15:59:55Z</time></trkpt><trkpt lat="45.81542887766335" lon="1.0524343066575543"><ele>372.75</ele><time>2026-04-06T15:59:56Z</time></trkpt><trkpt lat="45.81531634116058" lon="1.0524575095105821"><ele>373.0</ele><time>2026-04-06T15:59:57Z</time></trkpt><trkpt lat="45.815222677091796" lon="1.052483644649739"><ele>373.0</ele><time>2026-04-06T15:59:58Z</time></trkpt><trkpt lat="45.81512997467409" lon="1.0525026345355706"><ele>373.0</ele><time>2026-04-06T15:59:59Z</time></trkpt><trkpt lat="45.81504910052858" lon="1.052511565504818"><ele>373.0</ele><time>2026-04-06T16:00:00Z</time></trkpt><trkpt lat="45.81495943121927" lon="1.052524124649462"><ele>373.0</ele><time>2026-04-06T16:00:02Z</time></trkpt><trkpt lat="45.81488063464019" lon="1.0525444343014445"><ele>373.0</ele><time>2026-04-06T16:00:04Z</time></trkpt><trkpt lat="45.814781694816574" lon="1.0525574550917633"><ele>373.0</ele><time>2026-04-06T16:00:06Z</time></trkpt><trkpt lat="45.81489492940073" lon="1.0525607585630072"><ele>373.0</ele><time>2026-04-06T16:00:21Z</time></trkpt><trkpt lat="45.81498450760482" lon="1.0525670721285634"><ele>373.0</ele><time>2026-04-06T16:00:22Z</time></trkpt><trkpt lat="45.81507739898129" lon="1.0525383502473045"><ele>373.0</ele><time>2026-04-06T16:00:23Z</time></trkpt><trkpt lat="45.815165062954755" lon="1.0525167216200697"><ele>373.0</ele><time>2026-04-06T16:00:24Z</time></trkpt><trkpt lat="45.81527582127263" lon="1.052499424727859"><ele>373.0</ele><time>2026-04-06T16:00:25Z</time></trkpt><trkpt lat="45.81540009921777" lon="1.0525172443538489"><ele>373.0</ele><time>2026-04-06T16:00:26Z</time></trkpt><trkpt lat="45.81549512566524" lon="1.052498658376452"><ele>373.0</ele><time>2026-04-06T16:00:27Z</time></trkpt><trkpt lat="45.815593442066245" lon="1.0524779432214773"><ele>373.0</ele><time>2026-04-06T16:00:28Z</time></trkpt><trkpt lat="45.81568385586403" lon="1.0524588931610233"><ele>373.0</ele><time>2026-04-06T16:00:29Z</time></trkpt><trkpt lat="45.81576702034758" lon="1.052441370516399"><ele>373.0</ele><time>2026-04-06T16:00:30Z</time></trkpt><trkpt lat="45.815860244962515" lon="1.0523999274815938"><ele>372.79999999999995</ele><time>2026-04-06T16:00:31Z</time></trkpt><trkpt lat="45.81596289562007" lon="1.0523848193154195"><ele>372.6</ele><time>2026-04-06T16:00:32Z</time></trkpt><trkpt lat="45.81605533609214" lon="1.0523632313003313"><ele>372.4</ele><time>2026-04-06T16:00:33Z</time></trkpt><trkpt lat="45.8161540870975" lon="1.052348347479822"><ele>372.20000000000005</ele><time>2026-04-06T16:00:34Z</time></trkpt><trkpt lat="45.81625005088728" lon="1.0523269278957117"><ele>372.0</ele><time>2026-04-06T16:00:35Z</time></trkpt><trkpt lat="45.81634650356923" lon="1.0523035702077312"><ele>372.0</ele><time>2026-04-06T16:00:36Z</time></trkpt><trkpt lat="45.81643299016313" lon="1.0522761478155418"><ele>372.0</ele><time>2026-04-06T16:00:37.001Z</time></trkpt><trkpt lat="45.816518616632194" lon="1.0522253185976478"><ele>372.0</ele><time>2026-04-06T16:00:38.001Z</time></trkpt><trkpt lat="45.81661196694204" lon="1.0521595247284066"><ele>372.0</ele><time>2026-04-06T16:00:39.001Z</time></trkpt><trkpt lat="45.81671088270973" lon="1.052087766993442"><ele>372.0</ele><time>2026-04-06T16:00:40.001Z</time></trkpt><trkpt lat="45.81680432551465" lon="1.0520173476334063"><ele>372.1666666666667</ele><time>2026-04-06T16:00:41.001Z</time></trkpt><trkpt lat="45.81688923302494" lon="1.0519459388501151"><ele>372.3333333333333</ele><time>2026-04-06T16:00:42.001Z</time></trkpt><trkpt lat="45.81698477430847" lon="1.051903530823892"><ele>372.5</ele><time>2026-04-06T16:00:43.001Z</time></trkpt><trkpt lat="45.81706820898246" lon="1.0518441420492826"><ele>372.66666666666663</ele><time>2026-04-06T16:00:44.001Z</time></trkpt><trkpt lat="45.8171413584615" lon="1.0517896571563408"><ele>372.8333333333333</ele><time>2026-04-06T16:00:45.001Z</time></trkpt><trkpt lat="45.81720407538183" lon="1.0517397011010456"><ele>373.0</ele><time>2026-04-06T16:00:46.001Z</time></trkpt><trkpt lat="45.817256863217445" lon="1.0516823025206836"><ele>373.0</ele><time>2026-04-06T16:00:47.001Z</time></trkpt><trkpt lat="45.81733588845604" lon="1.051616738856167"><ele>373.0</ele><time>2026-04-06T16:00:49.001Z</time></trkpt><trkpt lat="45.817428305467956" lon="1.0516291972518523"><ele>373.0</ele><time>2026-04-06T16:00:51.001Z</time></trkpt><trkpt lat="45.8174733484435" lon="1.051520808286926"><ele>373.0</ele><time>2026-04-06T16:00:56.001Z</time></trkpt><trkpt lat="45.81723969323234" lon="1.0516624629449152"><ele>373.0</ele><time>2026-04-06T16:00:59.001Z</time></trkpt><trkpt lat="45.81713917349702" lon="1.051737176338094"><ele>373.0</ele><time>2026-04-06T16:01:00.001Z</time></trkpt><trkpt lat="45.81703222665656" lon="1.0518174753930942"><ele>373.0</ele><time>2026-04-06T16:01:01.001Z</time></trkpt><trkpt lat="45.81691771606793" lon="1.0519145977519413"><ele>373.0</ele><time>2026-04-06T16:01:02.001Z</time></trkpt><trkpt lat="45.816790119612754" lon="1.0520133805607945"><ele>372.75</ele><time>2026-04-06T16:01:03.001Z</time></trkpt><trkpt lat="45.81665679833309" lon="1.0521098018964037"><ele>372.5</ele><time>2026-04-06T16:01:04.001Z</time></trkpt><trkpt lat="45.81653715623575" lon="1.0521965689763035"><ele>372.25</ele><time>2026-04-06T16:01:05.001Z</time></trkpt><trkpt lat="45.816411517278205" lon="1.0522647811398949"><ele>372.0</ele><time>2026-04-06T16:01:06.001Z</time></trkpt><trkpt lat="45.816268993193475" lon="1.0523084822952686"><ele>372.0</ele><time>2026-04-06T16:01:07.001Z</time></trkpt><trkpt lat="45.81609422851944" lon="1.052341623980637"><ele>372.0</ele><time>2026-04-06T16:01:08.001Z</time></trkpt><trkpt lat="45.81591951670042" lon="1.05236871203134"><ele>372.0</ele><time>2026-04-06T16:01:09.001Z</time></trkpt><trkpt lat="45.815752696182244" lon="1.0523992859234395"><ele>372.3333333333333</ele><time>2026-04-06T16:01:10.001Z</time></trkpt><trkpt lat="45.815590129066685" lon="1.0524258252868692"><ele>372.66666666666663</ele><time>2026-04-06T16:01:11.001Z</time></trkpt><trkpt lat="45.81542437436114" lon="1.0524532133347748"><ele>373.0</ele><time>2026-04-06T16:01:12.001Z</time></trkpt><trkpt lat="45.815249184296846" lon="1.0524917163021728"><ele>373.0</ele><time>2026-04-06T16:01:13.001Z</time></trkpt><trkpt lat="45.815079881995935" lon="1.0525208366390602"><ele>373.0</ele><time>2026-04-06T16:01:14.001Z</time></trkpt><trkpt lat="45.81490288428907" lon="1.052554519244591"><ele>373.0</ele><time>2026-04-06T16:01:15.001Z</time></trkpt><trkpt lat="45.8147285394169" lon="1.0525874706376945"><ele>373.0</ele><time>2026-04-06T16:01:16.001Z</time></trkpt><trkpt lat="45.814554860789684" lon="1.0526185230119696"><ele>373.0</ele><time>2026-04-06T16:01:17.001Z</time></trkpt><trkpt lat="45.81438137477301" lon="1.0526544427585502"><ele>373.0</ele><time>2026-04-06T16:01:18.001Z</time></trkpt><trkpt lat="45.81420192699561" lon="1.0526863230915302"><ele>374.3333333333333</ele><time>2026-04-06T16:01:19.001Z</time></trkpt><trkpt lat="45.814024836669105" lon="1.0527197831667465"><ele>375.6666666666667</ele><time>2026-04-06T16:01:20.001Z</time></trkpt><trkpt lat="45.813851307232476" lon="1.0527555217798623"><ele>377.0</ele><time>2026-04-06T16:01:21.001Z</time></trkpt><trkpt lat="45.81368603672406" lon="1.0527881448789809"><ele>377.0</ele><time>2026-04-06T16:01:22.001Z</time></trkpt><trkpt lat="45.81353410022643" lon="1.0528244326394471"><ele>377.0</ele><time>2026-04-06T16:01:23.001Z</time></trkpt><trkpt lat="45.81338388575685" lon="1.0528619865830136"><ele>377.0</ele><time>2026-04-06T16:01:24.001Z</time></trkpt><trkpt lat="45.813234277851215" lon="1.0528896143166697"><ele>377.25</ele><time>2026-04-06T16:01:25.001Z</time></trkpt><trkpt lat="45.81309155510893" lon="1.0529190616230446"><ele>377.5</ele><time>2026-04-06T16:01:26.001Z</time></trkpt><trkpt lat="45.81294905855739" lon="1.0529548016381503"><ele>377.75</ele><time>2026-04-06T16:01:27.001Z</time></trkpt><trkpt lat="45.812813678323664" lon="1.0529818931284614"><ele>378.0</ele><time>2026-04-06T16:01:28.001Z</time></trkpt><trkpt lat="45.81267841937843" lon="1.0530015394984704"><ele>378.75</ele><time>2026-04-06T16:01:29.001Z</time></trkpt><trkpt lat="45.81254392899915" lon="1.053015055460845"><ele>379.5</ele><time>2026-04-06T16:01:30.001Z</time></trkpt><trkpt lat="45.812424534557636" lon="1.053025133171941"><ele>380.25</ele><time>2026-04-06T16:01:31.001Z</time></trkpt><trkpt lat="45.8123146187617" lon="1.0530233371065267"><ele>381.0</ele><time>2026-04-06T16:01:32.001Z</time></trkpt><trkpt lat="45.812216628719504" lon="1.05302211259667"><ele>381.0</ele><time>2026-04-06T16:01:33.001Z</time></trkpt><trkpt lat="45.81212131868021" lon="1.053008695841536"><ele>381.0</ele><time>2026-04-06T16:01:34.001Z</time></trkpt><trkpt lat="45.81203905999069" lon="1.0529952794656623"><ele>381.0</ele><time>2026-04-06T16:01:35.001Z</time></trkpt><trkpt lat="45.81196209762237" lon="1.0529841187642333"><ele>381.0</ele><time>2026-04-06T16:01:36.001Z</time></trkpt><trkpt lat="45.811892134872686" lon="1.052972836026648"><ele>381.0</ele><time>2026-04-06T16:01:37.001Z</time></trkpt><trkpt lat="45.81180831155635" lon="1.0529116134366687"><ele>381.0</ele><time>2026-04-06T16:01:39.001Z</time></trkpt><trkpt lat="45.811749293989145" lon="1.0527209604852061"><ele>381.25</ele><time>2026-04-06T16:01:41.001Z</time></trkpt><trkpt lat="45.81171582890062" lon="1.0525557719328187"><ele>381.5</ele><time>2026-04-06T16:01:42.001Z</time></trkpt><trkpt lat="45.81168900974054" lon="1.0523553935333585"><ele>381.75</ele><time>2026-04-06T16:01:43.001Z</time></trkpt><trkpt lat="45.81162995399234" lon="1.052174516497279"><ele>382.0</ele><time>2026-04-06T16:01:44.001Z</time></trkpt><trkpt lat="45.81158625477349" lon="1.051980545746403"><ele>382.0</ele><time>2026-04-06T16:01:45.001Z</time></trkpt><trkpt lat="45.81154030338446" lon="1.0517796112639195"><ele>382.0</ele><time>2026-04-06T16:01:46.001Z</time></trkpt><trkpt lat="45.811495977485194" lon="1.0515963003791144"><ele>382.0</ele><time>2026-04-06T16:01:47.001Z</time></trkpt><trkpt lat="45.81145876197262" lon="1.0514281791584792"><ele>382.0</ele><time>2026-04-06T16:01:48.001Z</time></trkpt><trkpt lat="45.81142205199089" lon="1.0512573789553736"><ele>381.6</ele><time>2026-04-06T16:01:49.001Z</time></trkpt><trkpt lat="45.811372194510106" lon="1.0511089709877253"><ele>381.20000000000005</ele><time>2026-04-06T16:01:50.001Z</time></trkpt><trkpt lat="45.81135598362579" lon="1.0509558946269817"><ele>380.8</ele><time>2026-04-06T16:01:51.001Z</time></trkpt><trkpt lat="45.811322920426115" lon="1.050841839223818"><ele>380.4</ele><time>2026-04-06T16:01:52.001Z</time></trkpt><trkpt lat="45.811310560646966" lon="1.0507257858011239"><ele>380.0</ele><time>2026-04-06T16:01:53.001Z</time></trkpt><trkpt lat="45.81131025601329" lon="1.0505992205203734"><ele>378.75</ele><time>2026-04-06T16:01:54.001Z</time></trkpt><trkpt lat="45.811288020528096" lon="1.0504911549271865"><ele>377.5</ele><time>2026-04-06T16:01:55Z</time></trkpt><trkpt lat="45.81141807059459" lon="1.0503689777611822"><ele>376.25</ele><time>2026-04-06T16:01:56Z</time></trkpt><trkpt lat="45.81150017562241" lon="1.0502660268338178"><ele>375.0</ele><time>2026-04-06T16:01:57Z</time></trkpt><trkpt lat="45.811591542979734" lon="1.0501789898155505"><ele>375.0</ele><time>2026-04-06T16:01:58Z</time></trkpt><trkpt lat="45.81168182154987" lon="1.0501100279854025"><ele>375.0</ele><time>2026-04-06T16:01:59Z</time></trkpt><trkpt lat="45.81178020310032" lon="1.0500158288715087"><ele>375.0</ele><time>2026-04-06T16:02:00Z</time></trkpt><trkpt lat="45.811887787373685" lon="1.0499390907056023"><ele>375.0</ele><time>2026-04-06T16:02:01Z</time></trkpt><trkpt lat="45.81202570010821" lon="1.0498515532059265"><ele>373.5</ele><time>2026-04-06T16:02:02Z</time></trkpt><trkpt lat="45.812155082829356" lon="1.049755139454102"><ele>372.0</ele><time>2026-04-06T16:02:03Z</time></trkpt><trkpt lat="45.81229385131617" lon="1.0496638785183534"><ele>370.5</ele><time>2026-04-06T16:02:04Z</time></trkpt><trkpt lat="45.81243043801698" lon="1.0495727251455214"><ele>369.0</ele><time>2026-04-06T16:02:05Z</time></trkpt><trkpt lat="45.812569998731824" lon="1.049471262228139"><ele>368.6666666666667</ele><time>2026-04-06T16:02:06Z</time></trkpt><trkpt lat="45.81271501912728" lon="1.049368606201518"><ele>368.33333333333337</ele><time>2026-04-06T16:02:07Z</time></trkpt><trkpt lat="45.81286148804665" lon="1.049271171586364"><ele>368.0</ele><time>2026-04-06T16:02:08Z</time></trkpt><trkpt lat="45.813004520091425" lon="1.049174060202518"><ele>366.0</ele><time>2026-04-06T16:02:09Z</time></trkpt><trkpt lat="45.81314792346438" lon="1.0490714252556164"><ele>364.0</ele><time>2026-04-06T16:02:10Z</time></trkpt><trkpt lat="45.81328724062168" lon="1.048971900063472"><ele>362.0</ele><time>2026-04-06T16:02:11Z</time></trkpt><trkpt lat="45.81342402050706" lon="1.0488793740250788"><ele>362.0</ele><time>2026-04-06T16:02:12Z</time></trkpt><trkpt lat="45.81354966293245" lon="1.0487884524511033"><ele>362.0</ele><time>2026-04-06T16:02:13Z</time></trkpt><trkpt lat="45.813666278649606" lon="1.0486939881141184"><ele>362.0</ele><time>2026-04-06T16:02:14Z</time></trkpt><trkpt lat="45.81377630594784" lon="1.0485740370875658"><ele>362.0</ele><time>2026-04-06T16:02:15Z</time></trkpt><trkpt lat="45.81387135240639" lon="1.048426694391138"><ele>361.25</ele><time>2026-04-06T16:02:16Z</time></trkpt><trkpt lat="45.81396297082923" lon="1.0482713013735814"><ele>360.5</ele><time>2026-04-06T16:02:17Z</time></trkpt><trkpt lat="45.814048866039435" lon="1.0481119506153207"><ele>359.75</ele><time>2026-04-06T16:02:18Z</time></trkpt><trkpt lat="45.81413485280232" lon="1.0479539044652413"><ele>359.0</ele><time>2026-04-06T16:02:19Z</time></trkpt><trkpt lat="45.8142252401365" lon="1.0477985335210143"><ele>359.0</ele><time>2026-04-06T16:02:20Z</time></trkpt><trkpt lat="45.814317172691524" lon="1.0476415847278957"><ele>359.0</ele><time>2026-04-06T16:02:21Z</time></trkpt><trkpt lat="45.814410797438164" lon="1.0474796482672002"><ele>359.0</ele><time>2026-04-06T16:02:22Z</time></trkpt><trkpt lat="45.814502507698386" lon="1.0473199073021322"><ele>359.0</ele><time>2026-04-06T16:02:23Z</time></trkpt><trkpt lat="45.81459792235215" lon="1.0471575716950376"><ele>358.0</ele><time>2026-04-06T16:02:24Z</time></trkpt><trkpt lat="45.81469383291566" lon="1.0469976908988181"><ele>357.0</ele><time>2026-04-06T16:02:25Z</time></trkpt><trkpt lat="45.814787835415295" lon="1.0468310022458156"><ele>356.0</ele><time>2026-04-06T16:02:26Z</time></trkpt><trkpt lat="45.814884118511465" lon="1.0466700614811217"><ele>355.0</ele><time>2026-04-06T16:02:27Z</time></trkpt><trkpt lat="45.81496876531283" lon="1.0465120836396187"><ele>354.75</ele><time>2026-04-06T16:02:28Z</time></trkpt><trkpt lat="45.8150592436177" lon="1.0463735463590529"><ele>354.5</ele><time>2026-04-06T16:02:29Z</time></trkpt><trkpt lat="45.81513193669622" lon="1.0462099042809563"><ele>354.25</ele><time>2026-04-06T16:02:30Z</time></trkpt><trkpt lat="45.815209541594456" lon="1.0460638335586767"><ele>354.0</ele><time>2026-04-06T16:02:31Z</time></trkpt><trkpt lat="45.815299723695404" lon="1.0459134280407238"><ele>352.0</ele><time>2026-04-06T16:02:32Z</time></trkpt><trkpt lat="45.815381032247444" lon="1.0457369774630527"><ele>350.0</ele><time>2026-04-06T16:02:33Z</time></trkpt><trkpt lat="45.81547174049514" lon="1.0455652458767413"><ele>348.0</ele><time>2026-04-06T16:02:34Z</time></trkpt><trkpt lat="45.815556924279306" lon="1.0453970927733314"><ele>346.0</ele><time>2026-04-06T16:02:35Z</time></trkpt><trkpt lat="45.81563604733394" lon="1.045237681753424"><ele>346.0</ele><time>2026-04-06T16:02:36Z</time></trkpt><trkpt lat="45.815716410676885" lon="1.0450726747596228"><ele>346.0</ele><time>2026-04-06T16:02:37Z</time></trkpt><trkpt lat="45.815800881472214" lon="1.0449002338284639"><ele>346.0</ele><time>2026-04-06T16:02:38Z</time></trkpt><trkpt lat="45.81588793819548" lon="1.0447223889158919"><ele>346.0</ele><time>2026-04-06T16:02:39Z</time></trkpt><trkpt lat="45.8159742062034" lon="1.0445532380581026"><ele>344.25</ele><time>2026-04-06T16:02:40Z</time></trkpt><trkpt lat="45.8160549059461" lon="1.0443881618437294"><ele>342.5</ele><time>2026-04-06T16:02:41Z</time></trkpt><trkpt lat="45.81614075483501" lon="1.0442130230964963"><ele>340.75</ele><time>2026-04-06T16:02:42Z</time></trkpt><trkpt lat="45.81623151600131" lon="1.0440302977860307"><ele>339.0</ele><time>2026-04-06T16:02:43Z</time></trkpt><trkpt lat="45.81632812858086" lon="1.0438470878079271"><ele>338.3333333333333</ele><time>2026-04-06T16:02:44Z</time></trkpt><trkpt lat="45.816426391902354" lon="1.0436563733441997"><ele>337.66666666666663</ele><time>2026-04-06T16:02:45Z</time></trkpt><trkpt lat="45.81653035688389" lon="1.0434583099794559"><ele>337.0</ele><time>2026-04-06T16:02:46Z</time></trkpt><trkpt lat="45.81662958211917" lon="1.0432538727918657"><ele>337.0</ele><time>2026-04-06T16:02:47Z</time></trkpt><trkpt lat="45.81673114161457" lon="1.0430459845263937"><ele>337.0</ele><time>2026-04-06T16:02:48Z</time></trkpt><trkpt lat="45.816830107230736" lon="1.0428431449276283"><ele>337.0</ele><time>2026-04-06T16:02:49Z</time></trkpt><trkpt lat="45.81693147026848" lon="1.0426309216060863"><ele>337.66666666666663</ele><time>2026-04-06T16:02:50Z</time></trkpt><trkpt lat="45.81701876297754" lon="1.042408922492967"><ele>338.3333333333333</ele><time>2026-04-06T16:02:51.001Z</time></trkpt><trkpt lat="45.817092846059936" lon="1.0421834957782092"><ele>339.0</ele><time>2026-04-06T16:02:52.001Z</time></trkpt><trkpt lat="45.8171630602722" lon="1.0419655404471153"><ele>339.0</ele><time>2026-04-06T16:02:53.001Z</time></trkpt><trkpt lat="45.817231376322894" lon="1.0417714075942022"><ele>339.0</ele><time>2026-04-06T16:02:54.001Z</time></trkpt><trkpt lat="45.81729535404647" lon="1.0415838086081846"><ele>339.0</ele><time>2026-04-06T16:02:55.001Z</time></trkpt><trkpt lat="45.81734800880326" lon="1.041415427476442"><ele>339.0</ele><time>2026-04-06T16:02:56.001Z</time></trkpt><trkpt lat="45.81740377338016" lon="1.0412537688894679"><ele>338.4</ele><time>2026-04-06T16:02:57.001Z</time></trkpt><trkpt lat="45.81744757929991" lon="1.0411267340683052"><ele>337.79999999999995</ele><time>2026-04-06T16:02:58.001Z</time></trkpt><trkpt lat="45.81747475373145" lon="1.0410294461261518"><ele>337.20000000000005</ele><time>2026-04-06T16:02:59.001Z</time></trkpt><trkpt lat="45.81752433168576" lon="1.0409159906767302"><ele>336.6</ele><time>2026-04-06T16:03:01.001Z</time></trkpt><trkpt lat="45.8174507630295" lon="1.0408031958964172"><ele>336.0</ele><time>2026-04-06T16:03:06.001Z</time></trkpt><trkpt lat="45.817336312987614" lon="1.0408339969146956"><ele>336.0</ele><time>2026-04-06T16:03:08.001Z</time></trkpt><trkpt lat="45.81727010348705" lon="1.040846389010366"><ele>336.0</ele><time>2026-04-06T16:03:09.001Z</time></trkpt><trkpt lat="45.8171444928202" lon="1.040864020250133"><ele>336.0</ele><time>2026-04-06T16:03:11.001Z</time></trkpt><trkpt lat="45.81707270264739" lon="1.040873477419497"><ele>336.0</ele><time>2026-04-06T16:03:12.001Z</time></trkpt><trkpt lat="45.816988863867294" lon="1.0408857735868127"><ele>336.0</ele><time>2026-04-06T16:03:13.001Z</time></trkpt><trkpt lat="45.81688332018152" lon="1.0409054290279458"><ele>337.0</ele><time>2026-04-06T16:03:14.001Z</time></trkpt><trkpt lat="45.81676927187412" lon="1.0409196903642075"><ele>338.0</ele><time>2026-04-06T16:03:15.001Z</time></trkpt><trkpt lat="45.81665284007273" lon="1.0409283786753836"><ele>339.0</ele><time>2026-04-06T16:03:16.001Z</time></trkpt><trkpt lat="45.81654626339332" lon="1.040945202436047"><ele>340.0</ele><time>2026-04-06T16:03:17.001Z</time></trkpt><trkpt lat="45.81644738969688" lon="1.0409586579443457"><ele>341.0</ele><time>2026-04-06T16:03:18.001Z</time></trkpt><trkpt lat="45.816347901417956" lon="1.0409500585500218"><ele>341.0</ele><time>2026-04-06T16:03:19.001Z</time></trkpt><trkpt lat="45.81626042056952" lon="1.0409822324850002"><ele>341.0</ele><time>2026-04-06T16:03:20.001Z</time></trkpt><trkpt lat="45.816183707226365" lon="1.0409679780835712"><ele>341.0</ele><time>2026-04-06T16:03:21.001Z</time></trkpt><trkpt lat="45.816105558908" lon="1.0409765068969279"><ele>341.0</ele><time>2026-04-06T16:03:22.001Z</time></trkpt><trkpt lat="45.81604535977989" lon="1.041005399909618"><ele>341.0</ele><time>2026-04-06T16:03:23.001Z</time></trkpt><trkpt lat="45.81597561762161" lon="1.0409906882015545"><ele>341.0</ele><time>2026-04-06T16:03:24.001Z</time></trkpt><trkpt lat="45.815910081141695" lon="1.0409947973723022"><ele>341.0</ele><time>2026-04-06T16:03:25.001Z</time></trkpt><trkpt lat="45.81577502234312" lon="1.040973477818395"><ele>341.4</ele><time>2026-04-06T16:03:27.001Z</time></trkpt><trkpt lat="45.81571294583582" lon="1.0409088380611078"><ele>341.8</ele><time>2026-04-06T16:03:28.001Z</time></trkpt><trkpt lat="45.815644299207115" lon="1.040858011132034"><ele>342.2</ele><time>2026-04-06T16:03:29.001Z</time></trkpt><trkpt lat="45.81553893712438" lon="1.0407988798654457"><ele>342.59999999999997</ele><time>2026-04-06T16:03:30.001Z</time></trkpt><trkpt lat="45.815422846404644" lon="1.0406740430191155"><ele>343.0</ele><time>2026-04-06T16:03:31.001Z</time></trkpt><trkpt lat="45.81529745478314" lon="1.040557592594222"><ele>343.0</ele><time>2026-04-06T16:03:32.001Z</time></trkpt><trkpt lat="45.81518430906992" lon="1.0404469803543746"><ele>343.0</ele><time>2026-04-06T16:03:33.001Z</time></trkpt><trkpt lat="45.8150822001167" lon="1.040341705565492"><ele>343.0</ele><time>2026-04-06T16:03:34.001Z</time></trkpt><trkpt lat="45.814989812254055" lon="1.0402416982534295"><ele>343.0</ele><time>2026-04-06T16:03:35.001Z</time></trkpt><trkpt lat="45.814908548747724" lon="1.040136560045897"><ele>343.0</ele><time>2026-04-06T16:03:36.001Z</time></trkpt><trkpt lat="45.81482002014905" lon="1.040046716700213"><ele>343.0</ele><time>2026-04-06T16:03:37.001Z</time></trkpt><trkpt lat="45.81474886140037" lon="1.0399453289109855"><ele>343.0</ele><time>2026-04-06T16:03:38.001Z</time></trkpt><trkpt lat="45.81469592468322" lon="1.039829348712209"><ele>343.0</ele><time>2026-04-06T16:03:39.001Z</time></trkpt><trkpt lat="45.81462538437089" lon="1.0397381875293887"><ele>343.0</ele><time>2026-04-06T16:03:40.001Z</time></trkpt><trkpt lat="45.81454797423284" lon="1.0396236925416598"><ele>342.79999999999995</ele><time>2026-04-06T16:03:41.001Z</time></trkpt><trkpt lat="45.81448556399786" lon="1.039472640085452"><ele>342.6</ele><time>2026-04-06T16:03:42.001Z</time></trkpt><trkpt lat="45.81441051110919" lon="1.039368224296217"><ele>342.4</ele><time>2026-04-06T16:03:43.001Z</time></trkpt><trkpt lat="45.81437054871987" lon="1.0392604538326369"><ele>342.20000000000005</ele><time>2026-04-06T16:03:44.001Z</time></trkpt><trkpt lat="45.81431897922942" lon="1.0391760131180654"><ele>342.0</ele><time>2026-04-06T16:03:45.001Z</time></trkpt><trkpt lat="45.81425882880454" lon="1.0390709380961154"><ele>343.1666666666667</ele><time>2026-04-06T16:03:46.001Z</time></trkpt><trkpt lat="45.814205153208256" lon="1.0389785720019051"><ele>344.3333333333333</ele><time>2026-04-06T16:03:47.001Z</time></trkpt><trkpt lat="45.814147808989496" lon="1.0388857725663274"><ele>345.5</ele><time>2026-04-06T16:03:48.001Z</time></trkpt><trkpt lat="45.81409215106308" lon="1.0387930784153951"><ele>346.66666666666663</ele><time>2026-04-06T16:03:49.001Z</time></trkpt><trkpt lat="45.81403518611515" lon="1.0387107002887612"><ele>347.8333333333333</ele><time>2026-04-06T16:03:50.001Z</time></trkpt><trkpt lat="45.81398848823351" lon="1.0386066027199883"><ele>349.0</ele><time>2026-04-06T16:03:51.001Z</time></trkpt><trkpt lat="45.81393018187441" lon="1.0385151135197268"><ele>349.0</ele><time>2026-04-06T16:03:52.001Z</time></trkpt><trkpt lat="45.8138640673033" lon="1.0384383991782742"><ele>349.0</ele><time>2026-04-06T16:03:53.001Z</time></trkpt><trkpt lat="45.81382081994688" lon="1.038366281966876"><ele>349.0</ele><time>2026-04-06T16:03:54.001Z</time></trkpt><trkpt lat="45.81373935466417" lon="1.0382681945388392"><ele>349.0</ele><time>2026-04-06T16:03:56.001Z</time></trkpt><trkpt lat="45.81368461351135" lon="1.0381737544128635"><ele>349.0</ele><time>2026-04-06T16:03:58.001Z</time></trkpt><trkpt lat="45.81361340959913" lon="1.0380980202330863"><ele>349.0</ele><time>2026-04-06T16:04:00.001Z</time></trkpt><trkpt lat="45.813535300509095" lon="1.0380303997807496"><ele>350.0</ele><time>2026-04-06T16:04:02Z</time></trkpt><trkpt lat="45.81344557262983" lon="1.0379398722442106"><ele>351.0</ele><time>2026-04-06T16:04:05Z</time></trkpt><trkpt lat="45.81337081484014" lon="1.0378474476310764"><ele>352.0</ele><time>2026-04-06T16:04:07Z</time></trkpt><trkpt lat="45.81329226687252" lon="1.0377411050604668"><ele>353.0</ele><time>2026-04-06T16:04:10Z</time></trkpt><trkpt lat="45.813223136200804" lon="1.0376605139419546"><ele>354.0</ele><time>2026-04-06T16:04:12Z</time></trkpt><trkpt lat="45.813154353669944" lon="1.037580095079841"><ele>354.0</ele><time>2026-04-06T16:04:14Z</time></trkpt><trkpt lat="45.81308819471243" lon="1.0374995730710939"><ele>354.0</ele><time>2026-04-06T16:04:16Z</time></trkpt><trkpt lat="45.81302065058652" lon="1.0374189571743997"><ele>354.0</ele><time>2026-04-06T16:04:18Z</time></trkpt><trkpt lat="45.81296205185415" lon="1.0373507015157326"><ele>354.0</ele><time>2026-04-06T16:04:20Z</time></trkpt><trkpt lat="45.812905462630496" lon="1.0372640820568764"><ele>354.0</ele><time>2026-04-06T16:04:22Z</time></trkpt><trkpt lat="45.81281607635777" lon="1.0371959995990663"><ele>354.0</ele><time>2026-04-06T16:04:24Z</time></trkpt><trkpt lat="45.81273458013829" lon="1.0370759109664094"><ele>354.2</ele><time>2026-04-06T16:04:26Z</time></trkpt><trkpt lat="45.812661406032554" lon="1.0369614850985533"><ele>354.4</ele><time>2026-04-06T16:04:28Z</time></trkpt><trkpt lat="45.81260841218786" lon="1.036904597982885"><ele>354.6</ele><time>2026-04-06T16:04:29Z</time></trkpt><trkpt lat="45.81256728288298" lon="1.036803812600958"><ele>354.8</ele><time>2026-04-06T16:04:30Z</time></trkpt><trkpt lat="45.812478154976745" lon="1.0366821238973094"><ele>355.0</ele><time>2026-04-06T16:04:31Z</time></trkpt><trkpt lat="45.812397033069" lon="1.0365821913309419"><ele>355.0</ele><time>2026-04-06T16:04:32Z</time></trkpt><trkpt lat="45.81233552052604" lon="1.0364871270680989"><ele>355.0</ele><time>2026-04-06T16:04:33Z</time></trkpt><trkpt lat="45.81228654371792" lon="1.0363970207503252"><ele>355.0</ele><time>2026-04-06T16:04:34Z</time></trkpt><trkpt lat="45.81223896729074" lon="1.0363204822058756"><ele>355.0</ele><time>2026-04-06T16:04:35Z</time></trkpt><trkpt lat="45.81219923835682" lon="1.036231630409553"><ele>355.0</ele><time>2026-04-06T16:04:36Z</time></trkpt><trkpt lat="45.81212034450722" lon="1.0360981375482876"><ele>355.0</ele><time>2026-04-06T16:04:38Z</time></trkpt><trkpt lat="45.81207989445258" lon="1.0359927835871396"><ele>355.0</ele><time>2026-04-06T16:04:39Z</time></trkpt><trkpt lat="45.81200184341785" lon="1.0358412496960139"><ele>355.0</ele><time>2026-04-06T16:04:40Z</time></trkpt><trkpt lat="45.81193646621405" lon="1.0357143215520836"><ele>355.0</ele><time>2026-04-06T16:04:41Z</time></trkpt><trkpt lat="45.81188455775279" lon="1.0356066081342816"><ele>355.0</ele><time>2026-04-06T16:04:42Z</time></trkpt><trkpt lat="45.81183746254381" lon="1.0354987805596216"><ele>355.0</ele><time>2026-04-06T16:04:43Z</time></trkpt><trkpt lat="45.81178660934901" lon="1.0353823481685485"><ele>355.5</ele><time>2026-04-06T16:04:44Z</time></trkpt><trkpt lat="45.811742924340514" lon="1.0352823281360628"><ele>356.0</ele><time>2026-04-06T16:04:45Z</time></trkpt><trkpt lat="45.81170065315076" lon="1.035185995344497"><ele>356.5</ele><time>2026-04-06T16:04:46Z</time></trkpt><trkpt lat="45.81165518665018" lon="1.0350829716266474"><ele>357.0</ele><time>2026-04-06T16:04:47Z</time></trkpt><trkpt lat="45.81160719885984" lon="1.0349742347936117"><ele>357.5</ele><time>2026-04-06T16:04:48Z</time></trkpt><trkpt lat="45.81155918738567" lon="1.0348654441839054"><ele>358.0</ele><time>2026-04-06T16:04:49Z</time></trkpt><trkpt lat="45.81149552853919" lon="1.034759408510355"><ele>358.16666666666663</ele><time>2026-04-06T16:04:50Z</time></trkpt><trkpt lat="45.811448648339166" lon="1.0346513298462139"><ele>358.3333333333333</ele><time>2026-04-06T16:04:51Z</time></trkpt><trkpt lat="45.81141134733634" lon="1.0345623798004533"><ele>358.5</ele><time>2026-04-06T16:04:52Z</time></trkpt><trkpt lat="45.81137203421272" lon="1.0344585935281312"><ele>358.6666666666667</ele><time>2026-04-06T16:04:53Z</time></trkpt><trkpt lat="45.81132732212575" lon="1.0343749460127536"><ele>358.83333333333337</ele><time>2026-04-06T16:04:54Z</time></trkpt><trkpt lat="45.81127052387117" lon="1.0342300497662649"><ele>359.0</ele><time>2026-04-06T16:04:56.001Z</time></trkpt><trkpt lat="45.81123544254172" lon="1.0341508108080644"><ele>358.6</ele><time>2026-04-06T16:04:57.001Z</time></trkpt><trkpt lat="45.81121105706635" lon="1.0340667213117385"><ele>358.2</ele><time>2026-04-06T16:04:58.001Z</time></trkpt><trkpt lat="45.81113546981143" lon="1.0339476713831823"><ele>357.8</ele><time>2026-04-06T16:05:00.001Z</time></trkpt><trkpt lat="45.81105869274574" lon="1.033806496278808"><ele>357.40000000000003</ele><time>2026-04-06T16:05:02.001Z</time></trkpt><trkpt lat="45.81098033315356" lon="1.0336631141430763"><ele>357.0</ele><time>2026-04-06T16:05:04.001Z</time></trkpt><trkpt lat="45.81095347846309" lon="1.0335762721974646"><ele>358.20000000000005</ele><time>2026-04-06T16:05:05.001Z</time></trkpt><trkpt lat="45.810902405023306" lon="1.0335158575923065"><ele>359.4</ele><time>2026-04-06T16:05:06.001Z</time></trkpt><trkpt lat="45.81086481078904" lon="1.033437555436067"><ele>360.6</ele><time>2026-04-06T16:05:07.001Z</time></trkpt><trkpt lat="45.810816675118645" lon="1.033270634000946"><ele>361.79999999999995</ele><time>2026-04-06T16:05:09.001Z</time></trkpt><trkpt lat="45.810794994635415" lon="1.033177932235579"><ele>363.0</ele><time>2026-04-06T16:05:10.001Z</time></trkpt><trkpt lat="45.81074734692931" lon="1.0329901410429505"><ele>363.1666666666667</ele><time>2026-04-06T16:05:12.001Z</time></trkpt><trkpt lat="45.81072175042407" lon="1.0328918462011494"><ele>363.3333333333333</ele><time>2026-04-06T16:05:13.001Z</time></trkpt><trkpt lat="45.810692429471494" lon="1.0327801432794133"><ele>363.5</ele><time>2026-04-06T16:05:14.001Z</time></trkpt><trkpt lat="45.81065349632809" lon="1.0326824098316691"><ele>363.66666666666663</ele><time>2026-04-06T16:05:15.001Z</time></trkpt><trkpt lat="45.810623265414634" lon="1.032513408141248"><ele>363.8333333333333</ele><time>2026-04-06T16:05:17.001Z</time></trkpt><trkpt lat="45.81058265564808" lon="1.0324253621525514"><ele>364.0</ele><time>2026-04-06T16:05:18.001Z</time></trkpt><trkpt lat="45.81055968343531" lon="1.0323294428461505"><ele>364.4</ele><time>2026-04-06T16:05:19.001Z</time></trkpt><trkpt lat="45.81051971564635" lon="1.0321899837190889"><ele>364.79999999999995</ele><time>2026-04-06T16:05:21.001Z</time></trkpt><trkpt lat="45.810458177595144" lon="1.0320960230148755"><ele>365.20000000000005</ele><time>2026-04-06T16:05:23.001Z</time></trkpt><trkpt lat="45.810362103915" lon="1.032051977771465"><ele>365.6</ele><time>2026-04-06T16:05:25.001Z</time></trkpt><trkpt lat="45.81023506811973" lon="1.0320480374547567"><ele>366.0</ele><time>2026-04-06T16:05:27.001Z</time></trkpt><trkpt lat="45.81015712345559" lon="1.032023014736179"><ele>366.5</ele><time>2026-04-06T16:05:28.001Z</time></trkpt><trkpt lat="45.81006991777286" lon="1.0319837539553904"><ele>367.0</ele><time>2026-04-06T16:05:29.001Z</time></trkpt><trkpt lat="45.80997867770553" lon="1.0319808789712481"><ele>367.5</ele><time>2026-04-06T16:05:30.001Z</time></trkpt><trkpt lat="45.809902934387" lon="1.0319610500014489"><ele>368.0</ele><time>2026-04-06T16:05:31.001Z</time></trkpt><trkpt lat="45.80983041654265" lon="1.03194860034122"><ele>368.5</ele><time>2026-04-06T16:05:32.001Z</time></trkpt><trkpt lat="45.8097535511981" lon="1.0319362592432602"><ele>369.0</ele><time>2026-04-06T16:05:33.001Z</time></trkpt><trkpt lat="45.8096842549219" lon="1.0319602348336239"><ele>369.0</ele><time>2026-04-06T16:05:34.001Z</time></trkpt><trkpt lat="45.809605025654896" lon="1.0319558948477268"><ele>369.0</ele><time>2026-04-06T16:05:35.001Z</time></trkpt><trkpt lat="45.80952152554633" lon="1.0319620319322023"><ele>369.0</ele><time>2026-04-06T16:05:36.001Z</time></trkpt><trkpt lat="45.809433415074864" lon="1.0319676917376817"><ele>369.0</ele><time>2026-04-06T16:05:37.001Z</time></trkpt><trkpt lat="45.809354415980614" lon="1.031986613577657"><ele>369.0</ele><time>2026-04-06T16:05:38.001Z</time></trkpt><trkpt lat="45.80927965999583" lon="1.0319875844495014"><ele>369.0</ele><time>2026-04-06T16:05:39.001Z</time></trkpt><trkpt lat="45.80921143170615" lon="1.0319989918395551"><ele>369.4</ele><time>2026-04-06T16:05:40.001Z</time></trkpt><trkpt lat="45.80911555347649" lon="1.0320113845836365"><ele>369.79999999999995</ele><time>2026-04-06T16:05:42.001Z</time></trkpt><trkpt lat="45.80902916426012" lon="1.0320009915954889"><ele>370.20000000000005</ele><time>2026-04-06T16:05:45.001Z</time></trkpt><trkpt lat="45.80903010347385" lon="1.0318439613317116"><ele>370.6</ele><time>2026-04-06T16:05:46.001Z</time></trkpt><trkpt lat="45.80898143114872" lon="1.0317518979899478"><ele>371.0</ele><time>2026-04-06T16:05:48.001Z</time></trkpt><trkpt lat="45.80885777982909" lon="1.0318081805221984"><ele>371.0</ele><time>2026-04-06T16:05:52.001Z</time></trkpt><trkpt lat="45.8088084573176" lon="1.0319151031982692"><ele>371.0</ele><time>2026-04-06T16:05:53.001Z</time></trkpt><trkpt lat="45.80873502039249" lon="1.0320058377982217"><ele>371.0</ele><time>2026-04-06T16:05:54.001Z</time></trkpt><trkpt lat="45.80865343066167" lon="1.0320776257382431"><ele>371.0</ele><time>2026-04-06T16:05:55.001Z</time></trkpt><trkpt lat="45.80855614419516" lon="1.0321377111191314"><ele>371.0</ele><time>2026-04-06T16:05:56.001Z</time></trkpt><trkpt lat="45.80845092662114" lon="1.0321906503347056"><ele>371.0</ele><time>2026-04-06T16:05:57.001Z</time></trkpt><trkpt lat="45.808346172502524" lon="1.0322244550555313"><ele>371.0</ele><time>2026-04-06T16:05:58.001Z</time></trkpt><trkpt lat="45.808238846354364" lon="1.0322524658930323"><ele>371.0</ele><time>2026-04-06T16:05:59.001Z</time></trkpt><trkpt lat="45.808130456872654" lon="1.032283051806055"><ele>371.0</ele><time>2026-04-06T16:06:00.001Z</time></trkpt><trkpt lat="45.80803258581165" lon="1.0323123267517713"><ele>371.0</ele><time>2026-04-06T16:06:01.001Z</time></trkpt><trkpt lat="45.80793912656355" lon="1.032338780640737"><ele>371.0</ele><time>2026-04-06T16:06:02.001Z</time></trkpt><trkpt lat="45.8078463136079" lon="1.032373617276793"><ele>371.0</ele><time>2026-04-06T16:06:03.001Z</time></trkpt><trkpt lat="45.80775197168959" lon="1.0324256988513425"><ele>371.0</ele><time>2026-04-06T16:06:04.001Z</time></trkpt><trkpt lat="45.807668170251844" lon="1.0324953996821975"><ele>371.0</ele><time>2026-04-06T16:06:05.002Z</time></trkpt><trkpt lat="45.80759086396833" lon="1.0325841113158958"><ele>371.0</ele><time>2026-04-06T16:06:06.002Z</time></trkpt><trkpt lat="45.80751959064595" lon="1.0326884935772782"><ele>371.20000000000005</ele><time>2026-04-06T16:06:07Z</time></trkpt><trkpt lat="45.80746580458414" lon="1.0328159803952013"><ele>371.40000000000003</ele><time>2026-04-06T16:06:08Z</time></trkpt><trkpt lat="45.80742166200123" lon="1.032960199791604"><ele>371.6</ele><time>2026-04-06T16:06:09Z</time></trkpt><trkpt lat="45.80739101306271" lon="1.0331134264440662"><ele>371.8</ele><time>2026-04-06T16:06:10Z</time></trkpt><trkpt lat="45.80737167919253" lon="1.033268099880648"><ele>372.0</ele><time>2026-04-06T16:06:11Z</time></trkpt><trkpt lat="45.80734850740894" lon="1.0334234966017644"><ele>371.0</ele><time>2026-04-06T16:06:12Z</time></trkpt><trkpt lat="45.80732324829748" lon="1.0335834844536853"><ele>370.0</ele><time>2026-04-06T16:06:13Z</time></trkpt><trkpt lat="45.80729780929806" lon="1.0337451892589467"><ele>369.0</ele><time>2026-04-06T16:06:14Z</time></trkpt><trkpt lat="45.80727357582069" lon="1.0339029231544348"><ele>368.0</ele><time>2026-04-06T16:06:15Z</time></trkpt><trkpt lat="45.8072445348141" lon="1.034059674910845"><ele>368.25</ele><time>2026-04-06T16:06:16Z</time></trkpt><trkpt lat="45.80722321891457" lon="1.0342143596251774"><ele>368.5</ele><time>2026-04-06T16:06:17Z</time></trkpt><trkpt lat="45.807206299816585" lon="1.0343742244771805"><ele>368.75</ele><time>2026-04-06T16:06:18Z</time></trkpt><trkpt lat="45.80719578204921" lon="1.0345501227480176"><ele>369.0</ele><time>2026-04-06T16:06:19Z</time></trkpt><trkpt lat="45.80718659473909" lon="1.0347227758615385"><ele>369.0</ele><time>2026-04-06T16:06:20Z</time></trkpt><trkpt lat="45.80717576319278" lon="1.0349065903658712"><ele>369.0</ele><time>2026-04-06T16:06:21Z</time></trkpt><trkpt lat="45.807169315170626" lon="1.0350830544727814"><ele>369.0</ele><time>2026-04-06T16:06:22Z</time></trkpt><trkpt lat="45.807169688939744" lon="1.035274483231829"><ele>369.0</ele><time>2026-04-06T16:06:23Z</time></trkpt><trkpt lat="45.80717633403974" lon="1.0354527737839951"><ele>369.0</ele><time>2026-04-06T16:06:24Z</time></trkpt><trkpt lat="45.807203640381566" lon="1.0356246860069156"><ele>369.0</ele><time>2026-04-06T16:06:25Z</time></trkpt><trkpt lat="45.8072341773198" lon="1.0357850380571134"><ele>369.0</ele><time>2026-04-06T16:06:26Z</time></trkpt><trkpt lat="45.807261556001826" lon="1.035927222482525"><ele>369.0</ele><time>2026-04-06T16:06:27Z</time></trkpt><trkpt lat="45.807295037297386" lon="1.0360582899927073"><ele>369.0</ele><time>2026-04-06T16:06:28Z</time></trkpt><trkpt lat="45.80734641295654" lon="1.036189670153118"><ele>368.6</ele><time>2026-04-06T16:06:29Z</time></trkpt><trkpt lat="45.807375523036434" lon="1.0363392210937112"><ele>368.2</ele><time>2026-04-06T16:06:30Z</time></trkpt><trkpt lat="45.80742515041912" lon="1.0364840868253569"><ele>367.8</ele><time>2026-04-06T16:06:31Z</time></trkpt><trkpt lat="45.80748625840669" lon="1.0366222313372138"><ele>367.40000000000003</ele><time>2026-04-06T16:06:32Z</time></trkpt><trkpt lat="45.80755612170933" lon="1.0367518726070672"><ele>367.0</ele><time>2026-04-06T16:06:33Z</time></trkpt><trkpt lat="45.80761805235728" lon="1.0369006948348098"><ele>365.25</ele><time>2026-04-06T16:06:34Z</time></trkpt><trkpt lat="45.80770643065336" lon="1.0370225063940202"><ele>363.5</ele><time>2026-04-06T16:06:35Z</time></trkpt><trkpt lat="45.80778416797124" lon="1.0371580479018936"><ele>361.75</ele><time>2026-04-06T16:06:36Z</time></trkpt><trkpt lat="45.807855785608744" lon="1.0372975329177938"><ele>360.0</ele><time>2026-04-06T16:06:37Z</time></trkpt><trkpt lat="45.80793188540579" lon="1.0374274045114205"><ele>359.5</ele><time>2026-04-06T16:06:38Z</time></trkpt><trkpt lat="45.80800656771764" lon="1.0375603197921073"><ele>359.0</ele><time>2026-04-06T16:06:39Z</time></trkpt><trkpt lat="45.80806702136837" lon="1.0377091751728078"><ele>358.5</ele><time>2026-04-06T16:06:40Z</time></trkpt><trkpt lat="45.80813455946573" lon="1.0378545173072191"><ele>358.0</ele><time>2026-04-06T16:06:41Z</time></trkpt><trkpt lat="45.808192298291104" lon="1.0380005641698091"><ele>358.0</ele><time>2026-04-06T16:06:42Z</time></trkpt><trkpt lat="45.80825473744034" lon="1.038144557389954"><ele>358.0</ele><time>2026-04-06T16:06:43Z</time></trkpt><trkpt lat="45.80830323593251" lon="1.0383090768506213"><ele>358.0</ele><time>2026-04-06T16:06:44Z</time></trkpt><trkpt lat="45.808358386144455" lon="1.0384720501420095"><ele>358.0</ele><time>2026-04-06T16:06:45Z</time></trkpt><trkpt lat="45.808411596465355" lon="1.0386312085054143"><ele>357.75</ele><time>2026-04-06T16:06:46Z</time></trkpt><trkpt lat="45.80846047985889" lon="1.0387866322561194"><ele>357.5</ele><time>2026-04-06T16:06:47Z</time></trkpt><trkpt lat="45.808509447515085" lon="1.038939360182612"><ele>357.25</ele><time>2026-04-06T16:06:48Z</time></trkpt><trkpt lat="45.80856007802163" lon="1.039090826090472"><ele>357.0</ele><time>2026-04-06T16:06:49Z</time></trkpt><trkpt lat="45.80860791573967" lon="1.0392374629311107"><ele>356.0</ele><time>2026-04-06T16:06:50Z</time></trkpt><trkpt lat="45.808655070319986" lon="1.0393856304324296"><ele>355.0</ele><time>2026-04-06T16:06:51Z</time></trkpt><trkpt lat="45.80870413733302" lon="1.0395429303818493"><ele>354.0</ele><time>2026-04-06T16:06:52Z</time></trkpt><trkpt lat="45.80875484457421" lon="1.0397072511576864"><ele>353.0</ele><time>2026-04-06T16:06:53Z</time></trkpt><trkpt lat="45.80880035542921" lon="1.0398846277273386"><ele>352.5</ele><time>2026-04-06T16:06:54Z</time></trkpt><trkpt lat="45.80883641067033" lon="1.0400715162912146"><ele>352.0</ele><time>2026-04-06T16:06:55Z</time></trkpt><trkpt lat="45.808864260164356" lon="1.040260562572665"><ele>351.5</ele><time>2026-04-06T16:06:56Z</time></trkpt><trkpt lat="45.80888718473849" lon="1.04045276628191"><ele>351.0</ele><time>2026-04-06T16:06:57.001Z</time></trkpt><trkpt lat="45.80890954533176" lon="1.0406432309278626"><ele>351.25</ele><time>2026-04-06T16:06:58.001Z</time></trkpt><trkpt lat="45.80893322789128" lon="1.0408307254202247"><ele>351.5</ele><time>2026-04-06T16:06:59.001Z</time></trkpt><trkpt lat="45.808955805866425" lon="1.0410239216418893"><ele>351.75</ele><time>2026-04-06T16:07:00.001Z</time></trkpt><trkpt lat="45.80897981739136" lon="1.0412148167692912"><ele>352.0</ele><time>2026-04-06T16:07:01.001Z</time></trkpt><trkpt lat="45.8090075887233" lon="1.0413987187836962"><ele>352.0</ele><time>2026-04-06T16:07:02.001Z</time></trkpt><trkpt lat="45.8090424336957" lon="1.0415791083909083"><ele>352.0</ele><time>2026-04-06T16:07:03.001Z</time></trkpt><trkpt lat="45.80908314768511" lon="1.0417605836802786"><ele>352.0</ele><time>2026-04-06T16:07:04.001Z</time></trkpt><trkpt lat="45.80913209750186" lon="1.041937755486027"><ele>352.0</ele><time>2026-04-06T16:07:05.001Z</time></trkpt><trkpt lat="45.809180656840034" lon="1.0421097767694347"><ele>351.75</ele><time>2026-04-06T16:07:06.001Z</time></trkpt><trkpt lat="45.80922326497971" lon="1.0422831474717085"><ele>351.5</ele><time>2026-04-06T16:07:07.001Z</time></trkpt><trkpt lat="45.80926468476734" lon="1.0424594741948916"><ele>351.25</ele><time>2026-04-06T16:07:08.001Z</time></trkpt><trkpt lat="45.80929247345317" lon="1.0426441252654162"><ele>351.0</ele><time>2026-04-06T16:07:09.001Z</time></trkpt><trkpt lat="45.80929797087273" lon="1.0428301523832662"><ele>350.5</ele><time>2026-04-06T16:07:10.001Z</time></trkpt><trkpt lat="45.809287164191964" lon="1.0430195161879494"><ele>350.0</ele><time>2026-04-06T16:07:11.001Z</time></trkpt><trkpt lat="45.809281061308525" lon="1.0432048132963512"><ele>349.5</ele><time>2026-04-06T16:07:12.001Z</time></trkpt><trkpt lat="45.80927611832749" lon="1.0433835066452526"><ele>349.0</ele><time>2026-04-06T16:07:13.001Z</time></trkpt><trkpt lat="45.8092668121843" lon="1.043547113539646"><ele>349.0</ele><time>2026-04-06T16:07:14.001Z</time></trkpt><trkpt lat="45.809247653401" lon="1.0437007263559808"><ele>349.0</ele><time>2026-04-06T16:07:15.001Z</time></trkpt><trkpt lat="45.80921693428879" lon="1.0438460440199315"><ele>349.0</ele><time>2026-04-06T16:07:16.001Z</time></trkpt><trkpt lat="45.809167154917446" lon="1.0439715926638524"><ele>349.0</ele><time>2026-04-06T16:07:17.001Z</time></trkpt><trkpt lat="45.809095209788815" lon="1.044084140515705"><ele>349.0</ele><time>2026-04-06T16:07:18.001Z</time></trkpt><trkpt lat="45.80901280246279" lon="1.0441933476080536"><ele>349.0</ele><time>2026-04-06T16:07:19.001Z</time></trkpt><trkpt lat="45.80893613200393" lon="1.0442890498562856"><ele>349.0</ele><time>2026-04-06T16:07:20.001Z</time></trkpt><trkpt lat="45.8088760980649" lon="1.0443840322498472"><ele>349.0</ele><time>2026-04-06T16:07:21.001Z</time></trkpt><trkpt lat="45.8088441109027" lon="1.044488560395924"><ele>349.0</ele><time>2026-04-06T16:07:22.001Z</time></trkpt><trkpt lat="45.80884167844324" lon="1.0446183797347475"><ele>349.0</ele><time>2026-04-06T16:07:23.001Z</time></trkpt><trkpt lat="45.80887205252123" lon="1.0447424000543948"><ele>349.0</ele><time>2026-04-06T16:07:24.001Z</time></trkpt><trkpt lat="45.808917859959635" lon="1.0448249415232278"><ele>349.0</ele><time>2026-04-06T16:07:25.001Z</time></trkpt><trkpt lat="45.80895508704543" lon="1.0449174825708891"><ele>349.0</ele><time>2026-04-06T16:07:27.001Z</time></trkpt><trkpt lat="45.80899422064503" lon="1.0449975746376954"><ele>349.0</ele><time>2026-04-06T16:07:29.001Z</time></trkpt><trkpt lat="45.809042998201484" lon="1.0450706798675797"><ele>349.0</ele><time>2026-04-06T16:07:30.001Z</time></trkpt><trkpt lat="45.8090860547439" lon="1.0451744477069516"><ele>349.0</ele><time>2026-04-06T16:07:31.001Z</time></trkpt><trkpt lat="45.80914441557009" lon="1.0452693821783203"><ele>348.6</ele><time>2026-04-06T16:07:32.001Z</time></trkpt><trkpt lat="45.80919997973926" lon="1.04537364286146"><ele>348.2</ele><time>2026-04-06T16:07:33.001Z</time></trkpt><trkpt lat="45.809259716909544" lon="1.0454841836300466"><ele>347.8</ele><time>2026-04-06T16:07:34.001Z</time></trkpt><trkpt lat="45.809322200356235" lon="1.0455862791628519"><ele>347.40000000000003</ele><time>2026-04-06T16:07:35.001Z</time></trkpt><trkpt lat="45.809386944578705" lon="1.045682575839234"><ele>347.0</ele><time>2026-04-06T16:07:36.001Z</time></trkpt><trkpt lat="45.80945414916031" lon="1.0457768823935365"><ele>348.8</ele><time>2026-04-06T16:07:37.001Z</time></trkpt><trkpt lat="45.809527022612286" lon="1.0458739220139526"><ele>350.6</ele><time>2026-04-06T16:07:38.001Z</time></trkpt><trkpt lat="45.80959155062133" lon="1.0459803221105797"><ele>352.40000000000003</ele><time>2026-04-06T16:07:39.001Z</time></trkpt><trkpt lat="45.809645695684715" lon="1.0461030452985018"><ele>354.20000000000005</ele><time>2026-04-06T16:07:40.001Z</time></trkpt><trkpt lat="45.80968974207005" lon="1.0462353507212343"><ele>356.0</ele><time>2026-04-06T16:07:41.001Z</time></trkpt><trkpt lat="45.80972873795116" lon="1.0463719196782815"><ele>356.0</ele><time>2026-04-06T16:07:42.001Z</time></trkpt><trkpt lat="45.809761028557865" lon="1.0464968621848114"><ele>356.0</ele><time>2026-04-06T16:07:43.001Z</time></trkpt><trkpt lat="45.80978352358754" lon="1.046609837241049"><ele>356.0</ele><time>2026-04-06T16:07:44.001Z</time></trkpt><trkpt lat="45.80979974909397" lon="1.0467049910619817"><ele>356.0</ele><time>2026-04-06T16:07:45.001Z</time></trkpt><trkpt lat="45.80981996585811" lon="1.046806844212183"><ele>356.0</ele><time>2026-04-06T16:07:46.001Z</time></trkpt><trkpt lat="45.809855874679386" lon="1.0470514954544683"><ele>356.0</ele><time>2026-04-06T16:07:49.001Z</time></trkpt><trkpt lat="45.80985514094668" lon="1.0471606300303695"><ele>356.0</ele><time>2026-04-06T16:07:53.001Z</time></trkpt><trkpt lat="45.8098600316729" lon="1.0470089678492902"><ele>356.0</ele><time>2026-04-06T16:08:01.001Z</time></trkpt><trkpt lat="45.80982412055591" lon="1.046766032239718"><ele>356.0</ele><time>2026-04-06T16:08:03.001Z</time></trkpt><trkpt lat="45.80979687989952" lon="1.046639707214758"><ele>356.0</ele><time>2026-04-06T16:08:04.001Z</time></trkpt><trkpt lat="45.809770140951564" lon="1.0465186281412608"><ele>356.0</ele><time>2026-04-06T16:08:05.001Z</time></trkpt><trkpt lat="45.80974052244858" lon="1.0463937239813468"><ele>356.0</ele><time>2026-04-06T16:08:06.001Z</time></trkpt><trkpt lat="45.809706619636394" lon="1.0462648230309912"><ele>356.0</ele><time>2026-04-06T16:08:07.001Z</time></trkpt><trkpt lat="45.80966572801447" lon="1.0461345302365295"><ele>356.0</ele><time>2026-04-06T16:08:08.002Z</time></trkpt><trkpt lat="45.80961776419961" lon="1.046009248711122"><ele>356.0</ele><time>2026-04-06T16:08:09.002Z</time></trkpt><trkpt lat="45.80955626720634" lon="1.0458835260276158"><ele>355.6</ele><time>2026-04-06T16:08:10.002Z</time></trkpt><trkpt lat="45.80948326699429" lon="1.0457683097843757"><ele>355.20000000000005</ele><time>2026-04-06T16:08:11.002Z</time></trkpt><trkpt lat="45.8094000366127" lon="1.045661028415898"><ele>354.79999999999995</ele><time>2026-04-06T16:08:12.002Z</time></trkpt><trkpt lat="45.80932334120271" lon="1.0455570446358"><ele>354.4</ele><time>2026-04-06T16:08:13Z</time></trkpt><trkpt lat="45.80924217766523" lon="1.0454569655784527"><ele>354.0</ele><time>2026-04-06T16:08:14Z</time></trkpt><trkpt lat="45.80918629060991" lon="1.0453423380467877"><ele>354.0</ele><time>2026-04-06T16:08:15Z</time></trkpt><trkpt lat="45.809136269625" lon="1.0452388143165627"><ele>354.0</ele><time>2026-04-06T16:08:16Z</time></trkpt><trkpt lat="45.809095074367484" lon="1.0451543406634038"><ele>354.0</ele><time>2026-04-06T16:08:17Z</time></trkpt><trkpt lat="45.80904509931163" lon="1.04503146842568"><ele>354.0</ele><time>2026-04-06T16:08:19Z</time></trkpt><trkpt lat="45.80900750150075" lon="1.0449415570360159"><ele>354.0</ele><time>2026-04-06T16:08:21Z</time></trkpt><trkpt lat="45.808948502965386" lon="1.044858486120485"><ele>354.0</ele><time>2026-04-06T16:08:23Z</time></trkpt><trkpt lat="45.808714706823004" lon="1.0449722377963473"><ele>354.0</ele><time>2026-04-06T16:08:25Z</time></trkpt><trkpt lat="45.808611854961654" lon="1.044998582357662"><ele>354.0</ele><time>2026-04-06T16:08:27Z</time></trkpt><trkpt lat="45.80851364355209" lon="1.0450222450536564"><ele>354.0</ele><time>2026-04-06T16:08:29Z</time></trkpt><trkpt lat="45.80840717074556" lon="1.0450222020668316"><ele>354.0</ele><time>2026-04-06T16:08:31Z</time></trkpt><trkpt lat="45.80829061870661" lon="1.04506199788073"><ele>354.0</ele><time>2026-04-06T16:08:33Z</time></trkpt><trkpt lat="45.808230607832336" lon="1.0451034169185218"><ele>354.79999999999995</ele><time>2026-04-06T16:08:34Z</time></trkpt><trkpt lat="45.80816816729653" lon="1.0451498836384432"><ele>355.59999999999997</ele><time>2026-04-06T16:08:35Z</time></trkpt><trkpt lat="45.80810974349917" lon="1.0451851376652646"><ele>356.4</ele><time>2026-04-06T16:08:36Z</time></trkpt><trkpt lat="45.80798292231052" lon="1.0452495643290636"><ele>357.2</ele><time>2026-04-06T16:08:38Z</time></trkpt><trkpt lat="45.80792267547008" lon="1.0452853476070534"><ele>358.0</ele><time>2026-04-06T16:08:39Z</time></trkpt><trkpt lat="45.807781710051046" lon="1.045337598672975"><ele>358.0</ele><time>2026-04-06T16:08:41Z</time></trkpt><trkpt lat="45.80771753614334" lon="1.0453841735356693"><ele>358.0</ele><time>2026-04-06T16:08:42Z</time></trkpt><trkpt lat="45.80764604980269" lon="1.0454204957727267"><ele>358.0</ele><time>2026-04-06T16:08:43Z</time></trkpt><trkpt lat="45.807568409024526" lon="1.0454629178436456"><ele>358.0</ele><time>2026-04-06T16:08:44Z</time></trkpt><trkpt lat="45.80750896061585" lon="1.045500916609204"><ele>358.0</ele><time>2026-04-06T16:08:45Z</time></trkpt><trkpt lat="45.807400549169294" lon="1.0455714987397615"><ele>358.0</ele><time>2026-04-06T16:08:47Z</time></trkpt><trkpt lat="45.80734196989924" lon="1.0456107402736112"><ele>357.4</ele><time>2026-04-06T16:08:50Z</time></trkpt><trkpt lat="45.807270747734606" lon="1.0456615929695348"><ele>356.79999999999995</ele><time>2026-04-06T16:08:58Z</time></trkpt><trkpt lat="45.807200492927876" lon="1.0456701691891679"><ele>356.2</ele><time>2026-04-06T16:09:00Z</time></trkpt><trkpt lat="45.80714087894488" lon="1.045600615906381"><ele>355.6</ele><time>2026-04-06T16:09:02Z</time></trkpt><trkpt lat="45.80708985669367" lon="1.0454215010329682"><ele>355.0</ele><time>2026-04-06T16:09:04.001Z</time></trkpt><trkpt lat="45.80705071914896" lon="1.0452821205846672"><ele>355.0</ele><time>2026-04-06T16:09:05.001Z</time></trkpt><trkpt lat="45.80701494603143" lon="1.0451471406188277"><ele>355.0</ele><time>2026-04-06T16:09:06.001Z</time></trkpt><trkpt lat="45.80698442223858" lon="1.0450354052562374"><ele>355.0</ele><time>2026-04-06T16:09:07.001Z</time></trkpt><trkpt lat="45.80695465181067" lon="1.044927819750119"><ele>355.0</ele><time>2026-04-06T16:09:08.001Z</time></trkpt><trkpt lat="45.80692897732083" lon="1.0448380685101673"><ele>355.0</ele><time>2026-04-06T16:09:09.001Z</time></trkpt><trkpt lat="45.806903711947164" lon="1.0447442895064598"><ele>355.0</ele><time>2026-04-06T16:09:10.001Z</time></trkpt><trkpt lat="45.80687618154541" lon="1.0446443035275863"><ele>354.8333333333333</ele><time>2026-04-06T16:09:11.001Z</time></trkpt><trkpt lat="45.806836533711646" lon="1.044515036449273"><ele>354.66666666666663</ele><time>2026-04-06T16:09:13.001Z</time></trkpt><trkpt lat="45.80679075828268" lon="1.0444179257306756"><ele>354.5</ele><time>2026-04-06T16:09:47.001Z</time></trkpt><trkpt lat="45.806727676415626" lon="1.0443944537334893"><ele>354.3333333333333</ele><time>2026-04-06T16:09:49.001Z</time></trkpt><trkpt lat="45.80663554027466" lon="1.044385680821645"><ele>354.1666666666667</ele><time>2026-04-06T16:09:51.001Z</time></trkpt><trkpt lat="45.80653184144166" lon="1.0443655737491218"><ele>354.0</ele><time>2026-04-06T16:09:53.001Z</time></trkpt><trkpt lat="45.80645029867679" lon="1.0443648010885715"><ele>355.6</ele><time>2026-04-06T16:09:55.001Z</time></trkpt><trkpt lat="45.80633400598971" lon="1.0443403592201073"><ele>357.2</ele><time>2026-04-06T16:09:57.001Z</time></trkpt><trkpt lat="45.80621947129412" lon="1.0443525490661887"><ele>358.8</ele><time>2026-04-06T16:09:59.001Z</time></trkpt><trkpt lat="45.80611428094908" lon="1.0443476207294562"><ele>360.40000000000003</ele><time>2026-04-06T16:10:01.001Z</time></trkpt><trkpt lat="45.806006586192616" lon="1.0443407188010845"><ele>362.0</ele><time>2026-04-06T16:10:03.001Z</time></trkpt><trkpt lat="45.805942921854474" lon="1.0443325168264501"><ele>362.6</ele><time>2026-04-06T16:10:04.001Z</time></trkpt><trkpt lat="45.80585172430163" lon="1.0442979572917217"><ele>363.20000000000005</ele><time>2026-04-06T16:10:06.001Z</time></trkpt><trkpt lat="45.80576686934421" lon="1.0442083821236583"><ele>363.8</ele><time>2026-04-06T16:10:08.001Z</time></trkpt><trkpt lat="45.805683342439096" lon="1.0441299968515574"><ele>364.4</ele><time>2026-04-06T16:10:10.001Z</time></trkpt><trkpt lat="45.80557635150281" lon="1.04404779975762"><ele>365.0</ele><time>2026-04-06T16:10:12.001Z</time></trkpt><trkpt lat="45.80552313640174" lon="1.0439989734428765"><ele>365.0</ele><time>2026-04-06T16:10:13.001Z</time></trkpt><trkpt lat="45.80542056814192" lon="1.043897964845554"><ele>365.0</ele><time>2026-04-06T16:10:15.002Z</time></trkpt><trkpt lat="45.805317513392666" lon="1.0438088226896463"><ele>365.0</ele><time>2026-04-06T16:10:17.002Z</time></trkpt><trkpt lat="45.805229320811584" lon="1.0437589433052672"><ele>365.0</ele><time>2026-04-06T16:10:19Z</time></trkpt><trkpt lat="45.80513926525197" lon="1.0436832349223895"><ele>365.0</ele><time>2026-04-06T16:10:21Z</time></trkpt><trkpt lat="45.8050551992301" lon="1.043592958748881"><ele>365.6666666666667</ele><time>2026-04-06T16:10:23Z</time></trkpt><trkpt lat="45.80499693115217" lon="1.0435386040842594"><ele>366.33333333333337</ele><time>2026-04-06T16:10:24Z</time></trkpt><trkpt lat="45.80494139069588" lon="1.043487363559303"><ele>367.0</ele><time>2026-04-06T16:10:25Z</time></trkpt><trkpt lat="45.80485002680778" lon="1.0434123395812411"><ele>367.6666666666667</ele><time>2026-04-06T16:10:27Z</time></trkpt><trkpt lat="45.80475927772396" lon="1.0433666144596965"><ele>368.3333333333333</ele><time>2026-04-06T16:10:29Z</time></trkpt><trkpt lat="45.8046497821837" lon="1.0433393677220575"><ele>369.0</ele><time>2026-04-06T16:10:31Z</time></trkpt><trkpt lat="45.80456915192809" lon="1.0433263958192749"><ele>369.0</ele><time>2026-04-06T16:10:33Z</time></trkpt><trkpt lat="45.80447064842314" lon="1.0433189780622785"><ele>369.0</ele><time>2026-04-06T16:10:35Z</time></trkpt><trkpt lat="45.80436002887833" lon="1.0432858602428827"><ele>369.0</ele><time>2026-04-06T16:10:37Z</time></trkpt><trkpt lat="45.8042424385506" lon="1.0432645629208048"><ele>369.0</ele><time>2026-04-06T16:10:39Z</time></trkpt><trkpt lat="45.80418059554007" lon="1.0432448394852254"><ele>369.0</ele><time>2026-04-06T16:10:40Z</time></trkpt><trkpt lat="45.80407415305011" lon="1.043223609768933"><ele>368.6</ele><time>2026-04-06T16:10:42Z</time></trkpt><trkpt lat="45.80395337816203" lon="1.0431816227683481"><ele>368.2</ele><time>2026-04-06T16:10:44Z</time></trkpt><trkpt lat="45.803839975505525" lon="1.0431588922491937"><ele>367.8</ele><time>2026-04-06T16:10:46Z</time></trkpt><trkpt lat="45.803727908591284" lon="1.0431523931096485"><ele>367.40000000000003</ele><time>2026-04-06T16:10:48Z</time></trkpt><trkpt lat="45.803632362712456" lon="1.043118777425399"><ele>367.0</ele><time>2026-04-06T16:10:50Z</time></trkpt><trkpt lat="45.80355868690008" lon="1.043054798275407"><ele>367.0</ele><time>2026-04-06T16:10:52Z</time></trkpt><trkpt lat="45.80351658034753" lon="1.0429826111948324"><ele>367.0</ele><time>2026-04-06T16:10:54Z</time></trkpt><trkpt lat="45.80342753726395" lon="1.0429619241238932"><ele>367.0</ele><time>2026-04-06T16:10:56Z</time></trkpt><trkpt lat="45.80333505115444" lon="1.0429395922126146"><ele>367.0</ele><time>2026-04-06T16:10:58Z</time></trkpt><trkpt lat="45.80325084685768" lon="1.0429740801525795"><ele>367.0</ele><time>2026-04-06T16:11:00Z</time></trkpt><trkpt lat="45.8031751749147" lon="1.0430921157530582"><ele>367.0</ele><time>2026-04-06T16:11:02Z</time></trkpt><trkpt lat="45.80310335610362" lon="1.0431999476185332"><ele>368.6</ele><time>2026-04-06T16:11:04.001Z</time></trkpt><trkpt lat="45.80303136275418" lon="1.0433359909641065"><ele>370.20000000000005</ele><time>2026-04-06T16:11:06.001Z</time></trkpt><trkpt lat="45.80295945809177" lon="1.0434325835791753"><ele>371.8</ele><time>2026-04-06T16:11:08.001Z</time></trkpt><trkpt lat="45.802894510307254" lon="1.043544555673338"><ele>373.4</ele><time>2026-04-06T16:11:10.001Z</time></trkpt><trkpt lat="45.80283823839742" lon="1.043649746462851"><ele>375.0</ele><time>2026-04-06T16:11:12.001Z</time></trkpt><trkpt lat="45.802783243864326" lon="1.043734623773843"><ele>375.0</ele><time>2026-04-06T16:11:14.001Z</time></trkpt><trkpt lat="45.80272834883745" lon="1.0438258711613384"><ele>375.0</ele><time>2026-04-06T16:11:26.001Z</time></trkpt><trkpt lat="45.802670253232364" lon="1.043925672412988"><ele>375.0</ele><time>2026-04-06T16:11:29.001Z</time></trkpt><trkpt lat="45.80260594915371" lon="1.0440448730393712"><ele>375.0</ele><time>2026-04-06T16:11:31.001Z</time></trkpt><trkpt lat="45.80254595435376" lon="1.0441634457623483"><ele>375.0</ele><time>2026-04-06T16:11:33.001Z</time></trkpt><trkpt lat="45.80248116154384" lon="1.044297122837236"><ele>377.0</ele><time>2026-04-06T16:11:35.001Z</time></trkpt><trkpt lat="45.80240190691639" lon="1.0444284661333176"><ele>379.0</ele><time>2026-04-06T16:11:37.001Z</time></trkpt><trkpt lat="45.80232983045248" lon="1.0445433480266664"><ele>381.0</ele><time>2026-04-06T16:11:39.001Z</time></trkpt><trkpt lat="45.802253619879195" lon="1.0446661187557733"><ele>383.0</ele><time>2026-04-06T16:11:41.001Z</time></trkpt><trkpt lat="45.80217700906403" lon="1.044789123777125"><ele>383.0</ele><time>2026-04-06T16:11:43.001Z</time></trkpt><trkpt lat="45.80213204810093" lon="1.0448676197540832"><ele>383.0</ele><time>2026-04-06T16:11:45.001Z</time></trkpt><trkpt lat="45.80204443761683" lon="1.0448736703519377"><ele>383.0</ele><time>2026-04-06T16:11:48.001Z</time></trkpt><trkpt lat="45.80199483635372" lon="1.0448180317711435"><ele>383.0</ele><time>2026-04-06T16:11:50.001Z</time></trkpt><trkpt lat="45.80195847167651" lon="1.0446636104010556"><ele>383.0</ele><time>2026-04-06T16:11:52.001Z</time></trkpt><trkpt lat="45.8019450089646" lon="1.0445587711056108"><ele>383.0</ele><time>2026-04-06T16:11:53.001Z</time></trkpt><trkpt lat="45.801935315598854" lon="1.0444571696490925"><ele>383.0</ele><time>2026-04-06T16:11:54.001Z</time></trkpt><trkpt lat="45.801892740874685" lon="1.0443191155346694"><ele>383.0</ele><time>2026-04-06T16:11:56.001Z</time></trkpt><trkpt lat="45.80187414187192" lon="1.044186081733655"><ele>383.0</ele><time>2026-04-06T16:11:58.001Z</time></trkpt><trkpt lat="45.80184456924302" lon="1.0440360533358748"><ele>383.0</ele><time>2026-04-06T16:12:00.001Z</time></trkpt><trkpt lat="45.80182921241673" lon="1.0438884219598754"><ele>383.0</ele><time>2026-04-06T16:12:02.001Z</time></trkpt><trkpt lat="45.801806940472545" lon="1.0437969920186332"><ele>384.59999999999997</ele><time>2026-04-06T16:12:03.001Z</time></trkpt><trkpt lat="45.80175776886546" lon="1.0436184724324147"><ele>386.2</ele><time>2026-04-06T16:12:05.001Z</time></trkpt><trkpt lat="45.80173641410101" lon="1.0435030801273202"><ele>387.8</ele><time>2026-04-06T16:12:06.001Z</time></trkpt><trkpt lat="45.8017128664811" lon="1.0433619257510947"><ele>389.4</ele><time>2026-04-06T16:12:08.001Z</time></trkpt><trkpt lat="45.80167374606856" lon="1.0432461054735795"><ele>391.0</ele><time>2026-04-06T16:12:28Z</time></trkpt><trkpt lat="45.801667374824426" lon="1.0430799176101764"><ele>391.0</ele><time>2026-04-06T16:12:30Z</time></trkpt><trkpt lat="45.80164601310684" lon="1.0429469449865003"><ele>391.0</ele><time>2026-04-06T16:12:32Z</time></trkpt><trkpt lat="45.80161292615984" lon="1.042842526889491"><ele>391.0</ele><time>2026-04-06T16:12:34Z</time></trkpt><trkpt lat="45.80158804283714" lon="1.0426999791702554"><ele>391.0</ele><time>2026-04-06T16:12:36Z</time></trkpt><trkpt lat="45.801560542021775" lon="1.0424868218812406"><ele>391.0</ele><time>2026-04-06T16:12:38Z</time></trkpt><trkpt lat="45.80154414465193" lon="1.0423895437509498"><ele>390.4</ele><time>2026-04-06T16:12:39Z</time></trkpt><trkpt lat="45.80151356328987" lon="1.0422895068614175"><ele>389.8</ele><time>2026-04-06T16:12:40Z</time></trkpt><trkpt lat="45.80145742513119" lon="1.0421286518665298"><ele>389.2</ele><time>2026-04-06T16:12:42Z</time></trkpt><trkpt lat="45.801424366079914" lon="1.0420238667631334"><ele>388.59999999999997</ele><time>2026-04-06T16:12:43Z</time></trkpt><trkpt lat="45.801375089041784" lon="1.0418683625999796"><ele>388.0</ele><time>2026-04-06T16:12:45Z</time></trkpt><trkpt lat="45.80130369043968" lon="1.0417201420310416"><ele>388.00000000000006</ele><time>2026-04-06T16:12:47Z</time></trkpt><trkpt lat="45.801262486582715" lon="1.0416501192590177"><ele>388.0</ele><time>2026-04-06T16:12:48Z</time></trkpt><trkpt lat="45.80121161596932" lon="1.0415620161518107"><ele>388.0</ele><time>2026-04-06T16:12:49Z</time></trkpt><trkpt lat="45.801151915705915" lon="1.0414887462661953"><ele>388.0</ele><time>2026-04-06T16:12:50Z</time></trkpt><trkpt lat="45.80108961110563" lon="1.041333715182526"><ele>388.00000000000006</ele><time>2026-04-06T16:12:52Z</time></trkpt><trkpt lat="45.801053533865655" lon="1.041258362156749"><ele>388.0</ele><time>2026-04-06T16:12:53Z</time></trkpt><trkpt lat="45.80100562079505" lon="1.0411840817195117"><ele>389.2</ele><time>2026-04-06T16:12:54Z</time></trkpt><trkpt lat="45.800949462174145" lon="1.0411066477991242"><ele>390.4</ele><time>2026-04-06T16:12:55Z</time></trkpt><trkpt lat="45.80087389250479" lon="1.0410312967386006"><ele>391.59999999999997</ele><time>2026-04-06T16:12:56Z</time></trkpt><trkpt lat="45.80079253448809" lon="1.040964122274391"><ele>392.79999999999995</ele><time>2026-04-06T16:12:57Z</time></trkpt><trkpt lat="45.80070838672025" lon="1.0408863293016724"><ele>394.0</ele><time>2026-04-06T16:12:58Z</time></trkpt><trkpt lat="45.8006217331774" lon="1.0408160637737631"><ele>393.1666666666667</ele><time>2026-04-06T16:12:59Z</time></trkpt><trkpt lat="45.80053946399424" lon="1.040747330306611"><ele>392.33333333333337</ele><time>2026-04-06T16:13:00Z</time></trkpt><trkpt lat="45.80046429550053" lon="1.0406855469049165"><ele>391.5</ele><time>2026-04-06T16:13:01Z</time></trkpt><trkpt lat="45.80038700189835" lon="1.040627378917769"><ele>390.66666666666663</ele><time>2026-04-06T16:13:02Z</time></trkpt><trkpt lat="45.80032121000948" lon="1.040579579054925"><ele>389.8333333333333</ele><time>2026-04-06T16:13:03Z</time></trkpt><trkpt lat="45.80025810910828" lon="1.0405362590829514"><ele>389.0</ele><time>2026-04-06T16:13:04Z</time></trkpt><trkpt lat="45.80018250153175" lon="1.0404640560183283"><ele>389.8333333333333</ele><time>2026-04-06T16:13:05Z</time></trkpt><trkpt lat="45.8001063262077" lon="1.0404003945855589"><ele>390.66666666666663</ele><time>2026-04-06T16:13:06Z</time></trkpt><trkpt lat="45.800038864944874" lon="1.0403256278852773"><ele>391.5</ele><time>2026-04-06T16:13:07Z</time></trkpt><trkpt lat="45.799965043110944" lon="1.0402656082624302"><ele>392.33333333333337</ele><time>2026-04-06T16:13:08Z</time></trkpt><trkpt lat="45.799904265802326" lon="1.040208530041733"><ele>393.1666666666667</ele><time>2026-04-06T16:13:09.001Z</time></trkpt><trkpt lat="45.79984528078083" lon="1.040157474312716"><ele>394.0</ele><time>2026-04-06T16:13:10.001Z</time></trkpt><trkpt lat="45.799751059863326" lon="1.0400560073554328"><ele>394.0</ele><time>2026-04-06T16:13:12.001Z</time></trkpt><trkpt lat="45.799674704919525" lon="1.0399725718329513"><ele>394.0</ele><time>2026-04-06T16:13:14.001Z</time></trkpt><trkpt lat="45.799624542640856" lon="1.0398434883789667"><ele>394.0</ele><time>2026-04-06T16:13:24.001Z</time></trkpt><trkpt lat="45.79964889879996" lon="1.0397223363272663"><ele>394.0</ele><time>2026-04-06T16:13:25.001Z</time></trkpt><trkpt lat="45.79963358054502" lon="1.0395934814627437"><ele>394.0</ele><time>2026-04-06T16:13:26.001Z</time></trkpt><trkpt lat="45.79961376786319" lon="1.039426187425136"><ele>394.25</ele><time>2026-04-06T16:13:27.001Z</time></trkpt><trkpt lat="45.79959144349722" lon="1.039238655277016"><ele>394.5</ele><time>2026-04-06T16:13:28.001Z</time></trkpt><trkpt lat="45.799565751534246" lon="1.0390457053427444"><ele>394.75</ele><time>2026-04-06T16:13:29.001Z</time></trkpt><trkpt lat="45.799524861404535" lon="1.0388618556887148"><ele>395.0</ele><time>2026-04-06T16:13:30.001Z</time></trkpt><trkpt lat="45.799505563052186" lon="1.0386701273626353"><ele>395.0</ele><time>2026-04-06T16:13:31.001Z</time></trkpt><trkpt lat="45.799481943398874" lon="1.038476614453178"><ele>395.0</ele><time>2026-04-06T16:13:32.001Z</time></trkpt><trkpt lat="45.7994611923949" lon="1.038304307326148"><ele>395.0</ele><time>2026-04-06T16:13:33.001Z</time></trkpt><trkpt lat="45.79943683872717" lon="1.0381518123710443"><ele>395.0</ele><time>2026-04-06T16:13:34.001Z</time></trkpt><trkpt lat="45.799394417683644" lon="1.0380171812293892"><ele>395.16666666666663</ele><time>2026-04-06T16:13:35.001Z</time></trkpt><trkpt lat="45.79934430430511" lon="1.0378881060705534"><ele>395.3333333333333</ele><time>2026-04-06T16:13:36.001Z</time></trkpt><trkpt lat="45.799302815861594" lon="1.037768366505717"><ele>395.5</ele><time>2026-04-06T16:13:37.001Z</time></trkpt><trkpt lat="45.799268851080605" lon="1.0376581319496512"><ele>395.66666666666663</ele><time>2026-04-06T16:13:38.001Z</time></trkpt><trkpt lat="45.79923691854662" lon="1.0375486076179077"><ele>395.8333333333333</ele><time>2026-04-06T16:13:39.001Z</time></trkpt><trkpt lat="45.79920575901567" lon="1.0374655998571312"><ele>396.0</ele><time>2026-04-06T16:13:40.001Z</time></trkpt><trkpt lat="45.799175159002935" lon="1.0373776426101164"><ele>396.25</ele><time>2026-04-06T16:13:42.001Z</time></trkpt><trkpt lat="45.79898547612443" lon="1.0374095435767958"><ele>396.5</ele><time>2026-04-06T16:13:48.001Z</time></trkpt><trkpt lat="45.798903382255205" lon="1.0374594646703144"><ele>396.75</ele><time>2026-04-06T16:13:49.001Z</time></trkpt><trkpt lat="45.798814748443554" lon="1.0375028957538137"><ele>397.0</ele><time>2026-04-06T16:13:50.001Z</time></trkpt><trkpt lat="45.798713932611236" lon="1.0375545370164871"><ele>397.0</ele><time>2026-04-06T16:13:51.001Z</time></trkpt><trkpt lat="45.798602761712424" lon="1.0376144386799866"><ele>397.0</ele><time>2026-04-06T16:13:52.001Z</time></trkpt><trkpt lat="45.79849286427264" lon="1.0376653698402503"><ele>397.0</ele><time>2026-04-06T16:13:53.001Z</time></trkpt><trkpt lat="45.79837953808639" lon="1.0377151929270503"><ele>397.0</ele><time>2026-04-06T16:13:54.001Z</time></trkpt><trkpt lat="45.79826392307774" lon="1.0377744693664188"><ele>397.0</ele><time>2026-04-06T16:13:55.001Z</time></trkpt><trkpt lat="45.79813259103051" lon="1.0378408261481344"><ele>397.0</ele><time>2026-04-06T16:13:56.001Z</time></trkpt><trkpt lat="45.79800023743198" lon="1.0379071300549514"><ele>397.0</ele><time>2026-04-06T16:13:57.001Z</time></trkpt><trkpt lat="45.79786405008424" lon="1.0379755655247913"><ele>397.0</ele><time>2026-04-06T16:13:58.001Z</time></trkpt><trkpt lat="45.79772720067595" lon="1.038046122015444"><ele>397.0</ele><time>2026-04-06T16:13:59.001Z</time></trkpt><trkpt lat="45.79758992512569" lon="1.0381127170942248"><ele>397.0</ele><time>2026-04-06T16:14:00.001Z</time></trkpt><trkpt lat="45.79744809200155" lon="1.0381771283314885"><ele>397.0</ele><time>2026-04-06T16:14:01.001Z</time></trkpt><trkpt lat="45.79730659582205" lon="1.0382406873631784"><ele>397.0</ele><time>2026-04-06T16:14:02.001Z</time></trkpt><trkpt lat="45.797168739020755" lon="1.0383186348569007"><ele>397.6666666666667</ele><time>2026-04-06T16:14:03.001Z</time></trkpt><trkpt lat="45.79701784882763" lon="1.0384128615289288"><ele>398.33333333333337</ele><time>2026-04-06T16:14:04.001Z</time></trkpt><trkpt lat="45.79687961400959" lon="1.0385268298047567"><ele>399.0</ele><time>2026-04-06T16:14:05.001Z</time></trkpt><trkpt lat="45.7967476530188" lon="1.0386561805247274"><ele>399.0</ele><time>2026-04-06T16:14:06.001Z</time></trkpt><trkpt lat="45.79661960741759" lon="1.0388035851283728"><ele>399.0</ele><time>2026-04-06T16:14:07.001Z</time></trkpt><trkpt lat="45.796499124589104" lon="1.0389714400232974"><ele>399.0</ele><time>2026-04-06T16:14:08.001Z</time></trkpt><trkpt lat="45.796391317049036" lon="1.0391645748193734"><ele>400.0</ele><time>2026-04-06T16:14:09.001Z</time></trkpt><trkpt lat="45.79628794370817" lon="1.0393629446956478"><ele>401.0</ele><time>2026-04-06T16:14:10.001Z</time></trkpt><trkpt lat="45.79618040501307" lon="1.0395692374402237"><ele>402.0</ele><time>2026-04-06T16:14:11.001Z</time></trkpt><trkpt lat="45.79607427038558" lon="1.0397710541147946"><ele>402.66666666666663</ele><time>2026-04-06T16:14:12.001Z</time></trkpt><trkpt lat="45.79597037518907" lon="1.0399498430680614"><ele>403.3333333333333</ele><time>2026-04-06T16:14:13.001Z</time></trkpt><trkpt lat="45.7958767982833" lon="1.0401190307423531"><ele>404.0</ele><time>2026-04-06T16:14:14.001Z</time></trkpt><trkpt lat="45.79578790789158" lon="1.0402724524777787"><ele>404.75</ele><time>2026-04-06T16:14:15.001Z</time></trkpt><trkpt lat="45.79569779235921" lon="1.040413245867407"><ele>405.5</ele><time>2026-04-06T16:14:16.001Z</time></trkpt><trkpt lat="45.795586997820294" lon="1.0405423467194308"><ele>406.25</ele><time>2026-04-06T16:14:17.001Z</time></trkpt><trkpt lat="45.79544982153173" lon="1.0406618483480243"><ele>407.0</ele><time>2026-04-06T16:14:18.001Z</time></trkpt><trkpt lat="45.795287805872746" lon="1.0407669750774595"><ele>406.66666666666663</ele><time>2026-04-06T16:14:19.001Z</time></trkpt><trkpt lat="45.7951030330622" lon="1.0408387630609572"><ele>406.33333333333337</ele><time>2026-04-06T16:14:20.001Z</time></trkpt><trkpt lat="45.794905139613775" lon="1.0408896866304966"><ele>406.0</ele><time>2026-04-06T16:14:21.001Z</time></trkpt><trkpt lat="45.79469455355689" lon="1.0409351604350023"><ele>406.0</ele><time>2026-04-06T16:14:22.001Z</time></trkpt><trkpt lat="45.79449895347981" lon="1.0409939554157248"><ele>406.0</ele><time>2026-04-06T16:14:23.001Z</time></trkpt><trkpt lat="45.79429388781977" lon="1.0410445638554282"><ele>406.0</ele><time>2026-04-06T16:14:24.001Z</time></trkpt><trkpt lat="45.79409555542196" lon="1.0411034497250706"><ele>405.33333333333337</ele><time>2026-04-06T16:14:25.001Z</time></trkpt><trkpt lat="45.79389250962831" lon="1.041160468021688"><ele>404.66666666666663</ele><time>2026-04-06T16:14:26.002Z</time></trkpt><trkpt lat="45.793694068270334" lon="1.04121245849439"><ele>404.0</ele><time>2026-04-06T16:14:27.002Z</time></trkpt><trkpt lat="45.79349938586914" lon="1.041269083514962"><ele>404.0</ele><time>2026-04-06T16:14:28.002Z</time></trkpt><trkpt lat="45.793303329647806" lon="1.0413265559226985"><ele>404.0</ele><time>2026-04-06T16:14:29.002Z</time></trkpt><trkpt lat="45.79310799093433" lon="1.0413824021905476"><ele>404.0</ele><time>2026-04-06T16:14:30.002Z</time></trkpt><trkpt lat="45.79291921571246" lon="1.0414363545131164"><ele>404.0</ele><time>2026-04-06T16:14:31Z</time></trkpt><trkpt lat="45.792734890225354" lon="1.041487536996629"><ele>404.0</ele><time>2026-04-06T16:14:32Z</time></trkpt><trkpt lat="45.792548417131776" lon="1.0415377230847453"><ele>404.0</ele><time>2026-04-06T16:14:33Z</time></trkpt><trkpt lat="45.79236309692035" lon="1.0415916651375063"><ele>404.66666666666663</ele><time>2026-04-06T16:14:34Z</time></trkpt><trkpt lat="45.792179735445124" lon="1.0416535023509705"><ele>405.33333333333337</ele><time>2026-04-06T16:14:35Z</time></trkpt><trkpt lat="45.79199876602022" lon="1.0417280911994815"><ele>406.0</ele><time>2026-04-06T16:14:36Z</time></trkpt><trkpt lat="45.791818772864936" lon="1.0418172383582602"><ele>406.0</ele><time>2026-04-06T16:14:37Z</time></trkpt><trkpt lat="45.79164054138572" lon="1.0419320381239383"><ele>406.0</ele><time>2026-04-06T16:14:38Z</time></trkpt><trkpt lat="45.79146403580585" lon="1.0420482548218717"><ele>406.0</ele><time>2026-04-06T16:14:39Z</time></trkpt><trkpt lat="45.79129040119747" lon="1.0421636245823929"><ele>406.0</ele><time>2026-04-06T16:14:40Z</time></trkpt><trkpt lat="45.79112905886051" lon="1.0422768546388994"><ele>406.0</ele><time>2026-04-06T16:14:41Z</time></trkpt><trkpt lat="45.7909776229933" lon="1.042375618028379"><ele>406.0</ele><time>2026-04-06T16:14:42Z</time></trkpt><trkpt lat="45.79082722940591" lon="1.0424797148346658"><ele>405.33333333333337</ele><time>2026-04-06T16:14:43Z</time></trkpt><trkpt lat="45.79067924861629" lon="1.0425700137560994"><ele>404.66666666666663</ele><time>2026-04-06T16:14:44Z</time></trkpt><trkpt lat="45.79054599861446" lon="1.042617984723929"><ele>404.0</ele><time>2026-04-06T16:14:45Z</time></trkpt><trkpt lat="45.790395459751274" lon="1.042704298953915"><ele>404.0</ele><time>2026-04-06T16:14:46Z</time></trkpt><trkpt lat="45.79025562220815" lon="1.0427594954676411"><ele>404.0</ele><time>2026-04-06T16:14:47Z</time></trkpt><trkpt lat="45.790121651454164" lon="1.042795846231715"><ele>404.0</ele><time>2026-04-06T16:14:48Z</time></trkpt><trkpt lat="45.78999259532984" lon="1.0428271653553898"><ele>404.0</ele><time>2026-04-06T16:14:49Z</time></trkpt><trkpt lat="45.78986436820692" lon="1.042862944433864"><ele>403.3333333333333</ele><time>2026-04-06T16:14:50Z</time></trkpt><trkpt lat="45.78971873340395" lon="1.0429001017964739"><ele>402.66666666666663</ele><time>2026-04-06T16:14:51Z</time></trkpt><trkpt lat="45.78956214139181" lon="1.0429375667085534"><ele>402.0</ele><time>2026-04-06T16:14:52Z</time></trkpt><trkpt lat="45.789400826585045" lon="1.0429815161749003"><ele>401.33333333333337</ele><time>2026-04-06T16:14:53Z</time></trkpt><trkpt lat="45.78922972133709" lon="1.0430295873774544"><ele>400.6666666666667</ele><time>2026-04-06T16:14:54Z</time></trkpt><trkpt lat="45.78905653430247" lon="1.0430728302563064"><ele>400.0</ele><time>2026-04-06T16:14:55Z</time></trkpt><trkpt lat="45.78887246432347" lon="1.0431126667400692"><ele>400.0</ele><time>2026-04-06T16:14:56Z</time></trkpt><trkpt lat="45.78867753966369" lon="1.0431582408239075"><ele>400.0</ele><time>2026-04-06T16:14:57Z</time></trkpt><trkpt lat="45.788516055911266" lon="1.0432117615708432"><ele>400.0</ele><time>2026-04-06T16:14:58Z</time></trkpt><trkpt lat="45.78834972791166" lon="1.0432798091583724"><ele>399.6666666666667</ele><time>2026-04-06T16:14:59Z</time></trkpt><trkpt lat="45.78819074084182" lon="1.043373938090752"><ele>399.33333333333337</ele><time>2026-04-06T16:15:00Z</time></trkpt><trkpt lat="45.78803819057675" lon="1.0434991081915759"><ele>399.0</ele><time>2026-04-06T16:15:01Z</time></trkpt><trkpt lat="45.78789896458454" lon="1.0436490222485821"><ele>399.0</ele><time>2026-04-06T16:15:02Z</time></trkpt><trkpt lat="45.787765658053374" lon="1.0438131453922372"><ele>399.0</ele><time>2026-04-06T16:15:03Z</time></trkpt><trkpt lat="45.78764798928093" lon="1.0439996440889632"><ele>399.0</ele><time>2026-04-06T16:15:04Z</time></trkpt><trkpt lat="45.78753334198187" lon="1.0441890885757434"><ele>398.0</ele><time>2026-04-06T16:15:05Z</time></trkpt><trkpt lat="45.78741622906359" lon="1.0443823218719714"><ele>397.0</ele><time>2026-04-06T16:15:06Z</time></trkpt><trkpt lat="45.78729701754358" lon="1.0445748993756534"><ele>396.0</ele><time>2026-04-06T16:15:07Z</time></trkpt><trkpt lat="45.78718031288261" lon="1.0447600045241363"><ele>396.0</ele><time>2026-04-06T16:15:08Z</time></trkpt><trkpt lat="45.78706991477602" lon="1.044937605737945"><ele>396.0</ele><time>2026-04-06T16:15:09Z</time></trkpt><trkpt lat="45.78697121692607" lon="1.0451181958332836"><ele>396.0</ele><time>2026-04-06T16:15:10Z</time></trkpt><trkpt lat="45.78688509304971" lon="1.0453113395760194"><ele>395.0</ele><time>2026-04-06T16:15:11Z</time></trkpt><trkpt lat="45.78681894772075" lon="1.0455243887126477"><ele>394.0</ele><time>2026-04-06T16:15:12Z</time></trkpt><trkpt lat="45.78678281600488" lon="1.045754430834128"><ele>393.0</ele><time>2026-04-06T16:15:13Z</time></trkpt><trkpt lat="45.78677035162295" lon="1.0459946921850052"><ele>393.0</ele><time>2026-04-06T16:15:14Z</time></trkpt><trkpt lat="45.78679157287197" lon="1.046252130889046"><ele>393.0</ele><time>2026-04-06T16:15:15Z</time></trkpt><trkpt lat="45.78683588365265" lon="1.0465044684604572"><ele>393.0</ele><time>2026-04-06T16:15:16Z</time></trkpt><trkpt lat="45.786902266606596" lon="1.046753902167254"><ele>390.33333333333337</ele><time>2026-04-06T16:15:17Z</time></trkpt><trkpt lat="45.786974972555036" lon="1.0470082831859604"><ele>387.6666666666667</ele><time>2026-04-06T16:15:18Z</time></trkpt><trkpt lat="45.78703729656751" lon="1.0472374617166673"><ele>385.0</ele><time>2026-04-06T16:15:19Z</time></trkpt><trkpt lat="45.78709572960078" lon="1.047458356700882"><ele>385.0</ele><time>2026-04-06T16:15:20.001Z</time></trkpt><trkpt lat="45.78714583486438" lon="1.0476841845577471"><ele>385.0</ele><time>2026-04-06T16:15:21.001Z</time></trkpt><trkpt lat="45.78718088781699" lon="1.0479138915252253"><ele>385.0</ele><time>2026-04-06T16:15:22.001Z</time></trkpt><trkpt lat="45.787189010223685" lon="1.0481361868081047"><ele>385.0</ele><time>2026-04-06T16:15:23.001Z</time></trkpt><trkpt lat="45.78716494898023" lon="1.0483367886055825"><ele>385.0</ele><time>2026-04-06T16:15:24.001Z</time></trkpt><trkpt lat="45.78711882981875" lon="1.0485204710532634"><ele>385.0</ele><time>2026-04-06T16:15:25.001Z</time></trkpt><trkpt lat="45.78705068288389" lon="1.0486892058877764"><ele>385.0</ele><time>2026-04-06T16:15:26.001Z</time></trkpt><trkpt lat="45.78695403831839" lon="1.048839268801736"><ele>385.6666666666667</ele><time>2026-04-06T16:15:27.001Z</time></trkpt><trkpt lat="45.786836783486294" lon="1.0489699295145993"><ele>386.33333333333337</ele><time>2026-04-06T16:15:28.001Z</time></trkpt><trkpt lat="45.78668255671375" lon="1.049082630610357"><ele>387.0</ele><time>2026-04-06T16:15:29.001Z</time></trkpt><trkpt lat="45.78651713933826" lon="1.049178526279027"><ele>387.0</ele><time>2026-04-06T16:15:30.001Z</time></trkpt><trkpt lat="45.78634923079877" lon="1.0492698441136916"><ele>387.0</ele><time>2026-04-06T16:15:31.001Z</time></trkpt><trkpt lat="45.78619458077772" lon="1.0493550703685286"><ele>387.0</ele><time>2026-04-06T16:15:32.001Z</time></trkpt><trkpt lat="45.78604706201925" lon="1.0494365234598673"><ele>387.33333333333337</ele><time>2026-04-06T16:15:33.001Z</time></trkpt><trkpt lat="45.78590266621883" lon="1.0495227565726466"><ele>387.6666666666667</ele><time>2026-04-06T16:15:34.001Z</time></trkpt><trkpt lat="45.7857620238028" lon="1.0496195808537259"><ele>388.0</ele><time>2026-04-06T16:15:35.001Z</time></trkpt><trkpt lat="45.7856467741557" lon="1.0497317007448945"><ele>388.0</ele><time>2026-04-06T16:15:36.001Z</time></trkpt><trkpt lat="45.78553977425682" lon="1.0498751417007812"><ele>388.0</ele><time>2026-04-06T16:15:37.001Z</time></trkpt><trkpt lat="45.78544747101099" lon="1.0500480834854924"><ele>388.0</ele><time>2026-04-06T16:15:38.001Z</time></trkpt><trkpt lat="45.785381592635545" lon="1.050256298840331"><ele>385.0</ele><time>2026-04-06T16:15:39.001Z</time></trkpt><trkpt lat="45.78533241698094" lon="1.0504756047806023"><ele>382.0</ele><time>2026-04-06T16:15:40.001Z</time></trkpt><trkpt lat="45.785288196197094" lon="1.0506859468161922"><ele>379.0</ele><time>2026-04-06T16:15:41.001Z</time></trkpt><trkpt lat="45.78522322227868" lon="1.0508718235950614"><ele>380.0</ele><time>2026-04-06T16:15:42.001Z</time></trkpt><trkpt lat="45.78512705787957" lon="1.0510208253675881"><ele>381.0</ele><time>2026-04-06T16:15:43.001Z</time></trkpt><trkpt lat="45.784990434984415" lon="1.0511327039826228"><ele>382.0</ele><time>2026-04-06T16:15:44.001Z</time></trkpt><trkpt lat="45.784846387228924" lon="1.0512367242025042"><ele>382.0</ele><time>2026-04-06T16:15:45.001Z</time></trkpt><trkpt lat="45.78470506344725" lon="1.0513489634716833"><ele>382.0</ele><time>2026-04-06T16:15:46.001Z</time></trkpt><trkpt lat="45.78455754052158" lon="1.0514473079567388"><ele>382.0</ele><time>2026-04-06T16:15:47.001Z</time></trkpt><trkpt lat="45.78441082837248" lon="1.051536318958991"><ele>383.0</ele><time>2026-04-06T16:15:48.001Z</time></trkpt><trkpt lat="45.784251536072105" lon="1.0515914923210912"><ele>384.0</ele><time>2026-04-06T16:15:49.001Z</time></trkpt><trkpt lat="45.784086136073675" lon="1.0516272836027971"><ele>385.0</ele><time>2026-04-06T16:15:50.001Z</time></trkpt><trkpt lat="45.78390713618271" lon="1.0516463717134354"><ele>383.0</ele><time>2026-04-06T16:15:51.001Z</time></trkpt><trkpt lat="45.78372997114299" lon="1.0516614978675196"><ele>381.0</ele><time>2026-04-06T16:15:52.001Z</time></trkpt><trkpt lat="45.78354613419219" lon="1.0516771151509665"><ele>379.0</ele><time>2026-04-06T16:15:53.001Z</time></trkpt><trkpt lat="45.78336250948266" lon="1.0517027736370728"><ele>378.0</ele><time>2026-04-06T16:15:54.001Z</time></trkpt><trkpt lat="45.78317384312782" lon="1.0517278407337418"><ele>377.0</ele><time>2026-04-06T16:15:55.001Z</time></trkpt><trkpt lat="45.782991535397635" lon="1.0517525003581631"><ele>376.0</ele><time>2026-04-06T16:15:56.001Z</time></trkpt><trkpt lat="45.78281423729338" lon="1.0518046596079136"><ele>375.3333333333333</ele><time>2026-04-06T16:15:57.001Z</time></trkpt><trkpt lat="45.782657634833036" lon="1.0518796162266226"><ele>374.6666666666667</ele><time>2026-04-06T16:15:58.001Z</time></trkpt><trkpt lat="45.78249752752241" lon="1.051987972315046"><ele>374.0</ele><time>2026-04-06T16:15:59.001Z</time></trkpt><trkpt lat="45.78235651378178" lon="1.0521263640006762"><ele>374.0</ele><time>2026-04-06T16:16:00.001Z</time></trkpt><trkpt lat="45.782228911033556" lon="1.0522736367339578"><ele>374.0</ele><time>2026-04-06T16:16:01.001Z</time></trkpt><trkpt lat="45.78211201133524" lon="1.052421707546654"><ele>374.0</ele><time>2026-04-06T16:16:02.001Z</time></trkpt><trkpt lat="45.78200845761077" lon="1.0525694136219947"><ele>373.2</ele><time>2026-04-06T16:16:03.001Z</time></trkpt><trkpt lat="45.78191312490571" lon="1.0526983033516042"><ele>372.4</ele><time>2026-04-06T16:16:04.001Z</time></trkpt><trkpt lat="45.78183316131597" lon="1.0527961520334563"><ele>371.6</ele><time>2026-04-06T16:16:05.001Z</time></trkpt><trkpt lat="45.78176470792433" lon="1.0528710664283711"><ele>370.8</ele><time>2026-04-06T16:16:06.001Z</time></trkpt><trkpt lat="45.78170957000744" lon="1.052931641460378"><ele>370.0</ele><time>2026-04-06T16:16:07.001Z</time></trkpt><trkpt lat="45.78164033827484" lon="1.0530005062585361"><ele>370.0</ele><time>2026-04-06T16:16:09.001Z</time></trkpt><trkpt lat="45.78169704787632" lon="1.0532562498697138"><ele>370.0</ele><time>2026-04-06T16:16:11.001Z</time></trkpt><trkpt lat="45.7817256432979" lon="1.0533631627534465"><ele>370.0</ele><time>2026-04-06T16:16:12.001Z</time></trkpt><trkpt lat="45.78175862017501" lon="1.0534684197748183"><ele>370.0</ele><time>2026-04-06T16:16:13.001Z</time></trkpt><trkpt lat="45.78179470752554" lon="1.053566867482773"><ele>370.0</ele><time>2026-04-06T16:16:14.001Z</time></trkpt><trkpt lat="45.781823835766325" lon="1.0536710972082095"><ele>368.66666666666663</ele><time>2026-04-06T16:16:15.001Z</time></trkpt><trkpt lat="45.78185372662257" lon="1.053781633770311"><ele>367.3333333333333</ele><time>2026-04-06T16:16:16.001Z</time></trkpt><trkpt lat="45.781877130714044" lon="1.0538957085901857"><ele>366.0</ele><time>2026-04-06T16:16:17.001Z</time></trkpt><trkpt lat="45.781907632383245" lon="1.0540096935977494"><ele>364.6666666666667</ele><time>2026-04-06T16:16:18.001Z</time></trkpt><trkpt lat="45.78194091808851" lon="1.0541156631877129"><ele>363.33333333333337</ele><time>2026-04-06T16:16:19.001Z</time></trkpt><trkpt lat="45.781969909905854" lon="1.0542200362458434"><ele>362.0</ele><time>2026-04-06T16:16:20.001Z</time></trkpt><trkpt lat="45.781982492139115" lon="1.0543243115884822"><ele>361.33333333333337</ele><time>2026-04-06T16:16:21.001Z</time></trkpt><trkpt lat="45.78201656310242" lon="1.0544124589139132"><ele>360.6666666666667</ele><time>2026-04-06T16:16:22.001Z</time></trkpt><trkpt lat="45.78208134932619" lon="1.0544681153071476"><ele>360.0</ele><time>2026-04-06T16:16:23.001Z</time></trkpt><trkpt lat="45.78214816243065" lon="1.054490928603179"><ele>359.3333333333333</ele><time>2026-04-06T16:16:24.001Z</time></trkpt><trkpt lat="45.78223881796028" lon="1.0543949113947018"><ele>358.66666666666663</ele><time>2026-04-06T16:16:25.001Z</time></trkpt><trkpt lat="45.78234762297288" lon="1.054318289742142"><ele>358.0</ele><time>2026-04-06T16:16:26.001Z</time></trkpt><trkpt lat="45.78248336619374" lon="1.0542160764262123"><ele>358.0</ele><time>2026-04-06T16:16:27.001Z</time></trkpt><trkpt lat="45.78260139309286" lon="1.0541645813517544"><ele>358.0</ele><time>2026-04-06T16:16:28.001Z</time></trkpt><trkpt lat="45.78269621261982" lon="1.0541310312671035"><ele>358.0</ele><time>2026-04-06T16:16:29.001Z</time></trkpt><trkpt lat="45.78280125224749" lon="1.054121945247812"><ele>358.0</ele><time>2026-04-06T16:16:30.001Z</time></trkpt><trkpt lat="45.78290406509157" lon="1.0541048166790843"><ele>358.0</ele><time>2026-04-06T16:16:31.001Z</time></trkpt><trkpt lat="45.78301928460416" lon="1.054071034702652"><ele>358.5</ele><time>2026-04-06T16:16:32.001Z</time></trkpt><trkpt lat="45.78313887553828" lon="1.054080396007562"><ele>359.0</ele><time>2026-04-06T16:16:33.001Z</time></trkpt><trkpt lat="45.78325688389415" lon="1.0540685303799122"><ele>359.5</ele><time>2026-04-06T16:16:34.001Z</time></trkpt><trkpt lat="45.78336641043222" lon="1.0540324550322397"><ele>360.0</ele><time>2026-04-06T16:16:35.001Z</time></trkpt><trkpt lat="45.783497816570005" lon="1.0540131157138264"><ele>360.5</ele><time>2026-04-06T16:16:36.001Z</time></trkpt><trkpt lat="45.78362380923348" lon="1.053984252083413"><ele>361.0</ele><time>2026-04-06T16:16:37Z</time></trkpt><trkpt lat="45.78374210768549" lon="1.053975832608034"><ele>361.5</ele><time>2026-04-06T16:16:38Z</time></trkpt><trkpt lat="45.78385217838645" lon="1.0539328631359"><ele>362.0</ele><time>2026-04-06T16:16:39Z</time></trkpt><trkpt lat="45.7839652296088" lon="1.0539106232306406"><ele>362.0</ele><time>2026-04-06T16:16:40Z</time></trkpt><trkpt lat="45.78408505176573" lon="1.0538818666577623"><ele>362.0</ele><time>2026-04-06T16:16:41Z</time></trkpt><trkpt lat="45.784209374355974" lon="1.0538705768708803"><ele>362.0</ele><time>2026-04-06T16:16:42Z</time></trkpt><trkpt lat="45.784329715222675" lon="1.0538494954586328"><ele>362.0</ele><time>2026-04-06T16:16:43Z</time></trkpt><trkpt lat="45.78444079143909" lon="1.0538346452951712"><ele>362.40000000000003</ele><time>2026-04-06T16:16:44Z</time></trkpt><trkpt lat="45.784556608135546" lon="1.0538148809580303"><ele>362.8</ele><time>2026-04-06T16:16:45Z</time></trkpt><trkpt lat="45.784681047325044" lon="1.0538230107745903"><ele>363.2</ele><time>2026-04-06T16:16:46Z</time></trkpt><trkpt lat="45.784788936550356" lon="1.053816951448869"><ele>363.6</ele><time>2026-04-06T16:16:47Z</time></trkpt><trkpt lat="45.784889200959604" lon="1.0538170201077632"><ele>364.0</ele><time>2026-04-06T16:16:48Z</time></trkpt><trkpt lat="45.78498855799241" lon="1.0538244744449357"><ele>364.0</ele><time>2026-04-06T16:16:49Z</time></trkpt><trkpt lat="45.78507402108134" lon="1.0538515701662188"><ele>364.0</ele><time>2026-04-06T16:16:50Z</time></trkpt><trkpt lat="45.78513607279584" lon="1.0538821926657882"><ele>364.0</ele><time>2026-04-06T16:16:51Z</time></trkpt><trkpt lat="45.78521474046656" lon="1.0540063924797134"><ele>364.0</ele><time>2026-04-06T16:16:53Z</time></trkpt><trkpt lat="45.78522951210232" lon="1.0541496242091701"><ele>364.0</ele><time>2026-04-06T16:16:54Z</time></trkpt><trkpt lat="45.78526944049292" lon="1.0543377822866502"><ele>363.75</ele><time>2026-04-06T16:16:55Z</time></trkpt><trkpt lat="45.7852906215079" lon="1.054551254393329"><ele>363.5</ele><time>2026-04-06T16:16:56Z</time></trkpt><trkpt lat="45.78529591659273" lon="1.0547330875793526"><ele>363.25</ele><time>2026-04-06T16:16:57Z</time></trkpt><trkpt lat="45.78531977904697" lon="1.0548958408631957"><ele>363.0</ele><time>2026-04-06T16:16:58Z</time></trkpt><trkpt lat="45.78533993275854" lon="1.0550646498432514"><ele>362.25</ele><time>2026-04-06T16:16:59Z</time></trkpt><trkpt lat="45.7853573325097" lon="1.0552607231497555"><ele>361.5</ele><time>2026-04-06T16:17:00Z</time></trkpt><trkpt lat="45.78538095429111" lon="1.0554541152631203"><ele>360.75</ele><time>2026-04-06T16:17:01Z</time></trkpt><trkpt lat="45.785398276395235" lon="1.0556220370909755"><ele>360.0</ele><time>2026-04-06T16:17:02Z</time></trkpt><trkpt lat="45.78541617838373" lon="1.0557737950242736"><ele>358.6</ele><time>2026-04-06T16:17:03Z</time></trkpt><trkpt lat="45.7854324853166" lon="1.0559188538205153"><ele>357.2</ele><time>2026-04-06T16:17:04Z</time></trkpt><trkpt lat="45.785452343187735" lon="1.0560671100605876"><ele>355.79999999999995</ele><time>2026-04-06T16:17:05Z</time></trkpt><trkpt lat="45.785465586737935" lon="1.0562104299210877"><ele>354.4</ele><time>2026-04-06T16:17:06Z</time></trkpt><trkpt lat="45.785483511481466" lon="1.0563506826643831"><ele>353.0</ele><time>2026-04-06T16:17:07Z</time></trkpt><trkpt lat="45.785503337488365" lon="1.056497614933374"><ele>352.0</ele><time>2026-04-06T16:17:08Z</time></trkpt><trkpt lat="45.785517200576784" lon="1.0566413646199742"><ele>351.0</ele><time>2026-04-06T16:17:09Z</time></trkpt><trkpt lat="45.78553411690694" lon="1.0567686215496506"><ele>350.0</ele><time>2026-04-06T16:17:10Z</time></trkpt><trkpt lat="45.78554920334508" lon="1.0569020044461317"><ele>349.0</ele><time>2026-04-06T16:17:11Z</time></trkpt><trkpt lat="45.78556335771373" lon="1.057023012898244"><ele>348.0</ele><time>2026-04-06T16:17:12Z</time></trkpt><trkpt lat="45.78557818908098" lon="1.0571384733121227"><ele>348.0</ele><time>2026-04-06T16:17:13Z</time></trkpt><trkpt lat="45.7855969098369" lon="1.0572566236735423"><ele>348.0</ele><time>2026-04-06T16:17:14Z</time></trkpt><trkpt lat="45.785616978236014" lon="1.0573648509972455"><ele>348.0</ele><time>2026-04-06T16:17:15Z</time></trkpt><trkpt lat="45.78564233764882" lon="1.0574708389080911"><ele>348.0</ele><time>2026-04-06T16:17:16Z</time></trkpt><trkpt lat="45.78566968929931" lon="1.0575819665903037"><ele>348.0</ele><time>2026-04-06T16:17:17Z</time></trkpt><trkpt lat="45.785682492395374" lon="1.0577142753309998"><ele>348.0</ele><time>2026-04-06T16:17:18Z</time></trkpt><trkpt lat="45.78570723579042" lon="1.0578309894185227"><ele>347.2</ele><time>2026-04-06T16:17:19Z</time></trkpt><trkpt lat="45.785732566191854" lon="1.0579533639868994"><ele>346.4</ele><time>2026-04-06T16:17:20Z</time></trkpt><trkpt lat="45.78575747914719" lon="1.0580737218033411"><ele>345.59999999999997</ele><time>2026-04-06T16:17:21Z</time></trkpt><trkpt lat="45.78579837250627" lon="1.0581915308359977"><ele>344.79999999999995</ele><time>2026-04-06T16:17:22Z</time></trkpt><trkpt lat="45.785815139191364" lon="1.058324907998182"><ele>344.0</ele><time>2026-04-06T16:17:23Z</time></trkpt><trkpt lat="45.78584858451126" lon="1.058466748924129"><ele>342.75</ele><time>2026-04-06T16:17:24Z</time></trkpt><trkpt lat="45.78588756486675" lon="1.0586314110223431"><ele>341.5</ele><time>2026-04-06T16:17:25Z</time></trkpt><trkpt lat="45.78592521593703" lon="1.0587904580930663"><ele>340.25</ele><time>2026-04-06T16:17:26Z</time></trkpt><trkpt lat="45.78596609445376" lon="1.058963138845377"><ele>339.0</ele><time>2026-04-06T16:17:27Z</time></trkpt><trkpt lat="45.786023690139245" lon="1.0591406025517818"><ele>337.25</ele><time>2026-04-06T16:17:28Z</time></trkpt><trkpt lat="45.786044448118425" lon="1.0593104635098325"><ele>335.5</ele><time>2026-04-06T16:17:29Z</time></trkpt><trkpt lat="45.78608962599488" lon="1.0594651791430099"><ele>333.75</ele><time>2026-04-06T16:17:30Z</time></trkpt><trkpt lat="45.78612588483667" lon="1.059618424282515"><ele>332.0</ele><time>2026-04-06T16:17:31Z</time></trkpt><trkpt lat="45.78614571949976" lon="1.0597684366195943"><ele>332.0</ele><time>2026-04-06T16:17:32.001Z</time></trkpt><trkpt lat="45.78619159013584" lon="1.0599053369685496"><ele>332.0</ele><time>2026-04-06T16:17:33.001Z</time></trkpt><trkpt lat="45.786207571605054" lon="1.0600522584234664"><ele>332.0</ele><time>2026-04-06T16:17:34.001Z</time></trkpt><trkpt lat="45.786235743046916" lon="1.0601860786033948"><ele>332.0</ele><time>2026-04-06T16:17:35.001Z</time></trkpt><trkpt lat="45.78626107123797" lon="1.0603204791471077"><ele>332.0</ele><time>2026-04-06T16:17:36.001Z</time></trkpt><trkpt lat="45.786282504539436" lon="1.060449057157221"><ele>331.0</ele><time>2026-04-06T16:17:37.001Z</time></trkpt><trkpt lat="45.78629771068266" lon="1.060570509730167"><ele>330.0</ele><time>2026-04-06T16:17:38.001Z</time></trkpt><trkpt lat="45.78630278913473" lon="1.0606890788032053"><ele>329.0</ele><time>2026-04-06T16:17:39.001Z</time></trkpt><trkpt lat="45.78632255810937" lon="1.060800341249883"><ele>328.0</ele><time>2026-04-06T16:17:40.001Z</time></trkpt><trkpt lat="45.786323028880346" lon="1.0608943410697695"><ele>327.0</ele><time>2026-04-06T16:17:41.001Z</time></trkpt><trkpt lat="45.78631453381827" lon="1.0610529599425391"><ele>326.0</ele><time>2026-04-06T16:17:43.001Z</time></trkpt><trkpt lat="45.78631687558783" lon="1.0611947595681612"><ele>324.40000000000003</ele><time>2026-04-06T16:17:45.001Z</time></trkpt><trkpt lat="45.786318744834816" lon="1.0613206901002084"><ele>322.8</ele><time>2026-04-06T16:17:47.001Z</time></trkpt><trkpt lat="45.78643093942215" lon="1.061460243187281"><ele>321.20000000000005</ele><time>2026-04-06T16:17:49.001Z</time></trkpt><trkpt lat="45.78649409556945" lon="1.0614949347523908"><ele>319.6</ele><time>2026-04-06T16:17:50.001Z</time></trkpt><trkpt lat="45.78660559265811" lon="1.0615326761362813"><ele>318.0</ele><time>2026-04-06T16:17:51.001Z</time></trkpt><trkpt lat="45.78669304571497" lon="1.0616050054152937"><ele>316.8333333333333</ele><time>2026-04-06T16:17:52.001Z</time></trkpt><trkpt lat="45.78676833136396" lon="1.0616466729611322"><ele>315.6666666666667</ele><time>2026-04-06T16:17:53.001Z</time></trkpt><trkpt lat="45.7868504502754" lon="1.0616921224895928"><ele>314.5</ele><time>2026-04-06T16:17:54.001Z</time></trkpt><trkpt lat="45.78692647758661" lon="1.0617258453975003"><ele>313.33333333333337</ele><time>2026-04-06T16:17:55.001Z</time></trkpt><trkpt lat="45.7870258929963" lon="1.0617679787525915"><ele>312.1666666666667</ele><time>2026-04-06T16:17:56.001Z</time></trkpt><trkpt lat="45.78711845890797" lon="1.0618100948455145"><ele>311.0</ele><time>2026-04-06T16:17:57.001Z</time></trkpt><trkpt lat="45.78721927149183" lon="1.06183246188138"><ele>310.0</ele><time>2026-04-06T16:17:58.001Z</time></trkpt><trkpt lat="45.78731818919338" lon="1.0618362364874707"><ele>309.0</ele><time>2026-04-06T16:17:59.001Z</time></trkpt><trkpt lat="45.787408766101876" lon="1.0618318410636491"><ele>308.0</ele><time>2026-04-06T16:18:00.001Z</time></trkpt><trkpt lat="45.78748270351945" lon="1.061825567066823"><ele>307.0</ele><time>2026-04-06T16:18:01.001Z</time></trkpt><trkpt lat="45.78755499159465" lon="1.0618315371855866"><ele>306.0</ele><time>2026-04-06T16:18:03.001Z</time></trkpt><trkpt lat="45.78758808290506" lon="1.0620027155225116"><ele>306.0</ele><time>2026-04-06T16:18:07.001Z</time></trkpt><trkpt lat="45.78759769518638" lon="1.0622092355853137"><ele>306.0</ele><time>2026-04-06T16:18:09.001Z</time></trkpt><trkpt lat="45.78761616641291" lon="1.0623509179818649"><ele>306.0</ele><time>2026-04-06T16:18:10.001Z</time></trkpt><trkpt lat="45.78763947107353" lon="1.0625320596774022"><ele>306.0</ele><time>2026-04-06T16:18:11.001Z</time></trkpt><trkpt lat="45.78766859328428" lon="1.0627400586640214"><ele>303.75</ele><time>2026-04-06T16:18:12.001Z</time></trkpt><trkpt lat="45.78769436203929" lon="1.0629543727489552"><ele>301.5</ele><time>2026-04-06T16:18:13.001Z</time></trkpt><trkpt lat="45.78772030848297" lon="1.0631366494839063"><ele>299.25</ele><time>2026-04-06T16:18:14.001Z</time></trkpt><trkpt lat="45.7877402040191" lon="1.0632952461142011"><ele>297.0</ele><time>2026-04-06T16:18:15.001Z</time></trkpt><trkpt lat="45.78775999919825" lon="1.0634396145349465"><ele>296.4</ele><time>2026-04-06T16:18:16.001Z</time></trkpt><trkpt lat="45.78778094442419" lon="1.0635856557049366"><ele>295.79999999999995</ele><time>2026-04-06T16:18:17.001Z</time></trkpt><trkpt lat="45.78780597288587" lon="1.0637211819811123"><ele>295.2</ele><time>2026-04-06T16:18:18.001Z</time></trkpt><trkpt lat="45.78782842653023" lon="1.0638600542493901"><ele>294.59999999999997</ele><time>2026-04-06T16:18:19.001Z</time></trkpt><trkpt lat="45.787853449239584" lon="1.0639951685899232"><ele>294.0</ele><time>2026-04-06T16:18:20.001Z</time></trkpt><trkpt lat="45.7878696678777" lon="1.06411582733785"><ele>293.5</ele><time>2026-04-06T16:18:21.001Z</time></trkpt><trkpt lat="45.78789472344972" lon="1.0642208802044573"><ele>293.0</ele><time>2026-04-06T16:18:22.001Z</time></trkpt><trkpt lat="45.78791499256431" lon="1.0643243054296867"><ele>292.5</ele><time>2026-04-06T16:18:23.001Z</time></trkpt><trkpt lat="45.7879270032449" lon="1.0644711753510159"><ele>292.0</ele><time>2026-04-06T16:18:25.001Z</time></trkpt><trkpt lat="45.78793598204359" lon="1.0645725318320616"><ele>291.5</ele><time>2026-04-06T16:18:27.001Z</time></trkpt><trkpt lat="45.78783751605777" lon="1.064649269605261"><ele>291.0</ele><time>2026-04-06T16:18:30.001Z</time></trkpt><trkpt lat="45.7877626489947" lon="1.0646865666062832"><ele>291.75</ele><time>2026-04-06T16:18:31.001Z</time></trkpt><trkpt lat="45.78764490730073" lon="1.064694672960701"><ele>292.5</ele><time>2026-04-06T16:18:32.001Z</time></trkpt><trkpt lat="45.787510265376824" lon="1.0647444839169564"><ele>293.25</ele><time>2026-04-06T16:18:33.001Z</time></trkpt><trkpt lat="45.78740055637534" lon="1.06475070562502"><ele>294.0</ele><time>2026-04-06T16:18:34.001Z</time></trkpt><trkpt lat="45.78730976846933" lon="1.0647851243329414"><ele>294.0</ele><time>2026-04-06T16:18:35.001Z</time></trkpt><trkpt lat="45.78721755393567" lon="1.0648257356077655"><ele>294.0</ele><time>2026-04-06T16:18:36.001Z</time></trkpt><trkpt lat="45.78712230331064" lon="1.0648988535676904"><ele>294.0</ele><time>2026-04-06T16:18:37.001Z</time></trkpt><trkpt lat="45.78702843776086" lon="1.0649916630546254"><ele>294.0</ele><time>2026-04-06T16:18:38.001Z</time></trkpt><trkpt lat="45.78692732440978" lon="1.0650915543797652"><ele>294.0</ele><time>2026-04-06T16:18:39.001Z</time></trkpt><trkpt lat="45.78682533676911" lon="1.0651857322296703"><ele>292.59999999999997</ele><time>2026-04-06T16:18:40.001Z</time></trkpt><trkpt lat="45.78671245542451" lon="1.0652831562885938"><ele>291.2</ele><time>2026-04-06T16:18:41.001Z</time></trkpt><trkpt lat="45.786606930316516" lon="1.0653692577349894"><ele>289.79999999999995</ele><time>2026-04-06T16:18:42.001Z</time></trkpt><trkpt lat="45.786523442246036" lon="1.0654432954334754"><ele>288.4</ele><time>2026-04-06T16:18:43Z</time></trkpt><trkpt lat="45.7864611411748" lon="1.065536763474777"><ele>287.0</ele><time>2026-04-06T16:18:44Z</time></trkpt><trkpt lat="45.78643195834143" lon="1.0656511605716008"><ele>287.0</ele><time>2026-04-06T16:18:45Z</time></trkpt><trkpt lat="45.78643002492112" lon="1.0657729840274235"><ele>287.0</ele><time>2026-04-06T16:18:46Z</time></trkpt><trkpt lat="45.78641505613959" lon="1.0659114090178745"><ele>287.0</ele><time>2026-04-06T16:18:47Z</time></trkpt><trkpt lat="45.7864343596179" lon="1.0660883688504708"><ele>287.0</ele><time>2026-04-06T16:18:48Z</time></trkpt><trkpt lat="45.78642561002116" lon="1.066320122984384"><ele>287.33333333333337</ele><time>2026-04-06T16:18:49Z</time></trkpt><trkpt lat="45.7864358966256" lon="1.0665800895293918"><ele>287.6666666666667</ele><time>2026-04-06T16:18:50Z</time></trkpt><trkpt lat="45.786444304800526" lon="1.0667964597385422"><ele>288.0</ele><time>2026-04-06T16:18:51Z</time></trkpt><trkpt lat="45.78645547427522" lon="1.0669911875467006"><ele>288.0</ele><time>2026-04-06T16:18:52Z</time></trkpt><trkpt lat="45.78646752981941" lon="1.067179827630046"><ele>288.0</ele><time>2026-04-06T16:18:53Z</time></trkpt><trkpt lat="45.78647297526161" lon="1.0673619129747018"><ele>288.0</ele><time>2026-04-06T16:18:54Z</time></trkpt><trkpt lat="45.78645978331032" lon="1.0675477821925448"><ele>288.0</ele><time>2026-04-06T16:18:55Z</time></trkpt><trkpt lat="45.786456983338105" lon="1.0677163433515362"><ele>288.0</ele><time>2026-04-06T16:18:56Z</time></trkpt><trkpt lat="45.78644657233314" lon="1.0678841637143854"><ele>288.0</ele><time>2026-04-06T16:18:57Z</time></trkpt><trkpt lat="45.78643362858483" lon="1.0680654912222431"><ele>288.0</ele><time>2026-04-06T16:18:58Z</time></trkpt><trkpt lat="45.78641092255924" lon="1.0682202881176617"><ele>288.0</ele><time>2026-04-06T16:18:59Z</time></trkpt><trkpt lat="45.78638399505635" lon="1.0683857448139218"><ele>287.0</ele><time>2026-04-06T16:19:00Z</time></trkpt><trkpt lat="45.78636712474738" lon="1.0685848710645713"><ele>286.0</ele><time>2026-04-06T16:19:01Z</time></trkpt><trkpt lat="45.78637895845244" lon="1.0688139647439416"><ele>285.0</ele><time>2026-04-06T16:19:02Z</time></trkpt><trkpt lat="45.7863951907711" lon="1.0690598100365958"><ele>284.75</ele><time>2026-04-06T16:19:03Z</time></trkpt><trkpt lat="45.78641003316968" lon="1.0692717645396048"><ele>284.5</ele><time>2026-04-06T16:19:04Z</time></trkpt><trkpt lat="45.78641825875515" lon="1.069459175130962"><ele>284.25</ele><time>2026-04-06T16:19:05Z</time></trkpt><trkpt lat="45.78640781255542" lon="1.069627473983767"><ele>284.0</ele><time>2026-04-06T16:19:06Z</time></trkpt><trkpt lat="45.78640518702745" lon="1.0697625564146045"><ele>284.0</ele><time>2026-04-06T16:19:07Z</time></trkpt><trkpt lat="45.786395006792596" lon="1.069871260219785"><ele>284.0</ele><time>2026-04-06T16:19:08Z</time></trkpt><trkpt lat="45.78636754843162" lon="1.069988420672915"><ele>284.0</ele><time>2026-04-06T16:19:09Z</time></trkpt><trkpt lat="45.786333228165695" lon="1.0701437598630874"><ele>284.0</ele><time>2026-04-06T16:19:10Z</time></trkpt><trkpt lat="45.786272064271735" lon="1.0703201805612181"><ele>284.0</ele><time>2026-04-06T16:19:11Z</time></trkpt><trkpt lat="45.78620496055566" lon="1.070505109445897"><ele>284.0</ele><time>2026-04-06T16:19:12Z</time></trkpt><trkpt lat="45.78614770026547" lon="1.0707175327865843"><ele>284.0</ele><time>2026-04-06T16:19:13Z</time></trkpt><trkpt lat="45.786105806800656" lon="1.070918955711627"><ele>284.0</ele><time>2026-04-06T16:19:14Z</time></trkpt><trkpt lat="45.78606753796165" lon="1.071111890938312"><ele>284.0</ele><time>2026-04-06T16:19:15Z</time></trkpt><trkpt lat="45.78604956277269" lon="1.0713326413486688"><ele>282.6666666666667</ele><time>2026-04-06T16:19:16Z</time></trkpt><trkpt lat="45.78604239722369" lon="1.0715754211399586"><ele>281.3333333333333</ele><time>2026-04-06T16:19:17Z</time></trkpt><trkpt lat="45.78604008440477" lon="1.0718390038101326"><ele>280.0</ele><time>2026-04-06T16:19:18Z</time></trkpt><trkpt lat="45.78600537463819" lon="1.0721183146989761"><ele>283.3333333333333</ele><time>2026-04-06T16:19:19Z</time></trkpt><trkpt lat="45.78599754475661" lon="1.0723965168938745"><ele>286.6666666666667</ele><time>2026-04-06T16:19:20Z</time></trkpt><trkpt lat="45.78595383848587" lon="1.0726403954535784"><ele>290.0</ele><time>2026-04-06T16:19:21Z</time></trkpt><trkpt lat="45.78593093940705" lon="1.0728715225964223"><ele>290.0</ele><time>2026-04-06T16:19:22Z</time></trkpt><trkpt lat="45.785912343597566" lon="1.0730844680952718"><ele>290.0</ele><time>2026-04-06T16:19:23Z</time></trkpt><trkpt lat="45.78589539145518" lon="1.0732785916291754"><ele>290.0</ele><time>2026-04-06T16:19:24Z</time></trkpt><trkpt lat="45.78587901864569" lon="1.0734660809515142"><ele>290.0</ele><time>2026-04-06T16:19:25Z</time></trkpt><trkpt lat="45.78586501267398" lon="1.0736337188462017"><ele>289.33333333333337</ele><time>2026-04-06T16:19:26Z</time></trkpt><trkpt lat="45.785852929710586" lon="1.0737804574372936"><ele>288.6666666666667</ele><time>2026-04-06T16:19:27Z</time></trkpt><trkpt lat="45.78584150539957" lon="1.0739191973602558"><ele>288.0</ele><time>2026-04-06T16:19:28Z</time></trkpt><trkpt lat="45.78583147296521" lon="1.0740259489245998"><ele>287.3333333333333</ele><time>2026-04-06T16:19:29Z</time></trkpt><trkpt lat="45.78581964555935" lon="1.074135956662945"><ele>286.66666666666663</ele><time>2026-04-06T16:19:30Z</time></trkpt><trkpt lat="45.785769537020016" lon="1.074242180454402"><ele>286.0</ele><time>2026-04-06T16:19:31Z</time></trkpt><trkpt lat="45.785711121392026" lon="1.074325806382993"><ele>284.6</ele><time>2026-04-06T16:19:32Z</time></trkpt><trkpt lat="45.785617937659744" lon="1.0744228095918307"><ele>283.20000000000005</ele><time>2026-04-06T16:19:33Z</time></trkpt><trkpt lat="45.78551918610851" lon="1.074505066947143"><ele>281.79999999999995</ele><time>2026-04-06T16:19:34Z</time></trkpt><trkpt lat="45.78545295476192" lon="1.0745649722454051"><ele>280.4</ele><time>2026-04-06T16:19:35Z</time></trkpt><trkpt lat="45.78539592198058" lon="1.0746359924209765"><ele>279.0</ele><time>2026-04-06T16:19:36Z</time></trkpt><trkpt lat="45.78536148181456" lon="1.0747406128255985"><ele>279.0</ele><time>2026-04-06T16:19:37Z</time></trkpt><trkpt lat="45.785356912986515" lon="1.0748767990754575"><ele>279.0</ele><time>2026-04-06T16:19:38Z</time></trkpt><trkpt lat="45.78538104523769" lon="1.075048979916733"><ele>279.0</ele><time>2026-04-06T16:19:39Z</time></trkpt><trkpt lat="45.78546100798412" lon="1.075177176868691"><ele>279.0</ele><time>2026-04-06T16:19:40.001Z</time></trkpt><trkpt lat="45.78553643976407" lon="1.0752776142653218"><ele>279.0</ele><time>2026-04-06T16:19:41.001Z</time></trkpt><trkpt lat="45.785625006937146" lon="1.0754428163625094"><ele>278.0</ele><time>2026-04-06T16:19:42.001Z</time></trkpt><trkpt lat="45.78574557222057" lon="1.075603501728001"><ele>277.0</ele><time>2026-04-06T16:19:43.001Z</time></trkpt><trkpt lat="45.785865052276904" lon="1.0758100518998424"><ele>276.0</ele><time>2026-04-06T16:19:44.001Z</time></trkpt><trkpt lat="45.78599427948533" lon="1.076015436258384"><ele>276.25</ele><time>2026-04-06T16:19:45.001Z</time></trkpt><trkpt lat="45.786097697738946" lon="1.0761795025987284"><ele>276.5</ele><time>2026-04-06T16:19:46.001Z</time></trkpt><trkpt lat="45.78617941053574" lon="1.0763164296450654"><ele>276.75</ele><time>2026-04-06T16:19:47.001Z</time></trkpt><trkpt lat="45.78625234143527" lon="1.0764517590380744"><ele>277.0</ele><time>2026-04-06T16:19:48.001Z</time></trkpt><trkpt lat="45.786287874782126" lon="1.0766145627466999"><ele>277.0</ele><time>2026-04-06T16:19:49.001Z</time></trkpt><trkpt lat="45.78632876041554" lon="1.0767794578167056"><ele>277.0</ele><time>2026-04-06T16:19:50.001Z</time></trkpt><trkpt lat="45.78638095408494" lon="1.076951839426726"><ele>277.0</ele><time>2026-04-06T16:19:51.001Z</time></trkpt><trkpt lat="45.78642264074611" lon="1.0771337987540224"><ele>277.0</ele><time>2026-04-06T16:19:52.001Z</time></trkpt><trkpt lat="45.78645967099487" lon="1.0773079750802548"><ele>278.4</ele><time>2026-04-06T16:19:53.001Z</time></trkpt><trkpt lat="45.78648943999706" lon="1.0774640641677944"><ele>279.79999999999995</ele><time>2026-04-06T16:19:54.001Z</time></trkpt><trkpt lat="45.786509100756874" lon="1.077612273347793"><ele>281.2</ele><time>2026-04-06T16:19:55.001Z</time></trkpt><trkpt lat="45.7865257734531" lon="1.077749267225776"><ele>282.59999999999997</ele><time>2026-04-06T16:19:56.001Z</time></trkpt><trkpt lat="45.78653534885313" lon="1.0778719332836117"><ele>284.0</ele><time>2026-04-06T16:19:57.001Z</time></trkpt><trkpt lat="45.78654704651346" lon="1.077993128678054"><ele>284.0</ele><time>2026-04-06T16:19:58.001Z</time></trkpt><trkpt lat="45.78655754897259" lon="1.0781007386754886"><ele>284.0</ele><time>2026-04-06T16:19:59.001Z</time></trkpt><trkpt lat="45.78657215467888" lon="1.078241099642029"><ele>284.0</ele><time>2026-04-06T16:20:01.001Z</time></trkpt><trkpt lat="45.78657709327437" lon="1.0783668305811802"><ele>284.0</ele><time>2026-04-06T16:20:03.001Z</time></trkpt><trkpt lat="45.78652479896388" lon="1.0784832243702784"><ele>284.0</ele><time>2026-04-06T16:20:05.001Z</time></trkpt><trkpt lat="45.78649178479827" lon="1.0786350871119341"><ele>283.7142857142857</ele><time>2026-04-06T16:20:07.001Z</time></trkpt><trkpt lat="45.78650757772044" lon="1.0787380404824083"><ele>283.4285714285714</ele><time>2026-04-06T16:20:08.001Z</time></trkpt><trkpt lat="45.78654800654641" lon="1.0788125095257173"><ele>283.1428571428571</ele><time>2026-04-06T16:20:09.001Z</time></trkpt><trkpt lat="45.78658317763269" lon="1.0788925025464329"><ele>282.85714285714283</ele><time>2026-04-06T16:20:10.001Z</time></trkpt><trkpt lat="45.786600329962894" lon="1.0789891823350863"><ele>282.57142857142856</ele><time>2026-04-06T16:20:11.001Z</time></trkpt><trkpt lat="45.786631982024396" lon="1.0790726488836182"><ele>282.2857142857143</ele><time>2026-04-06T16:20:12.001Z</time></trkpt><trkpt lat="45.786693964423044" lon="1.0791892424783978"><ele>282.0</ele><time>2026-04-06T16:20:14.001Z</time></trkpt><trkpt lat="45.786740135769165" lon="1.0793090721010714"><ele>282.0</ele><time>2026-04-06T16:20:16.001Z</time></trkpt><trkpt lat="45.78677670144054" lon="1.0794412191752025"><ele>282.0</ele><time>2026-04-06T16:20:18.001Z</time></trkpt><trkpt lat="45.786773161720085" lon="1.0795709945750283"><ele>282.0</ele><time>2026-04-06T16:20:20.001Z</time></trkpt><trkpt lat="45.786740927058794" lon="1.0796609340281722"><ele>282.0</ele><time>2026-04-06T16:20:23.001Z</time></trkpt><trkpt lat="45.786609580791804" lon="1.0796902767327652"><ele>282.0</ele><time>2026-04-06T16:20:25.001Z</time></trkpt><trkpt lat="45.78652713248383" lon="1.0796796859202584"><ele>282.0</ele><time>2026-04-06T16:20:26.001Z</time></trkpt><trkpt lat="45.78643788274252" lon="1.079659645080538"><ele>282.0</ele><time>2026-04-06T16:20:27.001Z</time></trkpt><trkpt lat="45.78633905493889" lon="1.0796314331666546"><ele>282.0</ele><time>2026-04-06T16:20:28.001Z</time></trkpt><trkpt lat="45.78624613060761" lon="1.0795807784833897"><ele>282.0</ele><time>2026-04-06T16:20:29.001Z</time></trkpt><trkpt lat="45.78616094336454" lon="1.0795227110562127"><ele>282.0</ele><time>2026-04-06T16:20:30.001Z</time></trkpt><trkpt lat="45.78608069880124" lon="1.0794685836279763"><ele>282.3333333333333</ele><time>2026-04-06T16:20:31.001Z</time></trkpt><trkpt lat="45.78600256060178" lon="1.0794196333343815"><ele>282.6666666666667</ele><time>2026-04-06T16:20:32.001Z</time></trkpt><trkpt lat="45.7859344155774" lon="1.079374667551863"><ele>283.0</ele><time>2026-04-06T16:20:33.001Z</time></trkpt><trkpt lat="45.785875253822404" lon="1.0793401983091135"><ele>283.33333333333337</ele><time>2026-04-06T16:20:34.001Z</time></trkpt><trkpt lat="45.78577235143246" lon="1.0792708568664455"><ele>283.6666666666667</ele><time>2026-04-06T16:20:36.001Z</time></trkpt><trkpt lat="45.78569137046152" lon="1.0792329245247823"><ele>284.0</ele><time>2026-04-06T16:20:38.001Z</time></trkpt><trkpt lat="45.78560376983747" lon="1.0791841059931273"><ele>284.0</ele><time>2026-04-06T16:20:41.001Z</time></trkpt><trkpt lat="45.78552589693535" lon="1.0791467160352395"><ele>284.0</ele><time>2026-04-06T16:20:42.001Z</time></trkpt><trkpt lat="45.78544146102162" lon="1.079101653309159"><ele>284.0</ele><time>2026-04-06T16:20:43.001Z</time></trkpt><trkpt lat="45.785360161765226" lon="1.079071252275493"><ele>284.0</ele><time>2026-04-06T16:20:44.001Z</time></trkpt><trkpt lat="45.78528375174089" lon="1.0790497056610622"><ele>284.0</ele><time>2026-04-06T16:20:45.001Z</time></trkpt><trkpt lat="45.78520341928469" lon="1.0790415631368746"><ele>284.0</ele><time>2026-04-06T16:20:46.001Z</time></trkpt><trkpt lat="45.78511597596463" lon="1.079048823356593"><ele>285.2</ele><time>2026-04-06T16:20:47.001Z</time></trkpt><trkpt lat="45.78502599810548" lon="1.0790679015733013"><ele>286.4</ele><time>2026-04-06T16:20:48.001Z</time></trkpt><trkpt lat="45.78493091793008" lon="1.0790790256326115"><ele>287.6</ele><time>2026-04-06T16:20:49Z</time></trkpt><trkpt lat="45.78482963634609" lon="1.0790842784778887"><ele>288.8</ele><time>2026-04-06T16:20:50Z</time></trkpt><trkpt lat="45.784726621745016" lon="1.0790812865238686"><ele>290.0</ele><time>2026-04-06T16:20:51Z</time></trkpt><trkpt lat="45.78462027669177" lon="1.0790588915484791"><ele>290.0</ele><time>2026-04-06T16:20:52Z</time></trkpt><trkpt lat="45.784505230720285" lon="1.0790158587145853"><ele>290.0</ele><time>2026-04-06T16:20:53Z</time></trkpt><trkpt lat="45.784386854054226" lon="1.078970908958197"><ele>290.0</ele><time>2026-04-06T16:20:54Z</time></trkpt><trkpt lat="45.78426308433495" lon="1.078925225222653"><ele>290.0</ele><time>2026-04-06T16:20:55Z</time></trkpt><trkpt lat="45.78413193999459" lon="1.0788772424934108"><ele>289.75</ele><time>2026-04-06T16:20:56Z</time></trkpt><trkpt lat="45.78399628241281" lon="1.078827258390533"><ele>289.5</ele><time>2026-04-06T16:20:57Z</time></trkpt><trkpt lat="45.78385609201451" lon="1.0787714919628646"><ele>289.25</ele><time>2026-04-06T16:20:58Z</time></trkpt><trkpt lat="45.78371165529773" lon="1.0787176130540053"><ele>289.0</ele><time>2026-04-06T16:20:59Z</time></trkpt><trkpt lat="45.78356488413682" lon="1.0786620868352248"><ele>289.66666666666663</ele><time>2026-04-06T16:21:00Z</time></trkpt><trkpt lat="45.78341090202616" lon="1.078602531468828"><ele>290.3333333333333</ele><time>2026-04-06T16:21:01Z</time></trkpt><trkpt lat="45.783252284076816" lon="1.0785400104823681"><ele>291.0</ele><time>2026-04-06T16:21:02Z</time></trkpt><trkpt lat="45.783089970457844" lon="1.0784880023058827"><ele>291.0</ele><time>2026-04-06T16:21:03Z</time></trkpt><trkpt lat="45.782916897387395" lon="1.0784579313880491"><ele>291.0</ele><time>2026-04-06T16:21:04Z</time></trkpt><trkpt lat="45.78274251650538" lon="1.0784461161793355"><ele>291.0</ele><time>2026-04-06T16:21:05Z</time></trkpt><trkpt lat="45.78256647627912" lon="1.0784430726969556"><ele>291.5</ele><time>2026-04-06T16:21:06Z</time></trkpt><trkpt lat="45.782412336109545" lon="1.0784390428961435"><ele>292.0</ele><time>2026-04-06T16:21:07Z</time></trkpt><trkpt lat="45.7822661424356" lon="1.0784410274373797"><ele>292.5</ele><time>2026-04-06T16:21:08Z</time></trkpt><trkpt lat="45.78211874918072" lon="1.0784543421706676"><ele>293.0</ele><time>2026-04-06T16:21:09Z</time></trkpt><trkpt lat="45.78196838232977" lon="1.0784716549671514"><ele>294.0</ele><time>2026-04-06T16:21:10Z</time></trkpt><trkpt lat="45.78181068206508" lon="1.07848521031571"><ele>295.0</ele><time>2026-04-06T16:21:11Z</time></trkpt><trkpt lat="45.781655148699684" lon="1.0785071620932087"><ele>296.0</ele><time>2026-04-06T16:21:12Z</time></trkpt><trkpt lat="45.78150005966147" lon="1.078525416237211"><ele>296.0</ele><time>2026-04-06T16:21:13Z</time></trkpt><trkpt lat="45.78135105845497" lon="1.0785447005888251"><ele>296.0</ele><time>2026-04-06T16:21:14Z</time></trkpt><trkpt lat="45.78119958712367" lon="1.0785654014517072"><ele>296.0</ele><time>2026-04-06T16:21:15Z</time></trkpt><trkpt lat="45.78104580729223" lon="1.078584074644987"><ele>295.6666666666667</ele><time>2026-04-06T16:21:16Z</time></trkpt><trkpt lat="45.780891732915826" lon="1.0785995423056125"><ele>295.3333333333333</ele><time>2026-04-06T16:21:17Z</time></trkpt><trkpt lat="45.78073543473078" lon="1.078616271885921"><ele>295.0</ele><time>2026-04-06T16:21:18Z</time></trkpt><trkpt lat="45.780572523438025" lon="1.0786337198861746"><ele>295.0</ele><time>2026-04-06T16:21:19Z</time></trkpt><trkpt lat="45.78040350013096" lon="1.0786537581064541"><ele>295.0</ele><time>2026-04-06T16:21:20Z</time></trkpt><trkpt lat="45.78024023128018" lon="1.0786737535579847"><ele>295.0</ele><time>2026-04-06T16:21:21Z</time></trkpt><trkpt lat="45.78008930716143" lon="1.0786972478470864"><ele>295.0</ele><time>2026-04-06T16:21:22Z</time></trkpt><trkpt lat="45.779944228647395" lon="1.0787149622253445"><ele>295.0</ele><time>2026-04-06T16:21:23Z</time></trkpt><trkpt lat="45.77980488659465" lon="1.078727652011944"><ele>295.0</ele><time>2026-04-06T16:21:24Z</time></trkpt><trkpt lat="45.77966924286393" lon="1.0787417288144894"><ele>295.0</ele><time>2026-04-06T16:21:25Z</time></trkpt><trkpt lat="45.77953635551724" lon="1.0787588720881458"><ele>295.0</ele><time>2026-04-06T16:21:26Z</time></trkpt><trkpt lat="45.77941283166728" lon="1.0787796662732227"><ele>295.0</ele><time>2026-04-06T16:21:27Z</time></trkpt><trkpt lat="45.77929423489483" lon="1.0787860816324555"><ele>295.0</ele><time>2026-04-06T16:21:28Z</time></trkpt><trkpt lat="45.779172922035265" lon="1.0787886162765212"><ele>295.0</ele><time>2026-04-06T16:21:29Z</time></trkpt><trkpt lat="45.779058511012494" lon="1.0787913317644888"><ele>295.0</ele><time>2026-04-06T16:21:30Z</time></trkpt><trkpt lat="45.778947267760536" lon="1.078798227317824"><ele>295.0</ele><time>2026-04-06T16:21:31Z</time></trkpt><trkpt lat="45.77884860777676" lon="1.0788135486369026"><ele>295.0</ele><time>2026-04-06T16:21:32Z</time></trkpt><trkpt lat="45.778757921602825" lon="1.0788552895070738"><ele>295.0</ele><time>2026-04-06T16:21:33Z</time></trkpt><trkpt lat="45.77867196273457" lon="1.0789355672653167"><ele>295.0</ele><time>2026-04-06T16:21:34Z</time></trkpt><trkpt lat="45.77859681873421" lon="1.0790505288045347"><ele>294.6</ele><time>2026-04-06T16:21:35Z</time></trkpt><trkpt lat="45.7785404230159" lon="1.0791828383540203"><ele>294.2</ele><time>2026-04-06T16:21:36Z</time></trkpt><trkpt lat="45.77850604466162" lon="1.0793280082858263"><ele>293.8</ele><time>2026-04-06T16:21:37Z</time></trkpt><trkpt lat="45.77850215807996" lon="1.0794485252491652"><ele>293.4</ele><time>2026-04-06T16:21:38Z</time></trkpt><trkpt lat="45.7784926658031" lon="1.079541398631401"><ele>293.0</ele><time>2026-04-06T16:21:39Z</time></trkpt><trkpt lat="45.77830103729109" lon="1.0795605630408938"><ele>293.0</ele><time>2026-04-06T16:21:40Z</time></trkpt><trkpt lat="45.77820409208244" lon="1.0795813807268408"><ele>293.0</ele><time>2026-04-06T16:21:41Z</time></trkpt><trkpt lat="45.778084380142616" lon="1.07956904529842"><ele>293.0</ele><time>2026-04-06T16:21:42Z</time></trkpt><trkpt lat="45.777927535508205" lon="1.0795282437331157"><ele>293.0</ele><time>2026-04-06T16:21:43Z</time></trkpt><trkpt lat="45.777755507157686" lon="1.079474144607818"><ele>294.6666666666667</ele><time>2026-04-06T16:21:44.001Z</time></trkpt><trkpt lat="45.77759156691846" lon="1.0794521062322473"><ele>296.3333333333333</ele><time>2026-04-06T16:21:45.001Z</time></trkpt><trkpt lat="45.77743536668111" lon="1.0794670457439275"><ele>298.0</ele><time>2026-04-06T16:21:46.001Z</time></trkpt><trkpt lat="45.77728464790771" lon="1.0795009854211675"><ele>298.0</ele><time>2026-04-06T16:21:47.001Z</time></trkpt><trkpt lat="45.77713197068803" lon="1.0795359109804479"><ele>298.0</ele><time>2026-04-06T16:21:48.001Z</time></trkpt><trkpt lat="45.77697645423513" lon="1.0795469470205172"><ele>298.0</ele><time>2026-04-06T16:21:49.001Z</time></trkpt><trkpt lat="45.77682525607578" lon="1.0795341463392358"><ele>300.0</ele><time>2026-04-06T16:21:50.001Z</time></trkpt><trkpt lat="45.77669556488021" lon="1.0795161079228655"><ele>302.0</ele><time>2026-04-06T16:21:51.001Z</time></trkpt><trkpt lat="45.776575294328026" lon="1.0795099547464442"><ele>304.0</ele><time>2026-04-06T16:21:52.001Z</time></trkpt><trkpt lat="45.77646367613025" lon="1.0795224751709647"><ele>306.0</ele><time>2026-04-06T16:21:53.001Z</time></trkpt><trkpt lat="45.77635539345478" lon="1.0795432465475692"><ele>306.0</ele><time>2026-04-06T16:21:54.001Z</time></trkpt><trkpt lat="45.77624096182307" lon="1.0795795723461428"><ele>306.0</ele><time>2026-04-06T16:21:55.001Z</time></trkpt><trkpt lat="45.776127388802315" lon="1.0796155891021901"><ele>306.0</ele><time>2026-04-06T16:21:56.001Z</time></trkpt><trkpt lat="45.77601999943226" lon="1.0796495697098432"><ele>306.0</ele><time>2026-04-06T16:21:57.001Z</time></trkpt><trkpt lat="45.775909144907224" lon="1.0796837199446507"><ele>308.0</ele><time>2026-04-06T16:21:58.001Z</time></trkpt><trkpt lat="45.77580132124729" lon="1.0797202031017947"><ele>310.0</ele><time>2026-04-06T16:21:59.001Z</time></trkpt><trkpt lat="45.77569075600548" lon="1.0797667479843616"><ele>312.0</ele><time>2026-04-06T16:22:00.001Z</time></trkpt><trkpt lat="45.77557828488055" lon="1.079821019889693"><ele>314.0</ele><time>2026-04-06T16:22:01.001Z</time></trkpt><trkpt lat="45.77546297780922" lon="1.0798729342455078"><ele>314.0</ele><time>2026-04-06T16:22:02.001Z</time></trkpt><trkpt lat="45.77534487500108" lon="1.0799232145952515"><ele>314.0</ele><time>2026-04-06T16:22:03.001Z</time></trkpt><trkpt lat="45.77522563120805" lon="1.079970395239959"><ele>314.0</ele><time>2026-04-06T16:22:04.001Z</time></trkpt><trkpt lat="45.77510703627686" lon="1.0800229729212976"><ele>314.0</ele><time>2026-04-06T16:22:05.001Z</time></trkpt><trkpt lat="45.77498801631974" lon="1.0800735478198469"><ele>314.5</ele><time>2026-04-06T16:22:06.001Z</time></trkpt><trkpt lat="45.77486984539677" lon="1.080121849342876"><ele>315.0</ele><time>2026-04-06T16:22:07.001Z</time></trkpt><trkpt lat="45.77476213306411" lon="1.0801652055794309"><ele>315.5</ele><time>2026-04-06T16:22:08.001Z</time></trkpt><trkpt lat="45.774657757467146" lon="1.080210202610096"><ele>316.0</ele><time>2026-04-06T16:22:09.001Z</time></trkpt><trkpt lat="45.77455127914528" lon="1.0802546826371404"><ele>316.0</ele><time>2026-04-06T16:22:10.001Z</time></trkpt><trkpt lat="45.774448576491295" lon="1.080299623523902"><ele>316.0</ele><time>2026-04-06T16:22:11.001Z</time></trkpt><trkpt lat="45.774345119852356" lon="1.0803450702839237"><ele>316.0</ele><time>2026-04-06T16:22:12.001Z</time></trkpt><trkpt lat="45.77423621442397" lon="1.0803865408770956"><ele>316.0</ele><time>2026-04-06T16:22:13.001Z</time></trkpt><trkpt lat="45.77412571834432" lon="1.080436580892289"><ele>316.0</ele><time>2026-04-06T16:22:14.001Z</time></trkpt><trkpt lat="45.774013686266876" lon="1.080490384862506"><ele>317.0</ele><time>2026-04-06T16:22:15.001Z</time></trkpt><trkpt lat="45.77390279206262" lon="1.0805367425043422"><ele>318.0</ele><time>2026-04-06T16:22:16.001Z</time></trkpt><trkpt lat="45.773797096339095" lon="1.0805945254063634"><ele>319.0</ele><time>2026-04-06T16:22:17.001Z</time></trkpt><trkpt lat="45.77369450298901" lon="1.0806751748908916"><ele>320.0</ele><time>2026-04-06T16:22:18.001Z</time></trkpt><trkpt lat="45.773596228108126" lon="1.080763279129186"><ele>321.25</ele><time>2026-04-06T16:22:19.001Z</time></trkpt><trkpt lat="45.773497680985756" lon="1.0808615150980245"><ele>322.5</ele><time>2026-04-06T16:22:20.001Z</time></trkpt><trkpt lat="45.773399524675284" lon="1.0809653286722225"><ele>323.75</ele><time>2026-04-06T16:22:21.001Z</time></trkpt><trkpt lat="45.77330069569243" lon="1.0810664754963315"><ele>325.0</ele><time>2026-04-06T16:22:22.001Z</time></trkpt><trkpt lat="45.77320587840599" lon="1.0811591062378523"><ele>325.0</ele><time>2026-04-06T16:22:23.001Z</time></trkpt><trkpt lat="45.77310934174889" lon="1.0812559509665634"><ele>325.0</ele><time>2026-04-06T16:22:24.001Z</time></trkpt><trkpt lat="45.77301414675704" lon="1.0813438473685513"><ele>325.0</ele><time>2026-04-06T16:22:25.001Z</time></trkpt><trkpt lat="45.772916085875735" lon="1.081415327398075"><ele>325.0</ele><time>2026-04-06T16:22:26.001Z</time></trkpt><trkpt lat="45.77281653225474" lon="1.0814777665224828"><ele>325.0</ele><time>2026-04-06T16:22:27.001Z</time></trkpt><trkpt lat="45.77271822511186" lon="1.081524268267007"><ele>325.0</ele><time>2026-04-06T16:22:28.001Z</time></trkpt><trkpt lat="45.772643280092986" lon="1.0815526717067836"><ele>325.0</ele><time>2026-04-06T16:22:29.001Z</time></trkpt><trkpt lat="45.77256182116433" lon="1.0816065900624827"><ele>325.0</ele><time>2026-04-06T16:22:31.001Z</time></trkpt><trkpt lat="45.77249868630365" lon="1.081715044410232"><ele>325.0</ele><time>2026-04-06T16:22:35.001Z</time></trkpt><trkpt lat="45.77249622526754" lon="1.0819065419124996"><ele>325.6</ele><time>2026-04-06T16:22:37.001Z</time></trkpt><trkpt lat="45.77244773578111" lon="1.0820100073627652"><ele>326.2</ele><time>2026-04-06T16:22:38.001Z</time></trkpt><trkpt lat="45.7723887705241" lon="1.0820929399547954"><ele>326.79999999999995</ele><time>2026-04-06T16:22:39.001Z</time></trkpt><trkpt lat="45.77230930022996" lon="1.0821282813579711"><ele>327.4</ele><time>2026-04-06T16:22:40.001Z</time></trkpt><trkpt lat="45.77222730721589" lon="1.082154195641434"><ele>328.0</ele><time>2026-04-06T16:22:41.001Z</time></trkpt><trkpt lat="45.77212290948596" lon="1.082090052530543"><ele>328.0</ele><time>2026-04-06T16:22:42.001Z</time></trkpt><trkpt lat="45.77202859251533" lon="1.0820494016438773"><ele>328.0</ele><time>2026-04-06T16:22:43.001Z</time></trkpt><trkpt lat="45.77193488109521" lon="1.0820137802492646"><ele>328.0</ele><time>2026-04-06T16:22:44.001Z</time></trkpt><trkpt lat="45.77185177176461" lon="1.0819874279983372"><ele>328.0</ele><time>2026-04-06T16:22:45.001Z</time></trkpt><trkpt lat="45.77178306016536" lon="1.0819576088482177"><ele>328.0</ele><time>2026-04-06T16:22:46.001Z</time></trkpt><trkpt lat="45.77170282298093" lon="1.0819390601663867"><ele>328.0</ele><time>2026-04-06T16:22:48.001Z</time></trkpt><trkpt lat="45.77165693728933" lon="1.082084289451145"><ele>330.0</ele><time>2026-04-06T16:22:51.002Z</time></trkpt><trkpt lat="45.77163340152843" lon="1.0821876411015872"><ele>330.0</ele><time>2026-04-06T16:22:53.002Z</time></trkpt></trkseg></trk></gpx>